<?xml version="1.0" encoding="UTF-8" standalone="no" ?>
<gpx xmlns="http://www.topografix.com/GPX/1/1" creator="www.cicloide.com" version="1.1" xmlns:xsi="http://www.w3.org/2001/XMLSchema-instance" xsi:schemaLocation="http://www.topografix.com/GPX/1/1 http://www.topografix.com/GPX/1/1/gpx.xsd">
  <trk>
    <name>www.cicloide.com 11055</name>
    <desc>www.cicloide.com 11055</desc>
    <trkseg>
      <trkpt lat="41.601208000" lon="2.544399100">
        <ele>114.50</ele>
        <time>2012-10-28T09:17:57Z</time>
      </trkpt>
      <trkpt lat="41.601208000" lon="2.544402100">
        <ele>114.50</ele>
        <time>2012-10-28T09:17:59Z</time>
      </trkpt>
      <trkpt lat="41.601227000" lon="2.544411100">
        <ele>114.50</ele>
        <time>2012-10-28T09:17:59Z</time>
      </trkpt>
      <trkpt lat="41.601307000" lon="2.544480100">
        <ele>114.50</ele>
        <time>2012-10-28T09:18:09Z</time>
      </trkpt>
      <trkpt lat="41.601334000" lon="2.544512100">
        <ele>114.50</ele>
        <time>2012-10-28T09:18:13Z</time>
      </trkpt>
      <trkpt lat="41.601452000" lon="2.544666100">
        <ele>114.50</ele>
        <time>2012-10-28T09:18:22Z</time>
      </trkpt>
      <trkpt lat="41.601562000" lon="2.544811100">
        <ele>112.60</ele>
        <time>2012-10-28T09:18:29Z</time>
      </trkpt>
      <trkpt lat="41.601723000" lon="2.545041100">
        <ele>112.60</ele>
        <time>2012-10-28T09:18:37Z</time>
      </trkpt>
      <trkpt lat="41.601894000" lon="2.545276100">
        <ele>112.10</ele>
        <time>2012-10-28T09:18:48Z</time>
      </trkpt>
      <trkpt lat="41.602043000" lon="2.545455100">
        <ele>113.10</ele>
        <time>2012-10-28T09:18:58Z</time>
      </trkpt>
      <trkpt lat="41.602139000" lon="2.545604100">
        <ele>113.60</ele>
        <time>2012-10-28T09:19:07Z</time>
      </trkpt>
      <trkpt lat="41.602165000" lon="2.545719100">
        <ele>114.50</ele>
        <time>2012-10-28T09:19:12Z</time>
      </trkpt>
      <trkpt lat="41.602047000" lon="2.545783100">
        <ele>115.50</ele>
        <time>2012-10-28T09:19:19Z</time>
      </trkpt>
      <trkpt lat="41.601852000" lon="2.545833100">
        <ele>116.00</ele>
        <time>2012-10-28T09:19:28Z</time>
      </trkpt>
      <trkpt lat="41.601673000" lon="2.545899100">
        <ele>116.00</ele>
        <time>2012-10-28T09:19:35Z</time>
      </trkpt>
      <trkpt lat="41.601517000" lon="2.545932100">
        <ele>115.50</ele>
        <time>2012-10-28T09:19:42Z</time>
      </trkpt>
      <trkpt lat="41.601334000" lon="2.545984100">
        <ele>115.00</ele>
        <time>2012-10-28T09:19:52Z</time>
      </trkpt>
      <trkpt lat="41.601208000" lon="2.546078100">
        <ele>114.10</ele>
        <time>2012-10-28T09:19:59Z</time>
      </trkpt>
      <trkpt lat="41.601074000" lon="2.546190100">
        <ele>116.50</ele>
        <time>2012-10-28T09:20:08Z</time>
      </trkpt>
      <trkpt lat="41.600937000" lon="2.546307100">
        <ele>117.40</ele>
        <time>2012-10-28T09:20:15Z</time>
      </trkpt>
      <trkpt lat="41.600784000" lon="2.546410100">
        <ele>119.30</ele>
        <time>2012-10-28T09:20:25Z</time>
      </trkpt>
      <trkpt lat="41.600719000" lon="2.546438100">
        <ele>120.30</ele>
        <time>2012-10-28T09:20:30Z</time>
      </trkpt>
      <trkpt lat="41.600529000" lon="2.546427100">
        <ele>122.20</ele>
        <time>2012-10-28T09:20:41Z</time>
      </trkpt>
      <trkpt lat="41.600407000" lon="2.546319100">
        <ele>123.70</ele>
        <time>2012-10-28T09:20:48Z</time>
      </trkpt>
      <trkpt lat="41.600281000" lon="2.546200100">
        <ele>125.10</ele>
        <time>2012-10-28T09:20:55Z</time>
      </trkpt>
      <trkpt lat="41.600208000" lon="2.546156100">
        <ele>125.60</ele>
        <time>2012-10-28T09:21:00Z</time>
      </trkpt>
      <trkpt lat="41.600151000" lon="2.546250100">
        <ele>128.90</ele>
        <time>2012-10-28T09:21:05Z</time>
      </trkpt>
      <trkpt lat="41.600170000" lon="2.546286100">
        <ele>130.40</ele>
        <time>2012-10-28T09:21:07Z</time>
      </trkpt>
      <trkpt lat="41.600296000" lon="2.546494100">
        <ele>132.30</ele>
        <time>2012-10-28T09:21:17Z</time>
      </trkpt>
      <trkpt lat="41.600418000" lon="2.546652100">
        <ele>132.30</ele>
        <time>2012-10-28T09:21:26Z</time>
      </trkpt>
      <trkpt lat="41.600578000" lon="2.546753100">
        <ele>133.30</ele>
        <time>2012-10-28T09:21:33Z</time>
      </trkpt>
      <trkpt lat="41.600742000" lon="2.546792100">
        <ele>134.20</ele>
        <time>2012-10-28T09:21:42Z</time>
      </trkpt>
      <trkpt lat="41.600929000" lon="2.546843100">
        <ele>135.70</ele>
        <time>2012-10-28T09:21:51Z</time>
      </trkpt>
      <trkpt lat="41.601147000" lon="2.546954100">
        <ele>137.60</ele>
        <time>2012-10-28T09:22:01Z</time>
      </trkpt>
      <trkpt lat="41.601311000" lon="2.546979100">
        <ele>139.50</ele>
        <time>2012-10-28T09:22:08Z</time>
      </trkpt>
      <trkpt lat="41.601425000" lon="2.546978100">
        <ele>141.00</ele>
        <time>2012-10-28T09:22:15Z</time>
      </trkpt>
      <trkpt lat="41.601593000" lon="2.547003100">
        <ele>142.40</ele>
        <time>2012-10-28T09:22:22Z</time>
      </trkpt>
      <trkpt lat="41.601799000" lon="2.546960100">
        <ele>143.40</ele>
        <time>2012-10-28T09:22:31Z</time>
      </trkpt>
      <trkpt lat="41.601944000" lon="2.546919100">
        <ele>145.30</ele>
        <time>2012-10-28T09:22:38Z</time>
      </trkpt>
      <trkpt lat="41.601963000" lon="2.546910100">
        <ele>145.30</ele>
        <time>2012-10-28T09:22:38Z</time>
      </trkpt>
      <trkpt lat="41.602097000" lon="2.547006100">
        <ele>147.20</ele>
        <time>2012-10-28T09:22:46Z</time>
      </trkpt>
      <trkpt lat="41.602215000" lon="2.547173100">
        <ele>148.70</ele>
        <time>2012-10-28T09:22:55Z</time>
      </trkpt>
      <trkpt lat="41.602398000" lon="2.547402100">
        <ele>151.10</ele>
        <time>2012-10-28T09:23:05Z</time>
      </trkpt>
      <trkpt lat="41.602547000" lon="2.547576100">
        <ele>153.00</ele>
        <time>2012-10-28T09:23:14Z</time>
      </trkpt>
      <trkpt lat="41.602730000" lon="2.547750100">
        <ele>153.90</ele>
        <time>2012-10-28T09:23:21Z</time>
      </trkpt>
      <trkpt lat="41.602993000" lon="2.547956100">
        <ele>155.40</ele>
        <time>2012-10-28T09:23:33Z</time>
      </trkpt>
      <trkpt lat="41.603161000" lon="2.548066100">
        <ele>155.90</ele>
        <time>2012-10-28T09:23:40Z</time>
      </trkpt>
      <trkpt lat="41.603294000" lon="2.548139100">
        <ele>156.80</ele>
        <time>2012-10-28T09:23:47Z</time>
      </trkpt>
      <trkpt lat="41.603352000" lon="2.548175100">
        <ele>157.30</ele>
        <time>2012-10-28T09:23:51Z</time>
      </trkpt>
      <trkpt lat="41.603344000" lon="2.548290100">
        <ele>158.30</ele>
        <time>2012-10-28T09:23:56Z</time>
      </trkpt>
      <trkpt lat="41.603306000" lon="2.548277100">
        <ele>158.80</ele>
        <time>2012-10-28T09:23:58Z</time>
      </trkpt>
      <trkpt lat="41.603100000" lon="2.548183100">
        <ele>160.20</ele>
        <time>2012-10-28T09:24:08Z</time>
      </trkpt>
      <trkpt lat="41.602943000" lon="2.548142100">
        <ele>161.20</ele>
        <time>2012-10-28T09:24:15Z</time>
      </trkpt>
      <trkpt lat="41.602882000" lon="2.548222100">
        <ele>162.60</ele>
        <time>2012-10-28T09:24:19Z</time>
      </trkpt>
      <trkpt lat="41.602913000" lon="2.548444100">
        <ele>164.00</ele>
        <time>2012-10-28T09:24:29Z</time>
      </trkpt>
      <trkpt lat="41.602940000" lon="2.548664100">
        <ele>166.00</ele>
        <time>2012-10-28T09:24:36Z</time>
      </trkpt>
      <trkpt lat="41.602940000" lon="2.548939100">
        <ele>167.40</ele>
        <time>2012-10-28T09:24:43Z</time>
      </trkpt>
      <trkpt lat="41.602993000" lon="2.549165100">
        <ele>168.90</ele>
        <time>2012-10-28T09:24:50Z</time>
      </trkpt>
      <trkpt lat="41.603069000" lon="2.549434100">
        <ele>169.30</ele>
        <time>2012-10-28T09:24:59Z</time>
      </trkpt>
      <trkpt lat="41.603077000" lon="2.549707100">
        <ele>170.80</ele>
        <time>2012-10-28T09:25:06Z</time>
      </trkpt>
      <trkpt lat="41.603146000" lon="2.549948100">
        <ele>171.70</ele>
        <time>2012-10-28T09:25:14Z</time>
      </trkpt>
      <trkpt lat="41.603214000" lon="2.550200100">
        <ele>172.70</ele>
        <time>2012-10-28T09:25:23Z</time>
      </trkpt>
      <trkpt lat="41.603249000" lon="2.550447100">
        <ele>174.60</ele>
        <time>2012-10-28T09:25:30Z</time>
      </trkpt>
      <trkpt lat="41.603329000" lon="2.550714100">
        <ele>175.60</ele>
        <time>2012-10-28T09:25:39Z</time>
      </trkpt>
      <trkpt lat="41.603382000" lon="2.551002100">
        <ele>177.50</ele>
        <time>2012-10-28T09:25:48Z</time>
      </trkpt>
      <trkpt lat="41.603470000" lon="2.551275100">
        <ele>178.90</ele>
        <time>2012-10-28T09:25:56Z</time>
      </trkpt>
      <trkpt lat="41.603531000" lon="2.551446100">
        <ele>180.40</ele>
        <time>2012-10-28T09:26:00Z</time>
      </trkpt>
      <trkpt lat="41.603424000" lon="2.551742100">
        <ele>181.40</ele>
        <time>2012-10-28T09:26:08Z</time>
      </trkpt>
      <trkpt lat="41.603260000" lon="2.551876100">
        <ele>181.80</ele>
        <time>2012-10-28T09:26:14Z</time>
      </trkpt>
      <trkpt lat="41.603027000" lon="2.552008100">
        <ele>183.30</ele>
        <time>2012-10-28T09:26:24Z</time>
      </trkpt>
      <trkpt lat="41.602890000" lon="2.551917100">
        <ele>184.20</ele>
        <time>2012-10-28T09:26:29Z</time>
      </trkpt>
      <trkpt lat="41.602768000" lon="2.551840100">
        <ele>185.20</ele>
        <time>2012-10-28T09:26:36Z</time>
      </trkpt>
      <trkpt lat="41.602642000" lon="2.551986100">
        <ele>189.50</ele>
        <time>2012-10-28T09:26:43Z</time>
      </trkpt>
      <trkpt lat="41.602573000" lon="2.552123100">
        <ele>192.90</ele>
        <time>2012-10-28T09:26:48Z</time>
      </trkpt>
      <trkpt lat="41.602551000" lon="2.552156100">
        <ele>192.90</ele>
        <time>2012-10-28T09:26:50Z</time>
      </trkpt>
      <trkpt lat="41.602417000" lon="2.552170100">
        <ele>192.90</ele>
        <time>2012-10-28T09:26:59Z</time>
      </trkpt>
      <trkpt lat="41.602238000" lon="2.552210100">
        <ele>196.20</ele>
        <time>2012-10-28T09:27:09Z</time>
      </trkpt>
      <trkpt lat="41.602165000" lon="2.552252100">
        <ele>199.10</ele>
        <time>2012-10-28T09:27:13Z</time>
      </trkpt>
      <trkpt lat="41.602055000" lon="2.552357100">
        <ele>201.50</ele>
        <time>2012-10-28T09:27:20Z</time>
      </trkpt>
      <trkpt lat="41.601971000" lon="2.552507100">
        <ele>201.50</ele>
        <time>2012-10-28T09:27:30Z</time>
      </trkpt>
      <trkpt lat="41.601913000" lon="2.552667100">
        <ele>202.50</ele>
        <time>2012-10-28T09:27:39Z</time>
      </trkpt>
      <trkpt lat="41.601841000" lon="2.552814100">
        <ele>204.40</ele>
        <time>2012-10-28T09:27:48Z</time>
      </trkpt>
      <trkpt lat="41.601746000" lon="2.552984100">
        <ele>206.80</ele>
        <time>2012-10-28T09:27:58Z</time>
      </trkpt>
      <trkpt lat="41.601662000" lon="2.553164100">
        <ele>210.70</ele>
        <time>2012-10-28T09:28:07Z</time>
      </trkpt>
      <trkpt lat="41.601658000" lon="2.553183100">
        <ele>211.60</ele>
        <time>2012-10-28T09:28:09Z</time>
      </trkpt>
      <trkpt lat="41.601650000" lon="2.553289100">
        <ele>214.50</ele>
        <time>2012-10-28T09:28:14Z</time>
      </trkpt>
      <trkpt lat="41.601612000" lon="2.553503100">
        <ele>214.50</ele>
        <time>2012-10-28T09:28:23Z</time>
      </trkpt>
      <trkpt lat="41.601574000" lon="2.553701100">
        <ele>214.50</ele>
        <time>2012-10-28T09:28:31Z</time>
      </trkpt>
      <trkpt lat="41.601662000" lon="2.553784100">
        <ele>215.50</ele>
        <time>2012-10-28T09:28:38Z</time>
      </trkpt>
      <trkpt lat="41.601688000" lon="2.553789100">
        <ele>215.90</ele>
        <time>2012-10-28T09:28:40Z</time>
      </trkpt>
      <trkpt lat="41.601837000" lon="2.553791100">
        <ele>219.30</ele>
        <time>2012-10-28T09:28:52Z</time>
      </trkpt>
      <trkpt lat="41.601898000" lon="2.553789100">
        <ele>222.70</ele>
        <time>2012-10-28T09:28:56Z</time>
      </trkpt>
      <trkpt lat="41.602001000" lon="2.553779100">
        <ele>226.10</ele>
        <time>2012-10-28T09:29:01Z</time>
      </trkpt>
      <trkpt lat="41.602158000" lon="2.553751100">
        <ele>226.10</ele>
        <time>2012-10-28T09:29:11Z</time>
      </trkpt>
      <trkpt lat="41.602207000" lon="2.553756100">
        <ele>226.10</ele>
        <time>2012-10-28T09:29:13Z</time>
      </trkpt>
      <trkpt lat="41.602348000" lon="2.553885100">
        <ele>226.50</ele>
        <time>2012-10-28T09:29:22Z</time>
      </trkpt>
      <trkpt lat="41.602482000" lon="2.553940100">
        <ele>228.40</ele>
        <time>2012-10-28T09:29:30Z</time>
      </trkpt>
      <trkpt lat="41.602634000" lon="2.553916100">
        <ele>229.40</ele>
        <time>2012-10-28T09:29:37Z</time>
      </trkpt>
      <trkpt lat="41.602894000" lon="2.553897100">
        <ele>230.90</ele>
        <time>2012-10-28T09:29:48Z</time>
      </trkpt>
      <trkpt lat="41.603096000" lon="2.553861100">
        <ele>231.80</ele>
        <time>2012-10-28T09:29:58Z</time>
      </trkpt>
      <trkpt lat="41.603256000" lon="2.553771100">
        <ele>232.30</ele>
        <time>2012-10-28T09:30:05Z</time>
      </trkpt>
      <trkpt lat="41.603455000" lon="2.553629100">
        <ele>234.20</ele>
        <time>2012-10-28T09:30:14Z</time>
      </trkpt>
      <trkpt lat="41.603611000" lon="2.553560100">
        <ele>235.70</ele>
        <time>2012-10-28T09:30:23Z</time>
      </trkpt>
      <trkpt lat="41.603733000" lon="2.553520100">
        <ele>239.00</ele>
        <time>2012-10-28T09:30:30Z</time>
      </trkpt>
      <trkpt lat="41.603840000" lon="2.553437100">
        <ele>242.40</ele>
        <time>2012-10-28T09:30:37Z</time>
      </trkpt>
      <trkpt lat="41.603973000" lon="2.553331100">
        <ele>242.40</ele>
        <time>2012-10-28T09:30:45Z</time>
      </trkpt>
      <trkpt lat="41.604107000" lon="2.553336100">
        <ele>243.40</ele>
        <time>2012-10-28T09:30:52Z</time>
      </trkpt>
      <trkpt lat="41.604237000" lon="2.553357100">
        <ele>244.80</ele>
        <time>2012-10-28T09:31:01Z</time>
      </trkpt>
      <trkpt lat="41.604313000" lon="2.553348100">
        <ele>245.30</ele>
        <time>2012-10-28T09:31:05Z</time>
      </trkpt>
      <trkpt lat="41.604439000" lon="2.553354100">
        <ele>246.20</ele>
        <time>2012-10-28T09:31:12Z</time>
      </trkpt>
      <trkpt lat="41.604527000" lon="2.553330100">
        <ele>247.70</ele>
        <time>2012-10-28T09:31:17Z</time>
      </trkpt>
      <trkpt lat="41.604683000" lon="2.553275100">
        <ele>249.10</ele>
        <time>2012-10-28T09:31:25Z</time>
      </trkpt>
      <trkpt lat="41.604698000" lon="2.553269100">
        <ele>249.10</ele>
        <time>2012-10-28T09:31:27Z</time>
      </trkpt>
      <trkpt lat="41.604774000" lon="2.553271100">
        <ele>250.10</ele>
        <time>2012-10-28T09:31:31Z</time>
      </trkpt>
      <trkpt lat="41.604813000" lon="2.553290100">
        <ele>250.60</ele>
        <time>2012-10-28T09:31:34Z</time>
      </trkpt>
      <trkpt lat="41.604931000" lon="2.553337100">
        <ele>251.00</ele>
        <time>2012-10-28T09:31:39Z</time>
      </trkpt>
      <trkpt lat="41.605114000" lon="2.553509100">
        <ele>251.50</ele>
        <time>2012-10-28T09:31:46Z</time>
      </trkpt>
      <trkpt lat="41.605282000" lon="2.553673100">
        <ele>251.50</ele>
        <time>2012-10-28T09:31:53Z</time>
      </trkpt>
      <trkpt lat="41.605518000" lon="2.553731100">
        <ele>251.50</ele>
        <time>2012-10-28T09:32:00Z</time>
      </trkpt>
      <trkpt lat="41.605789000" lon="2.553713100">
        <ele>252.50</ele>
        <time>2012-10-28T09:32:07Z</time>
      </trkpt>
      <trkpt lat="41.606007000" lon="2.553667100">
        <ele>253.00</ele>
        <time>2012-10-28T09:32:14Z</time>
      </trkpt>
      <trkpt lat="41.606140000" lon="2.553489100">
        <ele>254.40</ele>
        <time>2012-10-28T09:32:21Z</time>
      </trkpt>
      <trkpt lat="41.606316000" lon="2.553410100">
        <ele>255.90</ele>
        <time>2012-10-28T09:32:28Z</time>
      </trkpt>
      <trkpt lat="41.606537000" lon="2.553292100">
        <ele>257.30</ele>
        <time>2012-10-28T09:32:37Z</time>
      </trkpt>
      <trkpt lat="41.606628000" lon="2.553177100">
        <ele>260.60</ele>
        <time>2012-10-28T09:32:42Z</time>
      </trkpt>
      <trkpt lat="41.606705000" lon="2.553098100">
        <ele>264.00</ele>
        <time>2012-10-28T09:32:47Z</time>
      </trkpt>
      <trkpt lat="41.606869000" lon="2.552986100">
        <ele>264.50</ele>
        <time>2012-10-28T09:32:53Z</time>
      </trkpt>
      <trkpt lat="41.607162000" lon="2.552938100">
        <ele>261.10</ele>
        <time>2012-10-28T09:32:58Z</time>
      </trkpt>
      <trkpt lat="41.607231000" lon="2.552927100">
        <ele>259.70</ele>
        <time>2012-10-28T09:32:58Z</time>
      </trkpt>
      <trkpt lat="41.607491000" lon="2.553040100">
        <ele>255.90</ele>
        <time>2012-10-28T09:33:03Z</time>
      </trkpt>
      <trkpt lat="41.607685000" lon="2.553194100">
        <ele>254.40</ele>
        <time>2012-10-28T09:33:05Z</time>
      </trkpt>
      <trkpt lat="41.607872000" lon="2.553299100">
        <ele>254.40</ele>
        <time>2012-10-28T09:33:08Z</time>
      </trkpt>
      <trkpt lat="41.608109000" lon="2.553453100">
        <ele>254.40</ele>
        <time>2012-10-28T09:33:13Z</time>
      </trkpt>
      <trkpt lat="41.608315000" lon="2.553596100">
        <ele>255.90</ele>
        <time>2012-10-28T09:33:20Z</time>
      </trkpt>
      <trkpt lat="41.608471000" lon="2.553722100">
        <ele>258.20</ele>
        <time>2012-10-28T09:33:27Z</time>
      </trkpt>
      <trkpt lat="41.608624000" lon="2.553815100">
        <ele>261.10</ele>
        <time>2012-10-28T09:33:36Z</time>
      </trkpt>
      <trkpt lat="41.608681000" lon="2.553856100">
        <ele>264.50</ele>
        <time>2012-10-28T09:33:38Z</time>
      </trkpt>
      <trkpt lat="41.608715000" lon="2.553886100">
        <ele>265.50</ele>
        <time>2012-10-28T09:33:41Z</time>
      </trkpt>
      <trkpt lat="41.608826000" lon="2.553977100">
        <ele>267.40</ele>
        <time>2012-10-28T09:33:48Z</time>
      </trkpt>
      <trkpt lat="41.608959000" lon="2.554015100">
        <ele>267.90</ele>
        <time>2012-10-28T09:33:55Z</time>
      </trkpt>
      <trkpt lat="41.609104000" lon="2.554050100">
        <ele>268.80</ele>
        <time>2012-10-28T09:34:04Z</time>
      </trkpt>
      <trkpt lat="41.609203000" lon="2.554086100">
        <ele>272.20</ele>
        <time>2012-10-28T09:34:11Z</time>
      </trkpt>
      <trkpt lat="41.609287000" lon="2.554090100">
        <ele>275.10</ele>
        <time>2012-10-28T09:34:14Z</time>
      </trkpt>
      <trkpt lat="41.609447000" lon="2.553962100">
        <ele>277.00</ele>
        <time>2012-10-28T09:34:23Z</time>
      </trkpt>
      <trkpt lat="41.609615000" lon="2.553827100">
        <ele>277.00</ele>
        <time>2012-10-28T09:34:30Z</time>
      </trkpt>
      <trkpt lat="41.609829000" lon="2.553774100">
        <ele>276.00</ele>
        <time>2012-10-28T09:34:37Z</time>
      </trkpt>
      <trkpt lat="41.610126000" lon="2.553806100">
        <ele>275.60</ele>
        <time>2012-10-28T09:34:44Z</time>
      </trkpt>
      <trkpt lat="41.610294000" lon="2.553792100">
        <ele>275.10</ele>
        <time>2012-10-28T09:34:49Z</time>
      </trkpt>
      <trkpt lat="41.610619000" lon="2.553822100">
        <ele>274.60</ele>
        <time>2012-10-28T09:34:56Z</time>
      </trkpt>
      <trkpt lat="41.610867000" lon="2.553855100">
        <ele>274.60</ele>
        <time>2012-10-28T09:35:05Z</time>
      </trkpt>
      <trkpt lat="41.611099000" lon="2.553866100">
        <ele>274.60</ele>
        <time>2012-10-28T09:35:12Z</time>
      </trkpt>
      <trkpt lat="41.611382000" lon="2.554017100">
        <ele>277.00</ele>
        <time>2012-10-28T09:35:22Z</time>
      </trkpt>
      <trkpt lat="41.611519000" lon="2.554339100">
        <ele>278.00</ele>
        <time>2012-10-28T09:35:31Z</time>
      </trkpt>
      <trkpt lat="41.611614000" lon="2.554546100">
        <ele>278.90</ele>
        <time>2012-10-28T09:35:38Z</time>
      </trkpt>
      <trkpt lat="41.611679000" lon="2.554631100">
        <ele>279.40</ele>
        <time>2012-10-28T09:35:43Z</time>
      </trkpt>
      <trkpt lat="41.611691000" lon="2.554731100">
        <ele>280.40</ele>
        <time>2012-10-28T09:35:47Z</time>
      </trkpt>
      <trkpt lat="41.611603000" lon="2.555019100">
        <ele>281.80</ele>
        <time>2012-10-28T09:35:55Z</time>
      </trkpt>
      <trkpt lat="41.611546000" lon="2.555233100">
        <ele>283.20</ele>
        <time>2012-10-28T09:36:02Z</time>
      </trkpt>
      <trkpt lat="41.611504000" lon="2.555486100">
        <ele>284.20</ele>
        <time>2012-10-28T09:36:11Z</time>
      </trkpt>
      <trkpt lat="41.611485000" lon="2.555746100">
        <ele>286.10</ele>
        <time>2012-10-28T09:36:18Z</time>
      </trkpt>
      <trkpt lat="41.611469000" lon="2.556018100">
        <ele>287.60</ele>
        <time>2012-10-28T09:36:27Z</time>
      </trkpt>
      <trkpt lat="41.611519000" lon="2.556208100">
        <ele>290.50</ele>
        <time>2012-10-28T09:36:34Z</time>
      </trkpt>
      <trkpt lat="41.611542000" lon="2.556335100">
        <ele>293.80</ele>
        <time>2012-10-28T09:36:37Z</time>
      </trkpt>
      <trkpt lat="41.611561000" lon="2.556548100">
        <ele>295.70</ele>
        <time>2012-10-28T09:36:44Z</time>
      </trkpt>
      <trkpt lat="41.611610000" lon="2.556790100">
        <ele>295.70</ele>
        <time>2012-10-28T09:36:53Z</time>
      </trkpt>
      <trkpt lat="41.611671000" lon="2.556974100">
        <ele>295.70</ele>
        <time>2012-10-28T09:36:56Z</time>
      </trkpt>
      <trkpt lat="41.611740000" lon="2.557329100">
        <ele>295.70</ele>
        <time>2012-10-28T09:37:02Z</time>
      </trkpt>
      <trkpt lat="41.611828000" lon="2.557537100">
        <ele>293.80</ele>
        <time>2012-10-28T09:37:05Z</time>
      </trkpt>
      <trkpt lat="41.611858000" lon="2.557676100">
        <ele>292.40</ele>
        <time>2012-10-28T09:37:07Z</time>
      </trkpt>
      <trkpt lat="41.611958000" lon="2.557860100">
        <ele>286.60</ele>
        <time>2012-10-28T09:37:10Z</time>
      </trkpt>
      <trkpt lat="41.612148000" lon="2.557866100">
        <ele>282.80</ele>
        <time>2012-10-28T09:37:14Z</time>
      </trkpt>
      <trkpt lat="41.612587000" lon="2.557765100">
        <ele>278.40</ele>
        <time>2012-10-28T09:37:19Z</time>
      </trkpt>
      <trkpt lat="41.612778000" lon="2.557745100">
        <ele>277.50</ele>
        <time>2012-10-28T09:37:23Z</time>
      </trkpt>
      <trkpt lat="41.613029000" lon="2.557682100">
        <ele>277.00</ele>
        <time>2012-10-28T09:37:26Z</time>
      </trkpt>
      <trkpt lat="41.613243000" lon="2.557713100">
        <ele>275.10</ele>
        <time>2012-10-28T09:37:31Z</time>
      </trkpt>
      <trkpt lat="41.613468000" lon="2.558156100">
        <ele>274.60</ele>
        <time>2012-10-28T09:37:40Z</time>
      </trkpt>
      <trkpt lat="41.613659000" lon="2.558492100">
        <ele>274.60</ele>
        <time>2012-10-28T09:37:49Z</time>
      </trkpt>
      <trkpt lat="41.613728000" lon="2.558606100">
        <ele>276.00</ele>
        <time>2012-10-28T09:37:52Z</time>
      </trkpt>
      <trkpt lat="41.613899000" lon="2.558872100">
        <ele>278.00</ele>
        <time>2012-10-28T09:38:01Z</time>
      </trkpt>
      <trkpt lat="41.613976000" lon="2.558993100">
        <ele>281.80</ele>
        <time>2012-10-28T09:38:06Z</time>
      </trkpt>
      <trkpt lat="41.614056000" lon="2.559088100">
        <ele>285.20</ele>
        <time>2012-10-28T09:38:11Z</time>
      </trkpt>
      <trkpt lat="41.614208000" lon="2.559263100">
        <ele>285.60</ele>
        <time>2012-10-28T09:38:18Z</time>
      </trkpt>
      <trkpt lat="41.614353000" lon="2.559408100">
        <ele>286.10</ele>
        <time>2012-10-28T09:38:27Z</time>
      </trkpt>
      <trkpt lat="41.614494000" lon="2.559541100">
        <ele>286.60</ele>
        <time>2012-10-28T09:38:34Z</time>
      </trkpt>
      <trkpt lat="41.614681000" lon="2.559711100">
        <ele>287.60</ele>
        <time>2012-10-28T09:38:41Z</time>
      </trkpt>
      <trkpt lat="41.614754000" lon="2.559867100">
        <ele>288.50</ele>
        <time>2012-10-28T09:38:48Z</time>
      </trkpt>
      <trkpt lat="41.614777000" lon="2.560090100">
        <ele>289.50</ele>
        <time>2012-10-28T09:38:55Z</time>
      </trkpt>
      <trkpt lat="41.614792000" lon="2.560310100">
        <ele>291.40</ele>
        <time>2012-10-28T09:39:02Z</time>
      </trkpt>
      <trkpt lat="41.614777000" lon="2.560551100">
        <ele>292.90</ele>
        <time>2012-10-28T09:39:11Z</time>
      </trkpt>
      <trkpt lat="41.614735000" lon="2.560786100">
        <ele>294.80</ele>
        <time>2012-10-28T09:39:19Z</time>
      </trkpt>
      <trkpt lat="41.614670000" lon="2.561085100">
        <ele>295.30</ele>
        <time>2012-10-28T09:39:26Z</time>
      </trkpt>
      <trkpt lat="41.614635000" lon="2.561318100">
        <ele>295.30</ele>
        <time>2012-10-28T09:39:31Z</time>
      </trkpt>
      <trkpt lat="41.614586000" lon="2.561596100">
        <ele>295.30</ele>
        <time>2012-10-28T09:39:37Z</time>
      </trkpt>
      <trkpt lat="41.614559000" lon="2.561822100">
        <ele>293.80</ele>
        <time>2012-10-28T09:39:42Z</time>
      </trkpt>
      <trkpt lat="41.614498000" lon="2.562043100">
        <ele>290.00</ele>
        <time>2012-10-28T09:39:45Z</time>
      </trkpt>
      <trkpt lat="41.614487000" lon="2.562095100">
        <ele>289.00</ele>
        <time>2012-10-28T09:39:47Z</time>
      </trkpt>
      <trkpt lat="41.614525000" lon="2.562284100">
        <ele>284.70</ele>
        <time>2012-10-28T09:39:51Z</time>
      </trkpt>
      <trkpt lat="41.614544000" lon="2.562327100">
        <ele>283.70</ele>
        <time>2012-10-28T09:39:52Z</time>
      </trkpt>
      <trkpt lat="41.614582000" lon="2.562618100">
        <ele>280.80</ele>
        <time>2012-10-28T09:39:59Z</time>
      </trkpt>
      <trkpt lat="41.614594000" lon="2.562683100">
        <ele>280.40</ele>
        <time>2012-10-28T09:40:01Z</time>
      </trkpt>
      <trkpt lat="41.614605000" lon="2.562881100">
        <ele>278.40</ele>
        <time>2012-10-28T09:40:06Z</time>
      </trkpt>
      <trkpt lat="41.614677000" lon="2.563199100">
        <ele>275.60</ele>
        <time>2012-10-28T09:40:12Z</time>
      </trkpt>
      <trkpt lat="41.614731000" lon="2.563361100">
        <ele>275.60</ele>
        <time>2012-10-28T09:40:15Z</time>
      </trkpt>
      <trkpt lat="41.614735000" lon="2.563558100">
        <ele>275.60</ele>
        <time>2012-10-28T09:40:22Z</time>
      </trkpt>
      <trkpt lat="41.614723000" lon="2.563625100">
        <ele>275.10</ele>
        <time>2012-10-28T09:40:24Z</time>
      </trkpt>
      <trkpt lat="41.614651000" lon="2.563810100">
        <ele>273.10</ele>
        <time>2012-10-28T09:40:29Z</time>
      </trkpt>
      <trkpt lat="41.614643000" lon="2.563972100">
        <ele>270.30</ele>
        <time>2012-10-28T09:40:32Z</time>
      </trkpt>
      <trkpt lat="41.614635000" lon="2.564091100">
        <ele>267.90</ele>
        <time>2012-10-28T09:40:34Z</time>
      </trkpt>
      <trkpt lat="41.614552000" lon="2.564436100">
        <ele>265.50</ele>
        <time>2012-10-28T09:40:41Z</time>
      </trkpt>
      <trkpt lat="41.614487000" lon="2.564656100">
        <ele>265.50</ele>
        <time>2012-10-28T09:40:46Z</time>
      </trkpt>
      <trkpt lat="41.614479000" lon="2.564955100">
        <ele>266.90</ele>
        <time>2012-10-28T09:40:53Z</time>
      </trkpt>
      <trkpt lat="41.614525000" lon="2.565352100">
        <ele>268.40</ele>
        <time>2012-10-28T09:41:02Z</time>
      </trkpt>
      <trkpt lat="41.614532000" lon="2.565676100">
        <ele>269.30</ele>
        <time>2012-10-28T09:41:09Z</time>
      </trkpt>
      <trkpt lat="41.614559000" lon="2.565947100">
        <ele>270.80</ele>
        <time>2012-10-28T09:41:16Z</time>
      </trkpt>
      <trkpt lat="41.614616000" lon="2.566231100">
        <ele>272.20</ele>
        <time>2012-10-28T09:41:25Z</time>
      </trkpt>
      <trkpt lat="41.614578000" lon="2.566367100">
        <ele>275.60</ele>
        <time>2012-10-28T09:41:30Z</time>
      </trkpt>
      <trkpt lat="41.614513000" lon="2.566479100">
        <ele>278.90</ele>
        <time>2012-10-28T09:41:33Z</time>
      </trkpt>
      <trkpt lat="41.614307000" lon="2.566731100">
        <ele>277.50</ele>
        <time>2012-10-28T09:41:42Z</time>
      </trkpt>
      <trkpt lat="41.614132000" lon="2.566928100">
        <ele>276.50</ele>
        <time>2012-10-28T09:41:49Z</time>
      </trkpt>
      <trkpt lat="41.613960000" lon="2.567223100">
        <ele>276.50</ele>
        <time>2012-10-28T09:41:56Z</time>
      </trkpt>
      <trkpt lat="41.613808000" lon="2.567464100">
        <ele>278.00</ele>
        <time>2012-10-28T09:42:03Z</time>
      </trkpt>
      <trkpt lat="41.613697000" lon="2.567706100">
        <ele>278.90</ele>
        <time>2012-10-28T09:42:10Z</time>
      </trkpt>
      <trkpt lat="41.613453000" lon="2.567935100">
        <ele>278.90</ele>
        <time>2012-10-28T09:42:17Z</time>
      </trkpt>
      <trkpt lat="41.613102000" lon="2.568127100">
        <ele>276.00</ele>
        <time>2012-10-28T09:42:22Z</time>
      </trkpt>
      <trkpt lat="41.612885000" lon="2.568295100">
        <ele>273.10</ele>
        <time>2012-10-28T09:42:24Z</time>
      </trkpt>
      <trkpt lat="41.612728000" lon="2.568404100">
        <ele>269.80</ele>
        <time>2012-10-28T09:42:27Z</time>
      </trkpt>
      <trkpt lat="41.612526000" lon="2.568522100">
        <ele>268.40</ele>
        <time>2012-10-28T09:42:34Z</time>
      </trkpt>
      <trkpt lat="41.612415000" lon="2.568628100">
        <ele>271.70</ele>
        <time>2012-10-28T09:42:38Z</time>
      </trkpt>
      <trkpt lat="41.612274000" lon="2.568918100">
        <ele>273.10</ele>
        <time>2012-10-28T09:42:47Z</time>
      </trkpt>
      <trkpt lat="41.612171000" lon="2.569059100">
        <ele>273.10</ele>
        <time>2012-10-28T09:42:52Z</time>
      </trkpt>
      <trkpt lat="41.612015000" lon="2.569147100">
        <ele>273.10</ele>
        <time>2012-10-28T09:42:57Z</time>
      </trkpt>
      <trkpt lat="41.611874000" lon="2.569155100">
        <ele>273.10</ele>
        <time>2012-10-28T09:43:00Z</time>
      </trkpt>
      <trkpt lat="41.611755000" lon="2.569228100">
        <ele>273.10</ele>
        <time>2012-10-28T09:43:04Z</time>
      </trkpt>
      <trkpt lat="41.611557000" lon="2.569346100">
        <ele>274.60</ele>
        <time>2012-10-28T09:43:11Z</time>
      </trkpt>
      <trkpt lat="41.611305000" lon="2.569558100">
        <ele>276.00</ele>
        <time>2012-10-28T09:43:21Z</time>
      </trkpt>
      <trkpt lat="41.611042000" lon="2.569835100">
        <ele>276.00</ele>
        <time>2012-10-28T09:43:28Z</time>
      </trkpt>
      <trkpt lat="41.610920000" lon="2.570003100">
        <ele>276.00</ele>
        <time>2012-10-28T09:43:35Z</time>
      </trkpt>
      <trkpt lat="41.610882000" lon="2.570100100">
        <ele>274.60</ele>
        <time>2012-10-28T09:43:42Z</time>
      </trkpt>
      <trkpt lat="41.610851000" lon="2.570221100">
        <ele>274.60</ele>
        <time>2012-10-28T09:43:49Z</time>
      </trkpt>
      <trkpt lat="41.610798000" lon="2.570418100">
        <ele>273.10</ele>
        <time>2012-10-28T09:43:56Z</time>
      </trkpt>
      <trkpt lat="41.610744000" lon="2.570640100">
        <ele>272.20</ele>
        <time>2012-10-28T09:44:03Z</time>
      </trkpt>
      <trkpt lat="41.610718000" lon="2.570744100">
        <ele>271.70</ele>
        <time>2012-10-28T09:44:08Z</time>
      </trkpt>
      <trkpt lat="41.610703000" lon="2.570922100">
        <ele>270.80</ele>
        <time>2012-10-28T09:44:14Z</time>
      </trkpt>
      <trkpt lat="41.610691000" lon="2.571116100">
        <ele>269.80</ele>
        <time>2012-10-28T09:44:17Z</time>
      </trkpt>
      <trkpt lat="41.610710000" lon="2.571295100">
        <ele>269.80</ele>
        <time>2012-10-28T09:44:21Z</time>
      </trkpt>
      <trkpt lat="41.610657000" lon="2.571726100">
        <ele>266.90</ele>
        <time>2012-10-28T09:44:26Z</time>
      </trkpt>
      <trkpt lat="41.610603000" lon="2.571875100">
        <ele>264.50</ele>
        <time>2012-10-28T09:44:29Z</time>
      </trkpt>
      <trkpt lat="41.610462000" lon="2.572239100">
        <ele>261.60</ele>
        <time>2012-10-28T09:44:35Z</time>
      </trkpt>
      <trkpt lat="41.610294000" lon="2.572419100">
        <ele>265.00</ele>
        <time>2012-10-28T09:44:40Z</time>
      </trkpt>
      <trkpt lat="41.610123000" lon="2.572501100">
        <ele>268.40</ele>
        <time>2012-10-28T09:44:47Z</time>
      </trkpt>
      <trkpt lat="41.609951000" lon="2.572608100">
        <ele>268.40</ele>
        <time>2012-10-28T09:44:54Z</time>
      </trkpt>
      <trkpt lat="41.609840000" lon="2.572810100">
        <ele>268.80</ele>
        <time>2012-10-28T09:44:59Z</time>
      </trkpt>
      <trkpt lat="41.609749000" lon="2.573056100">
        <ele>269.80</ele>
        <time>2012-10-28T09:45:06Z</time>
      </trkpt>
      <trkpt lat="41.609825000" lon="2.573234100">
        <ele>270.80</ele>
        <time>2012-10-28T09:45:13Z</time>
      </trkpt>
      <trkpt lat="41.609951000" lon="2.573232100">
        <ele>272.20</ele>
        <time>2012-10-28T09:45:18Z</time>
      </trkpt>
      <trkpt lat="41.610195000" lon="2.573170100">
        <ele>273.60</ele>
        <time>2012-10-28T09:45:29Z</time>
      </trkpt>
      <trkpt lat="41.610256000" lon="2.573128100">
        <ele>273.60</ele>
        <time>2012-10-28T09:45:32Z</time>
      </trkpt>
      <trkpt lat="41.610390000" lon="2.573128100">
        <ele>272.70</ele>
        <time>2012-10-28T09:45:37Z</time>
      </trkpt>
      <trkpt lat="41.610432000" lon="2.573147100">
        <ele>271.70</ele>
        <time>2012-10-28T09:45:44Z</time>
      </trkpt>
      <trkpt lat="41.610435000" lon="2.573152100">
        <ele>271.20</ele>
        <time>2012-10-28T09:45:53Z</time>
      </trkpt>
      <trkpt lat="41.610435000" lon="2.573152100">
        <ele>271.20</ele>
        <time>2012-10-28T09:46:00Z</time>
      </trkpt>
      <trkpt lat="41.610504000" lon="2.573178100">
        <ele>270.30</ele>
        <time>2012-10-28T09:46:10Z</time>
      </trkpt>
      <trkpt lat="41.610527000" lon="2.573181100">
        <ele>269.80</ele>
        <time>2012-10-28T09:46:17Z</time>
      </trkpt>
      <trkpt lat="41.610535000" lon="2.573183100">
        <ele>269.30</ele>
        <time>2012-10-28T09:46:28Z</time>
      </trkpt>
      <trkpt lat="41.610580000" lon="2.573157100">
        <ele>268.80</ele>
        <time>2012-10-28T09:46:35Z</time>
      </trkpt>
      <trkpt lat="41.610649000" lon="2.573179100">
        <ele>267.90</ele>
        <time>2012-10-28T09:46:42Z</time>
      </trkpt>
      <trkpt lat="41.610661000" lon="2.573182100">
        <ele>267.90</ele>
        <time>2012-10-28T09:46:42Z</time>
      </trkpt>
      <trkpt lat="41.610691000" lon="2.573212100">
        <ele>266.90</ele>
        <time>2012-10-28T09:46:45Z</time>
      </trkpt>
      <trkpt lat="41.610794000" lon="2.573267100">
        <ele>263.10</ele>
        <time>2012-10-28T09:46:50Z</time>
      </trkpt>
      <trkpt lat="41.610886000" lon="2.573319100">
        <ele>258.70</ele>
        <time>2012-10-28T09:46:54Z</time>
      </trkpt>
      <trkpt lat="41.611126000" lon="2.573403100">
        <ele>255.90</ele>
        <time>2012-10-28T09:47:01Z</time>
      </trkpt>
      <trkpt lat="41.611164000" lon="2.573402100">
        <ele>255.90</ele>
        <time>2012-10-28T09:47:03Z</time>
      </trkpt>
      <trkpt lat="41.611290000" lon="2.573425100">
        <ele>255.90</ele>
        <time>2012-10-28T09:47:08Z</time>
      </trkpt>
      <trkpt lat="41.611343000" lon="2.573445100">
        <ele>254.40</ele>
        <time>2012-10-28T09:47:13Z</time>
      </trkpt>
      <trkpt lat="41.611370000" lon="2.573448100">
        <ele>253.90</ele>
        <time>2012-10-28T09:47:15Z</time>
      </trkpt>
      <trkpt lat="41.611465000" lon="2.573517100">
        <ele>248.60</ele>
        <time>2012-10-28T09:47:20Z</time>
      </trkpt>
      <trkpt lat="41.611500000" lon="2.573559100">
        <ele>247.20</ele>
        <time>2012-10-28T09:47:22Z</time>
      </trkpt>
      <trkpt lat="41.611572000" lon="2.573625100">
        <ele>244.30</ele>
        <time>2012-10-28T09:47:27Z</time>
      </trkpt>
      <trkpt lat="41.611668000" lon="2.573695100">
        <ele>243.80</ele>
        <time>2012-10-28T09:47:34Z</time>
      </trkpt>
      <trkpt lat="41.611683000" lon="2.573711100">
        <ele>243.80</ele>
        <time>2012-10-28T09:47:34Z</time>
      </trkpt>
      <trkpt lat="41.611961000" lon="2.573697100">
        <ele>243.80</ele>
        <time>2012-10-28T09:47:41Z</time>
      </trkpt>
      <trkpt lat="41.612247000" lon="2.573700100">
        <ele>243.80</ele>
        <time>2012-10-28T09:47:50Z</time>
      </trkpt>
      <trkpt lat="41.612408000" lon="2.573736100">
        <ele>243.80</ele>
        <time>2012-10-28T09:47:53Z</time>
      </trkpt>
      <trkpt lat="41.612507000" lon="2.573743100">
        <ele>243.80</ele>
        <time>2012-10-28T09:47:55Z</time>
      </trkpt>
      <trkpt lat="41.612656000" lon="2.573798100">
        <ele>243.80</ele>
        <time>2012-10-28T09:48:00Z</time>
      </trkpt>
      <trkpt lat="41.612785000" lon="2.573805100">
        <ele>243.80</ele>
        <time>2012-10-28T09:48:05Z</time>
      </trkpt>
      <trkpt lat="41.613033000" lon="2.573745100">
        <ele>243.40</ele>
        <time>2012-10-28T09:48:09Z</time>
      </trkpt>
      <trkpt lat="41.613152000" lon="2.573747100">
        <ele>241.90</ele>
        <time>2012-10-28T09:48:12Z</time>
      </trkpt>
      <trkpt lat="41.613373000" lon="2.573746100">
        <ele>238.10</ele>
        <time>2012-10-28T09:48:16Z</time>
      </trkpt>
      <trkpt lat="41.613358000" lon="2.573656100">
        <ele>235.70</ele>
        <time>2012-10-28T09:48:21Z</time>
      </trkpt>
      <trkpt lat="41.613285000" lon="2.573605100">
        <ele>234.70</ele>
        <time>2012-10-28T09:48:23Z</time>
      </trkpt>
      <trkpt lat="41.613071000" lon="2.573420100">
        <ele>231.30</ele>
        <time>2012-10-28T09:48:28Z</time>
      </trkpt>
      <trkpt lat="41.613049000" lon="2.573384100">
        <ele>230.40</ele>
        <time>2012-10-28T09:48:30Z</time>
      </trkpt>
      <trkpt lat="41.612911000" lon="2.573323100">
        <ele>227.50</ele>
        <time>2012-10-28T09:48:33Z</time>
      </trkpt>
      <trkpt lat="41.612637000" lon="2.573278100">
        <ele>224.10</ele>
        <time>2012-10-28T09:48:40Z</time>
      </trkpt>
      <trkpt lat="41.612610000" lon="2.573271100">
        <ele>224.60</ele>
        <time>2012-10-28T09:48:45Z</time>
      </trkpt>
      <trkpt lat="41.612553000" lon="2.573268100">
        <ele>224.60</ele>
        <time>2012-10-28T09:48:52Z</time>
      </trkpt>
      <trkpt lat="41.612503000" lon="2.573233100">
        <ele>224.60</ele>
        <time>2012-10-28T09:49:01Z</time>
      </trkpt>
      <trkpt lat="41.612423000" lon="2.573169100">
        <ele>224.10</ele>
        <time>2012-10-28T09:49:08Z</time>
      </trkpt>
      <trkpt lat="41.612423000" lon="2.573169100">
        <ele>224.10</ele>
        <time>2012-10-28T09:49:22Z</time>
      </trkpt>
      <trkpt lat="41.612423000" lon="2.573169100">
        <ele>224.10</ele>
        <time>2012-10-28T09:49:24Z</time>
      </trkpt>
      <trkpt lat="41.612373000" lon="2.573183100">
        <ele>222.70</ele>
        <time>2012-10-28T09:49:27Z</time>
      </trkpt>
      <trkpt lat="41.612297000" lon="2.573157100">
        <ele>220.80</ele>
        <time>2012-10-28T09:49:34Z</time>
      </trkpt>
      <trkpt lat="41.612179000" lon="2.573022100">
        <ele>219.80</ele>
        <time>2012-10-28T09:49:45Z</time>
      </trkpt>
      <trkpt lat="41.612179000" lon="2.573016100">
        <ele>219.30</ele>
        <time>2012-10-28T09:49:46Z</time>
      </trkpt>
      <trkpt lat="41.612167000" lon="2.572941100">
        <ele>219.80</ele>
        <time>2012-10-28T09:49:52Z</time>
      </trkpt>
      <trkpt lat="41.612217000" lon="2.572874100">
        <ele>219.30</ele>
        <time>2012-10-28T09:50:00Z</time>
      </trkpt>
      <trkpt lat="41.612232000" lon="2.572822100">
        <ele>219.30</ele>
        <time>2012-10-28T09:50:07Z</time>
      </trkpt>
      <trkpt lat="41.612259000" lon="2.572783100">
        <ele>219.30</ele>
        <time>2012-10-28T09:50:14Z</time>
      </trkpt>
      <trkpt lat="41.612301000" lon="2.572676100">
        <ele>220.80</ele>
        <time>2012-10-28T09:50:21Z</time>
      </trkpt>
      <trkpt lat="41.612309000" lon="2.572668100">
        <ele>220.80</ele>
        <time>2012-10-28T09:50:21Z</time>
      </trkpt>
      <trkpt lat="41.612324000" lon="2.572647100">
        <ele>221.70</ele>
        <time>2012-10-28T09:50:23Z</time>
      </trkpt>
      <trkpt lat="41.612366000" lon="2.572576100">
        <ele>222.70</ele>
        <time>2012-10-28T09:50:28Z</time>
      </trkpt>
      <trkpt lat="41.612526000" lon="2.572456100">
        <ele>224.60</ele>
        <time>2012-10-28T09:50:39Z</time>
      </trkpt>
      <trkpt lat="41.612671000" lon="2.572346100">
        <ele>226.10</ele>
        <time>2012-10-28T09:50:47Z</time>
      </trkpt>
      <trkpt lat="41.612736000" lon="2.572255100">
        <ele>227.50</ele>
        <time>2012-10-28T09:50:54Z</time>
      </trkpt>
      <trkpt lat="41.612717000" lon="2.572089100">
        <ele>228.40</ele>
        <time>2012-10-28T09:51:01Z</time>
      </trkpt>
      <trkpt lat="41.612690000" lon="2.571947100">
        <ele>229.90</ele>
        <time>2012-10-28T09:51:08Z</time>
      </trkpt>
      <trkpt lat="41.612675000" lon="2.571781100">
        <ele>231.30</ele>
        <time>2012-10-28T09:51:15Z</time>
      </trkpt>
      <trkpt lat="41.612659000" lon="2.571578100">
        <ele>232.30</ele>
        <time>2012-10-28T09:51:22Z</time>
      </trkpt>
      <trkpt lat="41.612621000" lon="2.571405100">
        <ele>233.30</ele>
        <time>2012-10-28T09:51:31Z</time>
      </trkpt>
      <trkpt lat="41.612629000" lon="2.571181100">
        <ele>234.70</ele>
        <time>2012-10-28T09:51:38Z</time>
      </trkpt>
      <trkpt lat="41.612595000" lon="2.570931100">
        <ele>235.20</ele>
        <time>2012-10-28T09:51:45Z</time>
      </trkpt>
      <trkpt lat="41.612675000" lon="2.570824100">
        <ele>234.70</ele>
        <time>2012-10-28T09:51:52Z</time>
      </trkpt>
      <trkpt lat="41.612865000" lon="2.570802100">
        <ele>236.10</ele>
        <time>2012-10-28T09:52:00Z</time>
      </trkpt>
      <trkpt lat="41.613010000" lon="2.570814100">
        <ele>236.60</ele>
        <time>2012-10-28T09:52:07Z</time>
      </trkpt>
      <trkpt lat="41.613129000" lon="2.570875100">
        <ele>237.10</ele>
        <time>2012-10-28T09:52:13Z</time>
      </trkpt>
      <trkpt lat="41.613209000" lon="2.570898100">
        <ele>237.60</ele>
        <time>2012-10-28T09:52:18Z</time>
      </trkpt>
      <trkpt lat="41.613308000" lon="2.570903100">
        <ele>238.50</ele>
        <time>2012-10-28T09:52:23Z</time>
      </trkpt>
      <trkpt lat="41.613300000" lon="2.570799100">
        <ele>239.00</ele>
        <time>2012-10-28T09:52:27Z</time>
      </trkpt>
      <trkpt lat="41.613297000" lon="2.570776100">
        <ele>240.00</ele>
        <time>2012-10-28T09:52:28Z</time>
      </trkpt>
      <trkpt lat="41.613285000" lon="2.570705100">
        <ele>240.50</ele>
        <time>2012-10-28T09:52:30Z</time>
      </trkpt>
      <trkpt lat="41.613327000" lon="2.570585100">
        <ele>244.30</ele>
        <time>2012-10-28T09:52:35Z</time>
      </trkpt>
      <trkpt lat="41.613369000" lon="2.570506100">
        <ele>244.80</ele>
        <time>2012-10-28T09:52:37Z</time>
      </trkpt>
      <trkpt lat="41.613491000" lon="2.570195100">
        <ele>243.40</ele>
        <time>2012-10-28T09:52:42Z</time>
      </trkpt>
      <trkpt lat="41.613678000" lon="2.570060100">
        <ele>239.50</ele>
        <time>2012-10-28T09:52:48Z</time>
      </trkpt>
      <trkpt lat="41.613911000" lon="2.569949100">
        <ele>240.00</ele>
        <time>2012-10-28T09:52:56Z</time>
      </trkpt>
      <trkpt lat="41.614029000" lon="2.569934100">
        <ele>240.90</ele>
        <time>2012-10-28T09:52:58Z</time>
      </trkpt>
      <trkpt lat="41.614185000" lon="2.569738100">
        <ele>240.90</ele>
        <time>2012-10-28T09:53:03Z</time>
      </trkpt>
      <trkpt lat="41.614170000" lon="2.569409100">
        <ele>237.10</ele>
        <time>2012-10-28T09:53:08Z</time>
      </trkpt>
      <trkpt lat="41.614162000" lon="2.569271100">
        <ele>233.70</ele>
        <time>2012-10-28T09:53:12Z</time>
      </trkpt>
      <trkpt lat="41.614170000" lon="2.569237100">
        <ele>232.80</ele>
        <time>2012-10-28T09:53:12Z</time>
      </trkpt>
      <trkpt lat="41.614246000" lon="2.569212100">
        <ele>231.30</ele>
        <time>2012-10-28T09:53:17Z</time>
      </trkpt>
      <trkpt lat="41.614319000" lon="2.569227100">
        <ele>230.90</ele>
        <time>2012-10-28T09:53:19Z</time>
      </trkpt>
      <trkpt lat="41.614578000" lon="2.569251100">
        <ele>230.90</ele>
        <time>2012-10-28T09:53:24Z</time>
      </trkpt>
      <trkpt lat="41.614853000" lon="2.569230100">
        <ele>228.90</ele>
        <time>2012-10-28T09:53:29Z</time>
      </trkpt>
      <trkpt lat="41.615013000" lon="2.569387100">
        <ele>225.60</ele>
        <time>2012-10-28T09:53:31Z</time>
      </trkpt>
      <trkpt lat="41.615131000" lon="2.569590100">
        <ele>221.20</ele>
        <time>2012-10-28T09:53:35Z</time>
      </trkpt>
      <trkpt lat="41.615250000" lon="2.569876100">
        <ele>215.90</ele>
        <time>2012-10-28T09:53:38Z</time>
      </trkpt>
      <trkpt lat="41.615433000" lon="2.570134100">
        <ele>212.60</ele>
        <time>2012-10-28T09:53:43Z</time>
      </trkpt>
      <trkpt lat="41.615532000" lon="2.570291100">
        <ele>211.60</ele>
        <time>2012-10-28T09:53:45Z</time>
      </trkpt>
      <trkpt lat="41.615700000" lon="2.570713100">
        <ele>210.20</ele>
        <time>2012-10-28T09:53:50Z</time>
      </trkpt>
      <trkpt lat="41.615704000" lon="2.570764100">
        <ele>210.70</ele>
        <time>2012-10-28T09:53:52Z</time>
      </trkpt>
      <trkpt lat="41.615746000" lon="2.571257100">
        <ele>205.40</ele>
        <time>2012-10-28T09:53:57Z</time>
      </trkpt>
      <trkpt lat="41.615757000" lon="2.571345100">
        <ele>204.40</ele>
        <time>2012-10-28T09:53:59Z</time>
      </trkpt>
      <trkpt lat="41.615875000" lon="2.571664100">
        <ele>200.10</ele>
        <time>2012-10-28T09:54:04Z</time>
      </trkpt>
      <trkpt lat="41.615990000" lon="2.571984100">
        <ele>196.70</ele>
        <time>2012-10-28T09:54:08Z</time>
      </trkpt>
      <trkpt lat="41.616039000" lon="2.572142100">
        <ele>194.30</ele>
        <time>2012-10-28T09:54:09Z</time>
      </trkpt>
      <trkpt lat="41.616116000" lon="2.572490100">
        <ele>189.00</ele>
        <time>2012-10-28T09:54:13Z</time>
      </trkpt>
      <trkpt lat="41.616188000" lon="2.572807100">
        <ele>185.70</ele>
        <time>2012-10-28T09:54:16Z</time>
      </trkpt>
      <trkpt lat="41.616287000" lon="2.573116100">
        <ele>182.80</ele>
        <time>2012-10-28T09:54:20Z</time>
      </trkpt>
      <trkpt lat="41.616497000" lon="2.573457100">
        <ele>178.50</ele>
        <time>2012-10-28T09:54:23Z</time>
      </trkpt>
      <trkpt lat="41.616665000" lon="2.573675100">
        <ele>176.50</ele>
        <time>2012-10-28T09:54:27Z</time>
      </trkpt>
      <trkpt lat="41.616875000" lon="2.573790100">
        <ele>175.60</ele>
        <time>2012-10-28T09:54:32Z</time>
      </trkpt>
      <trkpt lat="41.617077000" lon="2.573752100">
        <ele>178.90</ele>
        <time>2012-10-28T09:54:35Z</time>
      </trkpt>
      <trkpt lat="41.617493000" lon="2.573615100">
        <ele>177.00</ele>
        <time>2012-10-28T09:54:42Z</time>
      </trkpt>
      <trkpt lat="41.617558000" lon="2.573587100">
        <ele>175.60</ele>
        <time>2012-10-28T09:54:44Z</time>
      </trkpt>
      <trkpt lat="41.617802000" lon="2.573601100">
        <ele>172.20</ele>
        <time>2012-10-28T09:54:48Z</time>
      </trkpt>
      <trkpt lat="41.617958000" lon="2.573684100">
        <ele>172.70</ele>
        <time>2012-10-28T09:54:51Z</time>
      </trkpt>
      <trkpt lat="41.618225000" lon="2.574034100">
        <ele>172.70</ele>
        <time>2012-10-28T09:54:58Z</time>
      </trkpt>
      <trkpt lat="41.618408000" lon="2.574187100">
        <ele>172.70</ele>
        <time>2012-10-28T09:55:02Z</time>
      </trkpt>
      <trkpt lat="41.618572000" lon="2.574216100">
        <ele>172.20</ele>
        <time>2012-10-28T09:55:05Z</time>
      </trkpt>
      <trkpt lat="41.618778000" lon="2.574275100">
        <ele>168.90</ele>
        <time>2012-10-28T09:55:09Z</time>
      </trkpt>
      <trkpt lat="41.618946000" lon="2.574379100">
        <ele>166.40</ele>
        <time>2012-10-28T09:55:12Z</time>
      </trkpt>
      <trkpt lat="41.619232000" lon="2.574655100">
        <ele>162.60</ele>
        <time>2012-10-28T09:55:17Z</time>
      </trkpt>
      <trkpt lat="41.619297000" lon="2.574673100">
        <ele>162.10</ele>
        <time>2012-10-28T09:55:19Z</time>
      </trkpt>
      <trkpt lat="41.619740000" lon="2.574792100">
        <ele>157.30</ele>
        <time>2012-10-28T09:55:26Z</time>
      </trkpt>
      <trkpt lat="41.619873000" lon="2.574823100">
        <ele>155.90</ele>
        <time>2012-10-28T09:55:28Z</time>
      </trkpt>
      <trkpt lat="41.620125000" lon="2.575038100">
        <ele>153.50</ele>
        <time>2012-10-28T09:55:33Z</time>
      </trkpt>
      <trkpt lat="41.620228000" lon="2.575134100">
        <ele>153.00</ele>
        <time>2012-10-28T09:55:35Z</time>
      </trkpt>
      <trkpt lat="41.620426000" lon="2.575266100">
        <ele>150.60</ele>
        <time>2012-10-28T09:55:38Z</time>
      </trkpt>
      <trkpt lat="41.620533000" lon="2.575363100">
        <ele>149.60</ele>
        <time>2012-10-28T09:55:40Z</time>
      </trkpt>
      <trkpt lat="41.620743000" lon="2.575373100">
        <ele>147.20</ele>
        <time>2012-10-28T09:55:45Z</time>
      </trkpt>
      <trkpt lat="41.620785000" lon="2.575318100">
        <ele>146.70</ele>
        <time>2012-10-28T09:55:45Z</time>
      </trkpt>
      <trkpt lat="41.620899000" lon="2.575135100">
        <ele>144.30</ele>
        <time>2012-10-28T09:55:49Z</time>
      </trkpt>
      <trkpt lat="41.621071000" lon="2.574949100">
        <ele>141.00</ele>
        <time>2012-10-28T09:55:52Z</time>
      </trkpt>
      <trkpt lat="41.621277000" lon="2.574858100">
        <ele>138.10</ele>
        <time>2012-10-28T09:55:57Z</time>
      </trkpt>
      <trkpt lat="41.621460000" lon="2.574681100">
        <ele>135.20</ele>
        <time>2012-10-28T09:56:01Z</time>
      </trkpt>
      <trkpt lat="41.621433000" lon="2.574479100">
        <ele>133.30</ele>
        <time>2012-10-28T09:56:04Z</time>
      </trkpt>
      <trkpt lat="41.621273000" lon="2.574312100">
        <ele>130.90</ele>
        <time>2012-10-28T09:56:06Z</time>
      </trkpt>
      <trkpt lat="41.620979000" lon="2.574059100">
        <ele>128.50</ele>
        <time>2012-10-28T09:56:13Z</time>
      </trkpt>
      <trkpt lat="41.621052000" lon="2.573946100">
        <ele>126.60</ele>
        <time>2012-10-28T09:56:18Z</time>
      </trkpt>
      <trkpt lat="41.621090000" lon="2.573950100">
        <ele>126.60</ele>
        <time>2012-10-28T09:56:18Z</time>
      </trkpt>
      <trkpt lat="41.621174000" lon="2.573970100">
        <ele>126.10</ele>
        <time>2012-10-28T09:56:20Z</time>
      </trkpt>
      <trkpt lat="41.621605000" lon="2.574046100">
        <ele>123.20</ele>
        <time>2012-10-28T09:56:29Z</time>
      </trkpt>
      <trkpt lat="41.621651000" lon="2.574054100">
        <ele>122.20</ele>
        <time>2012-10-28T09:56:29Z</time>
      </trkpt>
      <trkpt lat="41.621883000" lon="2.574103100">
        <ele>117.90</ele>
        <time>2012-10-28T09:56:34Z</time>
      </trkpt>
      <trkpt lat="41.621925000" lon="2.574122100">
        <ele>116.90</ele>
        <time>2012-10-28T09:56:36Z</time>
      </trkpt>
      <trkpt lat="41.622005000" lon="2.574028100">
        <ele>112.60</ele>
        <time>2012-10-28T09:56:39Z</time>
      </trkpt>
      <trkpt lat="41.621948000" lon="2.573905100">
        <ele>111.70</ele>
        <time>2012-10-28T09:56:43Z</time>
      </trkpt>
      <trkpt lat="41.621822000" lon="2.573807100">
        <ele>110.20</ele>
        <time>2012-10-28T09:56:48Z</time>
      </trkpt>
      <trkpt lat="41.621796000" lon="2.573764100">
        <ele>109.20</ele>
        <time>2012-10-28T09:56:48Z</time>
      </trkpt>
      <trkpt lat="41.621632000" lon="2.573469100">
        <ele>105.40</ele>
        <time>2012-10-28T09:56:53Z</time>
      </trkpt>
      <trkpt lat="41.621597000" lon="2.573419100">
        <ele>104.90</ele>
        <time>2012-10-28T09:56:55Z</time>
      </trkpt>
      <trkpt lat="41.621498000" lon="2.573186100">
        <ele>104.00</ele>
        <time>2012-10-28T09:56:58Z</time>
      </trkpt>
      <trkpt lat="41.621460000" lon="2.572999100">
        <ele>104.00</ele>
        <time>2012-10-28T09:57:02Z</time>
      </trkpt>
      <trkpt lat="41.621357000" lon="2.572583100">
        <ele>104.90</ele>
        <time>2012-10-28T09:57:09Z</time>
      </trkpt>
      <trkpt lat="41.621296000" lon="2.572416100">
        <ele>105.40</ele>
        <time>2012-10-28T09:57:12Z</time>
      </trkpt>
      <trkpt lat="41.621323000" lon="2.572205100">
        <ele>105.40</ele>
        <time>2012-10-28T09:57:16Z</time>
      </trkpt>
      <trkpt lat="41.621468000" lon="2.572159100">
        <ele>106.40</ele>
        <time>2012-10-28T09:57:21Z</time>
      </trkpt>
      <trkpt lat="41.621529000" lon="2.572160100">
        <ele>106.80</ele>
        <time>2012-10-28T09:57:23Z</time>
      </trkpt>
      <trkpt lat="41.621807000" lon="2.572251100">
        <ele>107.80</ele>
        <time>2012-10-28T09:57:30Z</time>
      </trkpt>
      <trkpt lat="41.622192000" lon="2.572397100">
        <ele>107.80</ele>
        <time>2012-10-28T09:57:38Z</time>
      </trkpt>
      <trkpt lat="41.622387000" lon="2.572430100">
        <ele>107.80</ele>
        <time>2012-10-28T09:57:45Z</time>
      </trkpt>
      <trkpt lat="41.622574000" lon="2.572465100">
        <ele>107.80</ele>
        <time>2012-10-28T09:57:51Z</time>
      </trkpt>
      <trkpt lat="41.622803000" lon="2.572519100">
        <ele>108.30</ele>
        <time>2012-10-28T09:57:59Z</time>
      </trkpt>
      <trkpt lat="41.623013000" lon="2.572578100">
        <ele>109.20</ele>
        <time>2012-10-28T09:58:06Z</time>
      </trkpt>
      <trkpt lat="41.623177000" lon="2.572628100">
        <ele>110.20</ele>
        <time>2012-10-28T09:58:12Z</time>
      </trkpt>
      <trkpt lat="41.623341000" lon="2.572752100">
        <ele>110.70</ele>
        <time>2012-10-28T09:58:17Z</time>
      </trkpt>
      <trkpt lat="41.623550000" lon="2.573039100">
        <ele>110.70</ele>
        <time>2012-10-28T09:58:25Z</time>
      </trkpt>
      <trkpt lat="41.623676000" lon="2.573293100">
        <ele>110.70</ele>
        <time>2012-10-28T09:58:31Z</time>
      </trkpt>
      <trkpt lat="41.623726000" lon="2.573610100">
        <ele>111.20</ele>
        <time>2012-10-28T09:58:36Z</time>
      </trkpt>
      <trkpt lat="41.623745000" lon="2.573935100">
        <ele>109.70</ele>
        <time>2012-10-28T09:58:43Z</time>
      </trkpt>
      <trkpt lat="41.623714000" lon="2.574122100">
        <ele>110.20</ele>
        <time>2012-10-28T09:58:48Z</time>
      </trkpt>
      <trkpt lat="41.623695000" lon="2.574405100">
        <ele>110.20</ele>
        <time>2012-10-28T09:58:57Z</time>
      </trkpt>
      <trkpt lat="41.623695000" lon="2.574620100">
        <ele>111.70</ele>
        <time>2012-10-28T09:59:02Z</time>
      </trkpt>
      <trkpt lat="41.623695000" lon="2.574842100">
        <ele>113.10</ele>
        <time>2012-10-28T09:59:09Z</time>
      </trkpt>
      <trkpt lat="41.623688000" lon="2.574898100">
        <ele>113.60</ele>
        <time>2012-10-28T09:59:11Z</time>
      </trkpt>
      <trkpt lat="41.623692000" lon="2.575018100">
        <ele>114.10</ele>
        <time>2012-10-28T09:59:16Z</time>
      </trkpt>
      <trkpt lat="41.623642000" lon="2.575254100">
        <ele>116.00</ele>
        <time>2012-10-28T09:59:23Z</time>
      </trkpt>
      <trkpt lat="41.623566000" lon="2.575530100">
        <ele>116.90</ele>
        <time>2012-10-28T09:59:33Z</time>
      </trkpt>
      <trkpt lat="41.623569000" lon="2.575752100">
        <ele>117.90</ele>
        <time>2012-10-28T09:59:39Z</time>
      </trkpt>
      <trkpt lat="41.623711000" lon="2.575903100">
        <ele>118.90</ele>
        <time>2012-10-28T09:59:46Z</time>
      </trkpt>
      <trkpt lat="41.623859000" lon="2.575974100">
        <ele>119.30</ele>
        <time>2012-10-28T09:59:51Z</time>
      </trkpt>
      <trkpt lat="41.624092000" lon="2.575996100">
        <ele>119.30</ele>
        <time>2012-10-28T09:59:58Z</time>
      </trkpt>
      <trkpt lat="41.624290000" lon="2.576021100">
        <ele>119.30</ele>
        <time>2012-10-28T10:00:03Z</time>
      </trkpt>
      <trkpt lat="41.624325000" lon="2.576066100">
        <ele>119.30</ele>
        <time>2012-10-28T10:00:05Z</time>
      </trkpt>
      <trkpt lat="41.624352000" lon="2.576418100">
        <ele>119.30</ele>
        <time>2012-10-28T10:00:12Z</time>
      </trkpt>
      <trkpt lat="41.624233000" lon="2.576548100">
        <ele>119.30</ele>
        <time>2012-10-28T10:00:19Z</time>
      </trkpt>
      <trkpt lat="41.624046000" lon="2.576664100">
        <ele>119.80</ele>
        <time>2012-10-28T10:00:26Z</time>
      </trkpt>
      <trkpt lat="41.623959000" lon="2.576861100">
        <ele>121.70</ele>
        <time>2012-10-28T10:00:34Z</time>
      </trkpt>
      <trkpt lat="41.623840000" lon="2.577081100">
        <ele>123.70</ele>
        <time>2012-10-28T10:00:43Z</time>
      </trkpt>
      <trkpt lat="41.623745000" lon="2.577259100">
        <ele>124.60</ele>
        <time>2012-10-28T10:00:50Z</time>
      </trkpt>
      <trkpt lat="41.623730000" lon="2.577410100">
        <ele>125.10</ele>
        <time>2012-10-28T10:00:55Z</time>
      </trkpt>
      <trkpt lat="41.623837000" lon="2.577603100">
        <ele>125.60</ele>
        <time>2012-10-28T10:01:02Z</time>
      </trkpt>
      <trkpt lat="41.623997000" lon="2.577776100">
        <ele>127.00</ele>
        <time>2012-10-28T10:01:13Z</time>
      </trkpt>
      <trkpt lat="41.624138000" lon="2.577940100">
        <ele>128.00</ele>
        <time>2012-10-28T10:01:21Z</time>
      </trkpt>
      <trkpt lat="41.624256000" lon="2.578065100">
        <ele>129.90</ele>
        <time>2012-10-28T10:01:28Z</time>
      </trkpt>
      <trkpt lat="41.624416000" lon="2.578233100">
        <ele>130.90</ele>
        <time>2012-10-28T10:01:37Z</time>
      </trkpt>
      <trkpt lat="41.624557000" lon="2.578328100">
        <ele>130.90</ele>
        <time>2012-10-28T10:01:44Z</time>
      </trkpt>
      <trkpt lat="41.624584000" lon="2.578339100">
        <ele>130.90</ele>
        <time>2012-10-28T10:01:44Z</time>
      </trkpt>
      <trkpt lat="41.624653000" lon="2.578298100">
        <ele>131.40</ele>
        <time>2012-10-28T10:01:49Z</time>
      </trkpt>
      <trkpt lat="41.624752000" lon="2.578227100">
        <ele>132.30</ele>
        <time>2012-10-28T10:01:56Z</time>
      </trkpt>
      <trkpt lat="41.624802000" lon="2.578160100">
        <ele>136.60</ele>
        <time>2012-10-28T10:02:03Z</time>
      </trkpt>
      <trkpt lat="41.624832000" lon="2.578093100">
        <ele>140.00</ele>
        <time>2012-10-28T10:02:07Z</time>
      </trkpt>
      <trkpt lat="41.624870000" lon="2.578016100">
        <ele>141.00</ele>
        <time>2012-10-28T10:02:15Z</time>
      </trkpt>
      <trkpt lat="41.624893000" lon="2.577988100">
        <ele>141.00</ele>
        <time>2012-10-28T10:02:24Z</time>
      </trkpt>
      <trkpt lat="41.624943000" lon="2.577948100">
        <ele>142.40</ele>
        <time>2012-10-28T10:02:36Z</time>
      </trkpt>
      <trkpt lat="41.624985000" lon="2.577899100">
        <ele>144.30</ele>
        <time>2012-10-28T10:02:45Z</time>
      </trkpt>
      <trkpt lat="41.625011000" lon="2.577888100">
        <ele>146.30</ele>
        <time>2012-10-28T10:02:52Z</time>
      </trkpt>
      <trkpt lat="41.625088000" lon="2.577856100">
        <ele>148.20</ele>
        <time>2012-10-28T10:03:04Z</time>
      </trkpt>
      <trkpt lat="41.625130000" lon="2.577847100">
        <ele>149.10</ele>
        <time>2012-10-28T10:03:11Z</time>
      </trkpt>
      <trkpt lat="41.625179000" lon="2.577830100">
        <ele>151.10</ele>
        <time>2012-10-28T10:03:20Z</time>
      </trkpt>
      <trkpt lat="41.625191000" lon="2.577763100">
        <ele>153.00</ele>
        <time>2012-10-28T10:03:29Z</time>
      </trkpt>
      <trkpt lat="41.625195000" lon="2.577678100">
        <ele>154.40</ele>
        <time>2012-10-28T10:03:37Z</time>
      </trkpt>
      <trkpt lat="41.625191000" lon="2.577635100">
        <ele>154.90</ele>
        <time>2012-10-28T10:03:41Z</time>
      </trkpt>
      <trkpt lat="41.625172000" lon="2.577580100">
        <ele>154.90</ele>
        <time>2012-10-28T10:03:46Z</time>
      </trkpt>
      <trkpt lat="41.625198000" lon="2.577375100">
        <ele>155.40</ele>
        <time>2012-10-28T10:03:53Z</time>
      </trkpt>
      <trkpt lat="41.625309000" lon="2.577091100">
        <ele>155.40</ele>
        <time>2012-10-28T10:04:00Z</time>
      </trkpt>
      <trkpt lat="41.625355000" lon="2.576998100">
        <ele>152.00</ele>
        <time>2012-10-28T10:04:02Z</time>
      </trkpt>
      <trkpt lat="41.625416000" lon="2.576896100">
        <ele>148.20</ele>
        <time>2012-10-28T10:04:07Z</time>
      </trkpt>
      <trkpt lat="41.625496000" lon="2.576604100">
        <ele>144.80</ele>
        <time>2012-10-28T10:04:12Z</time>
      </trkpt>
      <trkpt lat="41.625526000" lon="2.576385100">
        <ele>143.40</ele>
        <time>2012-10-28T10:04:17Z</time>
      </trkpt>
      <trkpt lat="41.625587000" lon="2.576090100">
        <ele>141.40</ele>
        <time>2012-10-28T10:04:23Z</time>
      </trkpt>
      <trkpt lat="41.625675000" lon="2.575885100">
        <ele>141.40</ele>
        <time>2012-10-28T10:04:28Z</time>
      </trkpt>
      <trkpt lat="41.625729000" lon="2.575609100">
        <ele>141.40</ele>
        <time>2012-10-28T10:04:33Z</time>
      </trkpt>
      <trkpt lat="41.625736000" lon="2.575359100">
        <ele>141.40</ele>
        <time>2012-10-28T10:04:38Z</time>
      </trkpt>
      <trkpt lat="41.625839000" lon="2.575195100">
        <ele>141.40</ele>
        <time>2012-10-28T10:04:43Z</time>
      </trkpt>
      <trkpt lat="41.625977000" lon="2.575061100">
        <ele>141.40</ele>
        <time>2012-10-28T10:04:52Z</time>
      </trkpt>
      <trkpt lat="41.626118000" lon="2.574952100">
        <ele>142.90</ele>
        <time>2012-10-28T10:04:59Z</time>
      </trkpt>
      <trkpt lat="41.626263000" lon="2.574846100">
        <ele>144.30</ele>
        <time>2012-10-28T10:05:06Z</time>
      </trkpt>
      <trkpt lat="41.626381000" lon="2.574760100">
        <ele>145.80</ele>
        <time>2012-10-28T10:05:13Z</time>
      </trkpt>
      <trkpt lat="41.626465000" lon="2.574745100">
        <ele>146.30</ele>
        <time>2012-10-28T10:05:17Z</time>
      </trkpt>
      <trkpt lat="41.626659000" lon="2.574767100">
        <ele>148.20</ele>
        <time>2012-10-28T10:05:25Z</time>
      </trkpt>
      <trkpt lat="41.626766000" lon="2.574762100">
        <ele>148.70</ele>
        <time>2012-10-28T10:05:29Z</time>
      </trkpt>
      <trkpt lat="41.626900000" lon="2.574796100">
        <ele>150.10</ele>
        <time>2012-10-28T10:05:36Z</time>
      </trkpt>
      <trkpt lat="41.627079000" lon="2.574816100">
        <ele>152.00</ele>
        <time>2012-10-28T10:05:44Z</time>
      </trkpt>
      <trkpt lat="41.627186000" lon="2.574766100">
        <ele>154.90</ele>
        <time>2012-10-28T10:05:50Z</time>
      </trkpt>
      <trkpt lat="41.627243000" lon="2.574692100">
        <ele>158.30</ele>
        <time>2012-10-28T10:05:55Z</time>
      </trkpt>
      <trkpt lat="41.627316000" lon="2.574509100">
        <ele>159.70</ele>
        <time>2012-10-28T10:06:02Z</time>
      </trkpt>
      <trkpt lat="41.627399000" lon="2.574409100">
        <ele>159.70</ele>
        <time>2012-10-28T10:06:09Z</time>
      </trkpt>
      <trkpt lat="41.627522000" lon="2.574326100">
        <ele>159.70</ele>
        <time>2012-10-28T10:06:17Z</time>
      </trkpt>
      <trkpt lat="41.627647000" lon="2.574288100">
        <ele>160.70</ele>
        <time>2012-10-28T10:06:26Z</time>
      </trkpt>
      <trkpt lat="41.627754000" lon="2.574181100">
        <ele>161.60</ele>
        <time>2012-10-28T10:06:33Z</time>
      </trkpt>
      <trkpt lat="41.627777000" lon="2.574048100">
        <ele>164.00</ele>
        <time>2012-10-28T10:06:42Z</time>
      </trkpt>
      <trkpt lat="41.627796000" lon="2.573982100">
        <ele>167.90</ele>
        <time>2012-10-28T10:06:47Z</time>
      </trkpt>
      <trkpt lat="41.627811000" lon="2.573875100">
        <ele>170.80</ele>
        <time>2012-10-28T10:06:54Z</time>
      </trkpt>
      <trkpt lat="41.627823000" lon="2.573797100">
        <ele>170.30</ele>
        <time>2012-10-28T10:06:58Z</time>
      </trkpt>
      <trkpt lat="41.627815000" lon="2.573653100">
        <ele>170.30</ele>
        <time>2012-10-28T10:07:06Z</time>
      </trkpt>
      <trkpt lat="41.627811000" lon="2.573540100">
        <ele>171.70</ele>
        <time>2012-10-28T10:07:13Z</time>
      </trkpt>
      <trkpt lat="41.627831000" lon="2.573428100">
        <ele>173.70</ele>
        <time>2012-10-28T10:07:22Z</time>
      </trkpt>
      <trkpt lat="41.627834000" lon="2.573413100">
        <ele>173.70</ele>
        <time>2012-10-28T10:07:22Z</time>
      </trkpt>
      <trkpt lat="41.627884000" lon="2.573310100">
        <ele>175.10</ele>
        <time>2012-10-28T10:07:29Z</time>
      </trkpt>
      <trkpt lat="41.627972000" lon="2.573296100">
        <ele>176.10</ele>
        <time>2012-10-28T10:07:36Z</time>
      </trkpt>
      <trkpt lat="41.627995000" lon="2.573317100">
        <ele>176.10</ele>
        <time>2012-10-28T10:07:38Z</time>
      </trkpt>
      <trkpt lat="41.628067000" lon="2.573361100">
        <ele>177.50</ele>
        <time>2012-10-28T10:07:43Z</time>
      </trkpt>
      <trkpt lat="41.628086000" lon="2.573373100">
        <ele>177.00</ele>
        <time>2012-10-28T10:07:46Z</time>
      </trkpt>
      <trkpt lat="41.628197000" lon="2.573403100">
        <ele>178.50</ele>
        <time>2012-10-28T10:07:55Z</time>
      </trkpt>
      <trkpt lat="41.628250000" lon="2.573436100">
        <ele>178.90</ele>
        <time>2012-10-28T10:08:00Z</time>
      </trkpt>
      <trkpt lat="41.628357000" lon="2.573452100">
        <ele>180.40</ele>
        <time>2012-10-28T10:08:07Z</time>
      </trkpt>
      <trkpt lat="41.628433000" lon="2.573476100">
        <ele>181.40</ele>
        <time>2012-10-28T10:08:14Z</time>
      </trkpt>
      <trkpt lat="41.628452000" lon="2.573466100">
        <ele>181.80</ele>
        <time>2012-10-28T10:08:16Z</time>
      </trkpt>
      <trkpt lat="41.628555000" lon="2.573488100">
        <ele>183.30</ele>
        <time>2012-10-28T10:08:23Z</time>
      </trkpt>
      <trkpt lat="41.628704000" lon="2.573522100">
        <ele>185.70</ele>
        <time>2012-10-28T10:08:35Z</time>
      </trkpt>
      <trkpt lat="41.628826000" lon="2.573545100">
        <ele>187.60</ele>
        <time>2012-10-28T10:08:44Z</time>
      </trkpt>
      <trkpt lat="41.628933000" lon="2.573566100">
        <ele>189.50</ele>
        <time>2012-10-28T10:08:51Z</time>
      </trkpt>
      <trkpt lat="41.629070000" lon="2.573585100">
        <ele>191.90</ele>
        <time>2012-10-28T10:09:01Z</time>
      </trkpt>
      <trkpt lat="41.629135000" lon="2.573582100">
        <ele>192.40</ele>
        <time>2012-10-28T10:09:06Z</time>
      </trkpt>
      <trkpt lat="41.629292000" lon="2.573522100">
        <ele>194.80</ele>
        <time>2012-10-28T10:09:17Z</time>
      </trkpt>
      <trkpt lat="41.629379000" lon="2.573452100">
        <ele>195.80</ele>
        <time>2012-10-28T10:09:24Z</time>
      </trkpt>
      <trkpt lat="41.629452000" lon="2.573408100">
        <ele>196.20</ele>
        <time>2012-10-28T10:09:29Z</time>
      </trkpt>
      <trkpt lat="41.629593000" lon="2.573329100">
        <ele>197.70</ele>
        <time>2012-10-28T10:09:40Z</time>
      </trkpt>
      <trkpt lat="41.629753000" lon="2.573275100">
        <ele>199.10</ele>
        <time>2012-10-28T10:09:50Z</time>
      </trkpt>
      <trkpt lat="41.629921000" lon="2.573179100">
        <ele>200.10</ele>
        <time>2012-10-28T10:09:59Z</time>
      </trkpt>
      <trkpt lat="41.630070000" lon="2.573121100">
        <ele>201.50</ele>
        <time>2012-10-28T10:10:09Z</time>
      </trkpt>
      <trkpt lat="41.630211000" lon="2.573090100">
        <ele>202.50</ele>
        <time>2012-10-28T10:10:16Z</time>
      </trkpt>
      <trkpt lat="41.630383000" lon="2.573049100">
        <ele>203.90</ele>
        <time>2012-10-28T10:10:25Z</time>
      </trkpt>
      <trkpt lat="41.630527000" lon="2.573011100">
        <ele>204.90</ele>
        <time>2012-10-28T10:10:34Z</time>
      </trkpt>
      <trkpt lat="41.630726000" lon="2.572985100">
        <ele>206.30</ele>
        <time>2012-10-28T10:10:42Z</time>
      </trkpt>
      <trkpt lat="41.630920000" lon="2.572942100">
        <ele>207.80</ele>
        <time>2012-10-28T10:10:51Z</time>
      </trkpt>
      <trkpt lat="41.631134000" lon="2.572970100">
        <ele>208.70</ele>
        <time>2012-10-28T10:10:58Z</time>
      </trkpt>
      <trkpt lat="41.631424000" lon="2.573035100">
        <ele>209.20</ele>
        <time>2012-10-28T10:11:07Z</time>
      </trkpt>
      <trkpt lat="41.631580000" lon="2.573066100">
        <ele>210.20</ele>
        <time>2012-10-28T10:11:12Z</time>
      </trkpt>
      <trkpt lat="41.631828000" lon="2.573112100">
        <ele>211.10</ele>
        <time>2012-10-28T10:11:22Z</time>
      </trkpt>
      <trkpt lat="41.631878000" lon="2.573104100">
        <ele>211.10</ele>
        <time>2012-10-28T10:11:24Z</time>
      </trkpt>
      <trkpt lat="41.631954000" lon="2.572876100">
        <ele>211.60</ele>
        <time>2012-10-28T10:11:29Z</time>
      </trkpt>
      <trkpt lat="41.631958000" lon="2.572714100">
        <ele>211.60</ele>
        <time>2012-10-28T10:11:31Z</time>
      </trkpt>
      <trkpt lat="41.632080000" lon="2.572222100">
        <ele>208.70</ele>
        <time>2012-10-28T10:11:36Z</time>
      </trkpt>
      <trkpt lat="41.632305000" lon="2.571856100">
        <ele>202.50</ele>
        <time>2012-10-28T10:11:40Z</time>
      </trkpt>
      <trkpt lat="41.632534000" lon="2.571788100">
        <ele>199.10</ele>
        <time>2012-10-28T10:11:43Z</time>
      </trkpt>
      <trkpt lat="41.632767000" lon="2.571908100">
        <ele>196.70</ele>
        <time>2012-10-28T10:11:45Z</time>
      </trkpt>
      <trkpt lat="41.633305000" lon="2.572157100">
        <ele>196.20</ele>
        <time>2012-10-28T10:11:52Z</time>
      </trkpt>
      <trkpt lat="41.633430000" lon="2.572246100">
        <ele>196.20</ele>
        <time>2012-10-28T10:11:54Z</time>
      </trkpt>
      <trkpt lat="41.633614000" lon="2.572332100">
        <ele>195.80</ele>
        <time>2012-10-28T10:11:57Z</time>
      </trkpt>
      <trkpt lat="41.633781000" lon="2.572275100">
        <ele>191.90</ele>
        <time>2012-10-28T10:12:01Z</time>
      </trkpt>
      <trkpt lat="41.633781000" lon="2.572165100">
        <ele>188.60</ele>
        <time>2012-10-28T10:12:04Z</time>
      </trkpt>
      <trkpt lat="41.633686000" lon="2.572050100">
        <ele>188.10</ele>
        <time>2012-10-28T10:12:09Z</time>
      </trkpt>
      <trkpt lat="41.633602000" lon="2.571987100">
        <ele>188.10</ele>
        <time>2012-10-28T10:12:11Z</time>
      </trkpt>
      <trkpt lat="41.633461000" lon="2.571835100">
        <ele>190.00</ele>
        <time>2012-10-28T10:12:13Z</time>
      </trkpt>
      <trkpt lat="41.633289000" lon="2.571672100">
        <ele>189.50</ele>
        <time>2012-10-28T10:12:16Z</time>
      </trkpt>
      <trkpt lat="41.633045000" lon="2.571491100">
        <ele>181.80</ele>
        <time>2012-10-28T10:12:20Z</time>
      </trkpt>
      <trkpt lat="41.632870000" lon="2.571383100">
        <ele>177.50</ele>
        <time>2012-10-28T10:12:23Z</time>
      </trkpt>
      <trkpt lat="41.632587000" lon="2.571106100">
        <ele>174.60</ele>
        <time>2012-10-28T10:12:29Z</time>
      </trkpt>
      <trkpt lat="41.632290000" lon="2.570343100">
        <ele>174.60</ele>
        <time>2012-10-28T10:12:37Z</time>
      </trkpt>
      <trkpt lat="41.632225000" lon="2.570062100">
        <ele>172.20</ele>
        <time>2012-10-28T10:12:41Z</time>
      </trkpt>
      <trkpt lat="41.632080000" lon="2.569846100">
        <ele>166.90</ele>
        <time>2012-10-28T10:12:44Z</time>
      </trkpt>
      <trkpt lat="41.631905000" lon="2.569777100">
        <ele>163.10</ele>
        <time>2012-10-28T10:12:48Z</time>
      </trkpt>
      <trkpt lat="41.631718000" lon="2.569771100">
        <ele>160.70</ele>
        <time>2012-10-28T10:12:51Z</time>
      </trkpt>
      <trkpt lat="41.631496000" lon="2.569767100">
        <ele>160.70</ele>
        <time>2012-10-28T10:12:55Z</time>
      </trkpt>
      <trkpt lat="41.631268000" lon="2.569537100">
        <ele>160.70</ele>
        <time>2012-10-28T10:12:58Z</time>
      </trkpt>
      <trkpt lat="41.631165000" lon="2.569368100">
        <ele>159.70</ele>
        <time>2012-10-28T10:13:00Z</time>
      </trkpt>
      <trkpt lat="41.630848000" lon="2.569122100">
        <ele>156.80</ele>
        <time>2012-10-28T10:13:05Z</time>
      </trkpt>
      <trkpt lat="41.630653000" lon="2.568914100">
        <ele>153.50</ele>
        <time>2012-10-28T10:13:10Z</time>
      </trkpt>
      <trkpt lat="41.630486000" lon="2.568666100">
        <ele>151.10</ele>
        <time>2012-10-28T10:13:14Z</time>
      </trkpt>
      <trkpt lat="41.630249000" lon="2.568482100">
        <ele>148.20</ele>
        <time>2012-10-28T10:13:17Z</time>
      </trkpt>
      <trkpt lat="41.630047000" lon="2.568293100">
        <ele>143.90</ele>
        <time>2012-10-28T10:13:21Z</time>
      </trkpt>
      <trkpt lat="41.629932000" lon="2.568119100">
        <ele>140.00</ele>
        <time>2012-10-28T10:13:26Z</time>
      </trkpt>
      <trkpt lat="41.630028000" lon="2.568001100">
        <ele>138.10</ele>
        <time>2012-10-28T10:13:30Z</time>
      </trkpt>
      <trkpt lat="41.630249000" lon="2.567809100">
        <ele>137.10</ele>
        <time>2012-10-28T10:13:35Z</time>
      </trkpt>
      <trkpt lat="41.630249000" lon="2.567711100">
        <ele>137.10</ele>
        <time>2012-10-28T10:13:38Z</time>
      </trkpt>
      <trkpt lat="41.630184000" lon="2.567337100">
        <ele>138.60</ele>
        <time>2012-10-28T10:13:45Z</time>
      </trkpt>
      <trkpt lat="41.630146000" lon="2.567127100">
        <ele>140.00</ele>
        <time>2012-10-28T10:13:52Z</time>
      </trkpt>
      <trkpt lat="41.630169000" lon="2.566946100">
        <ele>142.90</ele>
        <time>2012-10-28T10:13:57Z</time>
      </trkpt>
      <trkpt lat="41.630192000" lon="2.566897100">
        <ele>143.40</ele>
        <time>2012-10-28T10:13:57Z</time>
      </trkpt>
      <trkpt lat="41.630230000" lon="2.566810100">
        <ele>144.80</ele>
        <time>2012-10-28T10:13:59Z</time>
      </trkpt>
      <trkpt lat="41.630325000" lon="2.566345100">
        <ele>144.30</ele>
        <time>2012-10-28T10:14:08Z</time>
      </trkpt>
      <trkpt lat="41.630402000" lon="2.565976100">
        <ele>144.30</ele>
        <time>2012-10-28T10:14:17Z</time>
      </trkpt>
      <trkpt lat="41.630520000" lon="2.565644100">
        <ele>144.30</ele>
        <time>2012-10-28T10:14:25Z</time>
      </trkpt>
      <trkpt lat="41.630619000" lon="2.565421100">
        <ele>143.90</ele>
        <time>2012-10-28T10:14:30Z</time>
      </trkpt>
      <trkpt lat="41.630726000" lon="2.565268100">
        <ele>145.30</ele>
        <time>2012-10-28T10:14:36Z</time>
      </trkpt>
      <trkpt lat="41.630890000" lon="2.565113100">
        <ele>146.30</ele>
        <time>2012-10-28T10:14:43Z</time>
      </trkpt>
      <trkpt lat="41.631107000" lon="2.564948100">
        <ele>147.20</ele>
        <time>2012-10-28T10:14:51Z</time>
      </trkpt>
      <trkpt lat="41.631279000" lon="2.564809100">
        <ele>147.70</ele>
        <time>2012-10-28T10:14:58Z</time>
      </trkpt>
      <trkpt lat="41.631443000" lon="2.564689100">
        <ele>149.10</ele>
        <time>2012-10-28T10:15:05Z</time>
      </trkpt>
      <trkpt lat="41.631596000" lon="2.564554100">
        <ele>149.60</ele>
        <time>2012-10-28T10:15:12Z</time>
      </trkpt>
      <trkpt lat="41.631790000" lon="2.564413100">
        <ele>150.60</ele>
        <time>2012-10-28T10:15:21Z</time>
      </trkpt>
      <trkpt lat="41.631931000" lon="2.564324100">
        <ele>151.50</ele>
        <time>2012-10-28T10:15:26Z</time>
      </trkpt>
      <trkpt lat="41.632076000" lon="2.564213100">
        <ele>152.50</ele>
        <time>2012-10-28T10:15:33Z</time>
      </trkpt>
      <trkpt lat="41.632229000" lon="2.564121100">
        <ele>153.50</ele>
        <time>2012-10-28T10:15:40Z</time>
      </trkpt>
      <trkpt lat="41.632435000" lon="2.563963100">
        <ele>154.40</ele>
        <time>2012-10-28T10:15:49Z</time>
      </trkpt>
      <trkpt lat="41.632637000" lon="2.563743100">
        <ele>154.90</ele>
        <time>2012-10-28T10:15:56Z</time>
      </trkpt>
      <trkpt lat="41.632885000" lon="2.563490100">
        <ele>154.90</ele>
        <time>2012-10-28T10:16:03Z</time>
      </trkpt>
      <trkpt lat="41.633099000" lon="2.563146100">
        <ele>154.90</ele>
        <time>2012-10-28T10:16:12Z</time>
      </trkpt>
      <trkpt lat="41.633217000" lon="2.562738100">
        <ele>154.90</ele>
        <time>2012-10-28T10:16:20Z</time>
      </trkpt>
      <trkpt lat="41.633297000" lon="2.562366100">
        <ele>154.40</ele>
        <time>2012-10-28T10:16:27Z</time>
      </trkpt>
      <trkpt lat="41.633366000" lon="2.561995100">
        <ele>154.40</ele>
        <time>2012-10-28T10:16:36Z</time>
      </trkpt>
      <trkpt lat="41.633457000" lon="2.561712100">
        <ele>154.40</ele>
        <time>2012-10-28T10:16:43Z</time>
      </trkpt>
      <trkpt lat="41.633598000" lon="2.561477100">
        <ele>155.40</ele>
        <time>2012-10-28T10:16:52Z</time>
      </trkpt>
      <trkpt lat="41.633781000" lon="2.561465100">
        <ele>154.90</ele>
        <time>2012-10-28T10:16:57Z</time>
      </trkpt>
      <trkpt lat="41.634094000" lon="2.561628100">
        <ele>154.90</ele>
        <time>2012-10-28T10:17:04Z</time>
      </trkpt>
      <trkpt lat="41.634323000" lon="2.561722100">
        <ele>155.40</ele>
        <time>2012-10-28T10:17:11Z</time>
      </trkpt>
      <trkpt lat="41.634525000" lon="2.561764100">
        <ele>155.40</ele>
        <time>2012-10-28T10:17:18Z</time>
      </trkpt>
      <trkpt lat="41.634708000" lon="2.561776100">
        <ele>156.40</ele>
        <time>2012-10-28T10:17:23Z</time>
      </trkpt>
      <trkpt lat="41.634872000" lon="2.561812100">
        <ele>157.30</ele>
        <time>2012-10-28T10:17:28Z</time>
      </trkpt>
      <trkpt lat="41.635071000" lon="2.561802100">
        <ele>158.30</ele>
        <time>2012-10-28T10:17:35Z</time>
      </trkpt>
      <trkpt lat="41.635223000" lon="2.561809100">
        <ele>159.70</ele>
        <time>2012-10-28T10:17:42Z</time>
      </trkpt>
      <trkpt lat="41.635368000" lon="2.561836100">
        <ele>162.60</ele>
        <time>2012-10-28T10:17:47Z</time>
      </trkpt>
      <trkpt lat="41.635548000" lon="2.561866100">
        <ele>165.00</ele>
        <time>2012-10-28T10:17:54Z</time>
      </trkpt>
      <trkpt lat="41.635746000" lon="2.561790100">
        <ele>165.00</ele>
        <time>2012-10-28T10:17:59Z</time>
      </trkpt>
      <trkpt lat="41.635822000" lon="2.561764100">
        <ele>163.60</ele>
        <time>2012-10-28T10:18:03Z</time>
      </trkpt>
      <trkpt lat="41.635921000" lon="2.561738100">
        <ele>163.10</ele>
        <time>2012-10-28T10:18:10Z</time>
      </trkpt>
      <trkpt lat="41.635975000" lon="2.561712100">
        <ele>163.10</ele>
        <time>2012-10-28T10:18:17Z</time>
      </trkpt>
      <trkpt lat="41.636013000" lon="2.561716100">
        <ele>163.10</ele>
        <time>2012-10-28T10:18:24Z</time>
      </trkpt>
      <trkpt lat="41.636028000" lon="2.561722100">
        <ele>163.10</ele>
        <time>2012-10-28T10:18:29Z</time>
      </trkpt>
      <trkpt lat="41.636028000" lon="2.561722100">
        <ele>163.10</ele>
        <time>2012-10-28T10:18:47Z</time>
      </trkpt>
      <trkpt lat="41.636040000" lon="2.561716100">
        <ele>162.60</ele>
        <time>2012-10-28T10:19:09Z</time>
      </trkpt>
      <trkpt lat="41.636055000" lon="2.561714100">
        <ele>162.60</ele>
        <time>2012-10-28T10:19:53Z</time>
      </trkpt>
      <trkpt lat="41.636059000" lon="2.561702100">
        <ele>162.60</ele>
        <time>2012-10-28T10:20:29Z</time>
      </trkpt>
      <trkpt lat="41.636070000" lon="2.561683100">
        <ele>162.60</ele>
        <time>2012-10-28T10:20:50Z</time>
      </trkpt>
      <trkpt lat="41.636078000" lon="2.561682100">
        <ele>162.60</ele>
        <time>2012-10-28T10:20:54Z</time>
      </trkpt>
      <trkpt lat="41.636162000" lon="2.561630100">
        <ele>162.60</ele>
        <time>2012-10-28T10:21:01Z</time>
      </trkpt>
      <trkpt lat="41.636345000" lon="2.561633100">
        <ele>164.00</ele>
        <time>2012-10-28T10:21:11Z</time>
      </trkpt>
      <trkpt lat="41.636364000" lon="2.561637100">
        <ele>164.00</ele>
        <time>2012-10-28T10:21:11Z</time>
      </trkpt>
      <trkpt lat="41.636520000" lon="2.561701100">
        <ele>165.50</ele>
        <time>2012-10-28T10:21:20Z</time>
      </trkpt>
      <trkpt lat="41.636665000" lon="2.561730100">
        <ele>166.90</ele>
        <time>2012-10-28T10:21:29Z</time>
      </trkpt>
      <trkpt lat="41.636860000" lon="2.561727100">
        <ele>168.40</ele>
        <time>2012-10-28T10:21:37Z</time>
      </trkpt>
      <trkpt lat="41.636982000" lon="2.561732100">
        <ele>168.90</ele>
        <time>2012-10-28T10:21:42Z</time>
      </trkpt>
      <trkpt lat="41.637089000" lon="2.561773100">
        <ele>170.30</ele>
        <time>2012-10-28T10:21:48Z</time>
      </trkpt>
      <trkpt lat="41.637234000" lon="2.561927100">
        <ele>171.20</ele>
        <time>2012-10-28T10:21:55Z</time>
      </trkpt>
      <trkpt lat="41.637356000" lon="2.562082100">
        <ele>172.20</ele>
        <time>2012-10-28T10:22:02Z</time>
      </trkpt>
      <trkpt lat="41.637478000" lon="2.562166100">
        <ele>173.20</ele>
        <time>2012-10-28T10:22:07Z</time>
      </trkpt>
      <trkpt lat="41.637646000" lon="2.562200100">
        <ele>173.70</ele>
        <time>2012-10-28T10:22:16Z</time>
      </trkpt>
      <trkpt lat="41.637829000" lon="2.562276100">
        <ele>175.10</ele>
        <time>2012-10-28T10:22:24Z</time>
      </trkpt>
      <trkpt lat="41.637924000" lon="2.562310100">
        <ele>175.60</ele>
        <time>2012-10-28T10:22:28Z</time>
      </trkpt>
      <trkpt lat="41.638100000" lon="2.562343100">
        <ele>177.00</ele>
        <time>2012-10-28T10:22:35Z</time>
      </trkpt>
      <trkpt lat="41.638363000" lon="2.562346100">
        <ele>178.00</ele>
        <time>2012-10-28T10:22:43Z</time>
      </trkpt>
      <trkpt lat="41.638554000" lon="2.562360100">
        <ele>179.40</ele>
        <time>2012-10-28T10:22:52Z</time>
      </trkpt>
      <trkpt lat="41.638691000" lon="2.562429100">
        <ele>180.40</ele>
        <time>2012-10-28T10:22:59Z</time>
      </trkpt>
      <trkpt lat="41.638882000" lon="2.562608100">
        <ele>181.80</ele>
        <time>2012-10-28T10:23:06Z</time>
      </trkpt>
      <trkpt lat="41.639065000" lon="2.562768100">
        <ele>183.30</ele>
        <time>2012-10-28T10:23:15Z</time>
      </trkpt>
      <trkpt lat="41.639267000" lon="2.562918100">
        <ele>184.70</ele>
        <time>2012-10-28T10:23:25Z</time>
      </trkpt>
      <trkpt lat="41.639439000" lon="2.562981100">
        <ele>186.10</ele>
        <time>2012-10-28T10:23:32Z</time>
      </trkpt>
      <trkpt lat="41.639458000" lon="2.562981100">
        <ele>186.10</ele>
        <time>2012-10-28T10:23:34Z</time>
      </trkpt>
      <trkpt lat="41.639549000" lon="2.563015100">
        <ele>186.60</ele>
        <time>2012-10-28T10:23:37Z</time>
      </trkpt>
      <trkpt lat="41.639740000" lon="2.563117100">
        <ele>188.10</ele>
        <time>2012-10-28T10:23:46Z</time>
      </trkpt>
      <trkpt lat="41.639954000" lon="2.563179100">
        <ele>189.50</ele>
        <time>2012-10-28T10:23:53Z</time>
      </trkpt>
      <trkpt lat="41.640144000" lon="2.563181100">
        <ele>190.00</ele>
        <time>2012-10-28T10:24:00Z</time>
      </trkpt>
      <trkpt lat="41.640167000" lon="2.563165100">
        <ele>190.00</ele>
        <time>2012-10-28T10:24:02Z</time>
      </trkpt>
      <trkpt lat="41.640202000" lon="2.563061100">
        <ele>190.50</ele>
        <time>2012-10-28T10:24:05Z</time>
      </trkpt>
      <trkpt lat="41.640160000" lon="2.562930100">
        <ele>191.00</ele>
        <time>2012-10-28T10:24:11Z</time>
      </trkpt>
      <trkpt lat="41.639992000" lon="2.562861100">
        <ele>191.40</ele>
        <time>2012-10-28T10:24:19Z</time>
      </trkpt>
      <trkpt lat="41.639832000" lon="2.562823100">
        <ele>191.90</ele>
        <time>2012-10-28T10:24:24Z</time>
      </trkpt>
      <trkpt lat="41.639652000" lon="2.562689100">
        <ele>192.40</ele>
        <time>2012-10-28T10:24:31Z</time>
      </trkpt>
      <trkpt lat="41.639648000" lon="2.562528100">
        <ele>192.90</ele>
        <time>2012-10-28T10:24:37Z</time>
      </trkpt>
      <trkpt lat="41.639679000" lon="2.562304100">
        <ele>194.80</ele>
        <time>2012-10-28T10:24:44Z</time>
      </trkpt>
      <trkpt lat="41.639576000" lon="2.562176100">
        <ele>195.80</ele>
        <time>2012-10-28T10:24:49Z</time>
      </trkpt>
      <trkpt lat="41.639378000" lon="2.562021100">
        <ele>197.20</ele>
        <time>2012-10-28T10:24:56Z</time>
      </trkpt>
      <trkpt lat="41.639210000" lon="2.561869100">
        <ele>198.20</ele>
        <time>2012-10-28T10:25:03Z</time>
      </trkpt>
      <trkpt lat="41.638950000" lon="2.561716100">
        <ele>199.10</ele>
        <time>2012-10-28T10:25:13Z</time>
      </trkpt>
      <trkpt lat="41.638741000" lon="2.561604100">
        <ele>200.10</ele>
        <time>2012-10-28T10:25:22Z</time>
      </trkpt>
      <trkpt lat="41.638519000" lon="2.561491100">
        <ele>201.50</ele>
        <time>2012-10-28T10:25:31Z</time>
      </trkpt>
      <trkpt lat="41.638382000" lon="2.561343100">
        <ele>203.50</ele>
        <time>2012-10-28T10:25:39Z</time>
      </trkpt>
      <trkpt lat="41.638279000" lon="2.561173100">
        <ele>203.90</ele>
        <time>2012-10-28T10:25:46Z</time>
      </trkpt>
      <trkpt lat="41.638142000" lon="2.561050100">
        <ele>205.40</ele>
        <time>2012-10-28T10:25:53Z</time>
      </trkpt>
      <trkpt lat="41.637943000" lon="2.560908100">
        <ele>206.30</ele>
        <time>2012-10-28T10:26:02Z</time>
      </trkpt>
      <trkpt lat="41.637783000" lon="2.560742100">
        <ele>207.80</ele>
        <time>2012-10-28T10:26:11Z</time>
      </trkpt>
      <trkpt lat="41.637718000" lon="2.560623100">
        <ele>208.70</ele>
        <time>2012-10-28T10:26:18Z</time>
      </trkpt>
      <trkpt lat="41.637753000" lon="2.560513100">
        <ele>209.70</ele>
        <time>2012-10-28T10:26:23Z</time>
      </trkpt>
      <trkpt lat="41.637894000" lon="2.560344100">
        <ele>210.70</ele>
        <time>2012-10-28T10:26:30Z</time>
      </trkpt>
      <trkpt lat="41.637997000" lon="2.560129100">
        <ele>211.60</ele>
        <time>2012-10-28T10:26:40Z</time>
      </trkpt>
      <trkpt lat="41.638103000" lon="2.559925100">
        <ele>213.10</ele>
        <time>2012-10-28T10:26:49Z</time>
      </trkpt>
      <trkpt lat="41.638248000" lon="2.559853100">
        <ele>214.00</ele>
        <time>2012-10-28T10:26:54Z</time>
      </trkpt>
      <trkpt lat="41.638390000" lon="2.559915100">
        <ele>215.00</ele>
        <time>2012-10-28T10:27:01Z</time>
      </trkpt>
      <trkpt lat="41.638550000" lon="2.559984100">
        <ele>215.90</ele>
        <time>2012-10-28T10:27:08Z</time>
      </trkpt>
      <trkpt lat="41.638710000" lon="2.560049100">
        <ele>217.40</ele>
        <time>2012-10-28T10:27:17Z</time>
      </trkpt>
      <trkpt lat="41.638855000" lon="2.560058100">
        <ele>218.80</ele>
        <time>2012-10-28T10:27:24Z</time>
      </trkpt>
      <trkpt lat="41.639000000" lon="2.560021100">
        <ele>220.30</ele>
        <time>2012-10-28T10:27:31Z</time>
      </trkpt>
      <trkpt lat="41.639122000" lon="2.559973100">
        <ele>222.70</ele>
        <time>2012-10-28T10:27:38Z</time>
      </trkpt>
      <trkpt lat="41.639225000" lon="2.559904100">
        <ele>225.60</ele>
        <time>2012-10-28T10:27:43Z</time>
      </trkpt>
      <trkpt lat="41.639370000" lon="2.559724100">
        <ele>226.10</ele>
        <time>2012-10-28T10:27:52Z</time>
      </trkpt>
      <trkpt lat="41.639465000" lon="2.559600100">
        <ele>226.10</ele>
        <time>2012-10-28T10:27:59Z</time>
      </trkpt>
      <trkpt lat="41.639595000" lon="2.559451100">
        <ele>226.50</ele>
        <time>2012-10-28T10:28:09Z</time>
      </trkpt>
      <trkpt lat="41.639717000" lon="2.559321100">
        <ele>227.00</ele>
        <time>2012-10-28T10:28:16Z</time>
      </trkpt>
      <trkpt lat="41.639812000" lon="2.559263100">
        <ele>228.40</ele>
        <time>2012-10-28T10:28:23Z</time>
      </trkpt>
      <trkpt lat="41.639950000" lon="2.559413100">
        <ele>229.90</ele>
        <time>2012-10-28T10:28:32Z</time>
      </trkpt>
      <trkpt lat="41.640057000" lon="2.559525100">
        <ele>230.90</ele>
        <time>2012-10-28T10:28:39Z</time>
      </trkpt>
      <trkpt lat="41.640167000" lon="2.559517100">
        <ele>232.30</ele>
        <time>2012-10-28T10:28:46Z</time>
      </trkpt>
      <trkpt lat="41.640266000" lon="2.559520100">
        <ele>233.30</ele>
        <time>2012-10-28T10:28:53Z</time>
      </trkpt>
      <trkpt lat="41.640408000" lon="2.559562100">
        <ele>234.20</ele>
        <time>2012-10-28T10:29:00Z</time>
      </trkpt>
      <trkpt lat="41.640526000" lon="2.559577100">
        <ele>235.20</ele>
        <time>2012-10-28T10:29:07Z</time>
      </trkpt>
      <trkpt lat="41.640640000" lon="2.559521100">
        <ele>238.10</ele>
        <time>2012-10-28T10:29:14Z</time>
      </trkpt>
      <trkpt lat="41.640724000" lon="2.559517100">
        <ele>241.40</ele>
        <time>2012-10-28T10:29:19Z</time>
      </trkpt>
      <trkpt lat="41.640842000" lon="2.559562100">
        <ele>241.90</ele>
        <time>2012-10-28T10:29:24Z</time>
      </trkpt>
      <trkpt lat="41.640865000" lon="2.559576100">
        <ele>241.90</ele>
        <time>2012-10-28T10:29:26Z</time>
      </trkpt>
      <trkpt lat="41.641052000" lon="2.559620100">
        <ele>241.90</ele>
        <time>2012-10-28T10:29:36Z</time>
      </trkpt>
      <trkpt lat="41.641106000" lon="2.559625100">
        <ele>241.90</ele>
        <time>2012-10-28T10:29:38Z</time>
      </trkpt>
      <trkpt lat="41.641254000" lon="2.559740100">
        <ele>242.90</ele>
        <time>2012-10-28T10:29:47Z</time>
      </trkpt>
      <trkpt lat="41.641300000" lon="2.559881100">
        <ele>243.80</ele>
        <time>2012-10-28T10:29:54Z</time>
      </trkpt>
      <trkpt lat="41.641342000" lon="2.560068100">
        <ele>244.80</ele>
        <time>2012-10-28T10:30:02Z</time>
      </trkpt>
      <trkpt lat="41.641464000" lon="2.560113100">
        <ele>245.30</ele>
        <time>2012-10-28T10:30:09Z</time>
      </trkpt>
      <trkpt lat="41.641617000" lon="2.560018100">
        <ele>246.70</ele>
        <time>2012-10-28T10:30:18Z</time>
      </trkpt>
      <trkpt lat="41.641785000" lon="2.559896100">
        <ele>247.70</ele>
        <time>2012-10-28T10:30:27Z</time>
      </trkpt>
      <trkpt lat="41.641857000" lon="2.559873100">
        <ele>248.20</ele>
        <time>2012-10-28T10:30:30Z</time>
      </trkpt>
      <trkpt lat="41.641922000" lon="2.559882100">
        <ele>248.20</ele>
        <time>2012-10-28T10:30:34Z</time>
      </trkpt>
      <trkpt lat="41.642105000" lon="2.560059100">
        <ele>250.10</ele>
        <time>2012-10-28T10:30:46Z</time>
      </trkpt>
      <trkpt lat="41.642239000" lon="2.560181100">
        <ele>251.50</ele>
        <time>2012-10-28T10:30:55Z</time>
      </trkpt>
      <trkpt lat="41.642429000" lon="2.560186100">
        <ele>253.00</ele>
        <time>2012-10-28T10:31:05Z</time>
      </trkpt>
      <trkpt lat="41.642597000" lon="2.560099100">
        <ele>254.40</ele>
        <time>2012-10-28T10:31:14Z</time>
      </trkpt>
      <trkpt lat="41.642761000" lon="2.560029100">
        <ele>256.30</ele>
        <time>2012-10-28T10:31:23Z</time>
      </trkpt>
      <trkpt lat="41.642933000" lon="2.560012100">
        <ele>257.30</ele>
        <time>2012-10-28T10:31:31Z</time>
      </trkpt>
      <trkpt lat="41.643082000" lon="2.560055100">
        <ele>257.80</ele>
        <time>2012-10-28T10:31:38Z</time>
      </trkpt>
      <trkpt lat="41.643147000" lon="2.560082100">
        <ele>259.20</ele>
        <time>2012-10-28T10:31:42Z</time>
      </trkpt>
      <trkpt lat="41.643219000" lon="2.560119100">
        <ele>259.70</ele>
        <time>2012-10-28T10:31:45Z</time>
      </trkpt>
      <trkpt lat="41.643410000" lon="2.560236100">
        <ele>261.10</ele>
        <time>2012-10-28T10:31:54Z</time>
      </trkpt>
      <trkpt lat="41.643524000" lon="2.560319100">
        <ele>262.10</ele>
        <time>2012-10-28T10:32:01Z</time>
      </trkpt>
      <trkpt lat="41.643669000" lon="2.560433100">
        <ele>263.50</ele>
        <time>2012-10-28T10:32:11Z</time>
      </trkpt>
      <trkpt lat="41.643768000" lon="2.560596100">
        <ele>265.50</ele>
        <time>2012-10-28T10:32:20Z</time>
      </trkpt>
      <trkpt lat="41.643787000" lon="2.560789100">
        <ele>266.40</ele>
        <time>2012-10-28T10:32:27Z</time>
      </trkpt>
      <trkpt lat="41.643799000" lon="2.561054100">
        <ele>268.40</ele>
        <time>2012-10-28T10:32:36Z</time>
      </trkpt>
      <trkpt lat="41.643806000" lon="2.561279100">
        <ele>270.30</ele>
        <time>2012-10-28T10:32:43Z</time>
      </trkpt>
      <trkpt lat="41.643852000" lon="2.561490100">
        <ele>271.20</ele>
        <time>2012-10-28T10:32:51Z</time>
      </trkpt>
      <trkpt lat="41.643944000" lon="2.561586100">
        <ele>272.20</ele>
        <time>2012-10-28T10:32:58Z</time>
      </trkpt>
      <trkpt lat="41.644100000" lon="2.561609100">
        <ele>273.10</ele>
        <time>2012-10-28T10:33:05Z</time>
      </trkpt>
      <trkpt lat="41.644268000" lon="2.561638100">
        <ele>274.10</ele>
        <time>2012-10-28T10:33:16Z</time>
      </trkpt>
      <trkpt lat="41.644394000" lon="2.561682100">
        <ele>275.60</ele>
        <time>2012-10-28T10:33:23Z</time>
      </trkpt>
      <trkpt lat="41.644527000" lon="2.561721100">
        <ele>278.90</ele>
        <time>2012-10-28T10:33:30Z</time>
      </trkpt>
      <trkpt lat="41.644611000" lon="2.561713100">
        <ele>281.30</ele>
        <time>2012-10-28T10:33:35Z</time>
      </trkpt>
      <trkpt lat="41.644730000" lon="2.561609100">
        <ele>281.80</ele>
        <time>2012-10-28T10:33:42Z</time>
      </trkpt>
      <trkpt lat="41.644871000" lon="2.561455100">
        <ele>282.30</ele>
        <time>2012-10-28T10:33:54Z</time>
      </trkpt>
      <trkpt lat="41.644974000" lon="2.561327100">
        <ele>284.20</ele>
        <time>2012-10-28T10:34:03Z</time>
      </trkpt>
      <trkpt lat="41.645084000" lon="2.561203100">
        <ele>285.60</ele>
        <time>2012-10-28T10:34:13Z</time>
      </trkpt>
      <trkpt lat="41.645161000" lon="2.561203100">
        <ele>287.10</ele>
        <time>2012-10-28T10:34:17Z</time>
      </trkpt>
      <trkpt lat="41.645267000" lon="2.561227100">
        <ele>288.00</ele>
        <time>2012-10-28T10:34:25Z</time>
      </trkpt>
      <trkpt lat="41.645374000" lon="2.561266100">
        <ele>289.00</ele>
        <time>2012-10-28T10:34:32Z</time>
      </trkpt>
      <trkpt lat="41.645454000" lon="2.561302100">
        <ele>289.50</ele>
        <time>2012-10-28T10:34:38Z</time>
      </trkpt>
      <trkpt lat="41.645592000" lon="2.561359100">
        <ele>290.50</ele>
        <time>2012-10-28T10:34:46Z</time>
      </trkpt>
      <trkpt lat="41.645725000" lon="2.561420100">
        <ele>290.90</ele>
        <time>2012-10-28T10:34:55Z</time>
      </trkpt>
      <trkpt lat="41.645771000" lon="2.561473100">
        <ele>291.40</ele>
        <time>2012-10-28T10:34:59Z</time>
      </trkpt>
      <trkpt lat="41.645805000" lon="2.561627100">
        <ele>292.90</ele>
        <time>2012-10-28T10:35:07Z</time>
      </trkpt>
      <trkpt lat="41.645805000" lon="2.561842100">
        <ele>294.80</ele>
        <time>2012-10-28T10:35:16Z</time>
      </trkpt>
      <trkpt lat="41.645817000" lon="2.561970100">
        <ele>296.20</ele>
        <time>2012-10-28T10:35:21Z</time>
      </trkpt>
      <trkpt lat="41.645905000" lon="2.562041100">
        <ele>297.70</ele>
        <time>2012-10-28T10:35:30Z</time>
      </trkpt>
      <trkpt lat="41.646008000" lon="2.561978100">
        <ele>299.10</ele>
        <time>2012-10-28T10:35:37Z</time>
      </trkpt>
      <trkpt lat="41.646145000" lon="2.561936100">
        <ele>300.50</ele>
        <time>2012-10-28T10:35:46Z</time>
      </trkpt>
      <trkpt lat="41.646225000" lon="2.561970100">
        <ele>301.50</ele>
        <time>2012-10-28T10:35:51Z</time>
      </trkpt>
      <trkpt lat="41.646347000" lon="2.562105100">
        <ele>304.90</ele>
        <time>2012-10-28T10:36:01Z</time>
      </trkpt>
      <trkpt lat="41.646400000" lon="2.562181100">
        <ele>308.20</ele>
        <time>2012-10-28T10:36:05Z</time>
      </trkpt>
      <trkpt lat="41.646442000" lon="2.562215100">
        <ele>308.70</ele>
        <time>2012-10-28T10:36:08Z</time>
      </trkpt>
      <trkpt lat="41.646587000" lon="2.562291100">
        <ele>308.20</ele>
        <time>2012-10-28T10:36:19Z</time>
      </trkpt>
      <trkpt lat="41.646736000" lon="2.562390100">
        <ele>308.70</ele>
        <time>2012-10-28T10:36:27Z</time>
      </trkpt>
      <trkpt lat="41.646851000" lon="2.562460100">
        <ele>309.20</ele>
        <time>2012-10-28T10:36:34Z</time>
      </trkpt>
      <trkpt lat="41.646988000" lon="2.562460100">
        <ele>309.70</ele>
        <time>2012-10-28T10:36:43Z</time>
      </trkpt>
      <trkpt lat="41.647144000" lon="2.562418100">
        <ele>311.10</ele>
        <time>2012-10-28T10:36:50Z</time>
      </trkpt>
      <trkpt lat="41.647316000" lon="2.562345100">
        <ele>311.60</ele>
        <time>2012-10-28T10:36:59Z</time>
      </trkpt>
      <trkpt lat="41.647499000" lon="2.562217100">
        <ele>312.10</ele>
        <time>2012-10-28T10:37:07Z</time>
      </trkpt>
      <trkpt lat="41.647717000" lon="2.562113100">
        <ele>313.00</ele>
        <time>2012-10-28T10:37:16Z</time>
      </trkpt>
      <trkpt lat="41.647949000" lon="2.562039100">
        <ele>313.00</ele>
        <time>2012-10-28T10:37:25Z</time>
      </trkpt>
      <trkpt lat="41.648113000" lon="2.561928100">
        <ele>314.00</ele>
        <time>2012-10-28T10:37:32Z</time>
      </trkpt>
      <trkpt lat="41.648243000" lon="2.561814100">
        <ele>315.00</ele>
        <time>2012-10-28T10:37:39Z</time>
      </trkpt>
      <trkpt lat="41.648247000" lon="2.561751100">
        <ele>315.00</ele>
        <time>2012-10-28T10:37:41Z</time>
      </trkpt>
      <trkpt lat="41.648186000" lon="2.561636100">
        <ele>316.40</ele>
        <time>2012-10-28T10:37:48Z</time>
      </trkpt>
      <trkpt lat="41.648045000" lon="2.561453100">
        <ele>317.90</ele>
        <time>2012-10-28T10:37:58Z</time>
      </trkpt>
      <trkpt lat="41.647865000" lon="2.561295100">
        <ele>320.30</ele>
        <time>2012-10-28T10:38:08Z</time>
      </trkpt>
      <trkpt lat="41.647751000" lon="2.561109100">
        <ele>321.70</ele>
        <time>2012-10-28T10:38:17Z</time>
      </trkpt>
      <trkpt lat="41.647690000" lon="2.560926100">
        <ele>323.60</ele>
        <time>2012-10-28T10:38:26Z</time>
      </trkpt>
      <trkpt lat="41.647667000" lon="2.560727100">
        <ele>325.10</ele>
        <time>2012-10-28T10:38:33Z</time>
      </trkpt>
      <trkpt lat="41.647697000" lon="2.560516100">
        <ele>326.50</ele>
        <time>2012-10-28T10:38:42Z</time>
      </trkpt>
      <trkpt lat="41.647739000" lon="2.560285100">
        <ele>328.40</ele>
        <time>2012-10-28T10:38:52Z</time>
      </trkpt>
      <trkpt lat="41.647793000" lon="2.560087100">
        <ele>329.90</ele>
        <time>2012-10-28T10:39:01Z</time>
      </trkpt>
      <trkpt lat="41.647846000" lon="2.559909100">
        <ele>332.30</ele>
        <time>2012-10-28T10:39:09Z</time>
      </trkpt>
      <trkpt lat="41.647869000" lon="2.559759100">
        <ele>335.60</ele>
        <time>2012-10-28T10:39:16Z</time>
      </trkpt>
      <trkpt lat="41.647839000" lon="2.559617100">
        <ele>338.50</ele>
        <time>2012-10-28T10:39:23Z</time>
      </trkpt>
      <trkpt lat="41.647728000" lon="2.559482100">
        <ele>338.50</ele>
        <time>2012-10-28T10:39:30Z</time>
      </trkpt>
      <trkpt lat="41.647633000" lon="2.559350100">
        <ele>338.50</ele>
        <time>2012-10-28T10:39:37Z</time>
      </trkpt>
      <trkpt lat="41.647476000" lon="2.559265100">
        <ele>338.00</ele>
        <time>2012-10-28T10:39:46Z</time>
      </trkpt>
      <trkpt lat="41.647297000" lon="2.559172100">
        <ele>338.50</ele>
        <time>2012-10-28T10:39:55Z</time>
      </trkpt>
      <trkpt lat="41.647331000" lon="2.559014100">
        <ele>340.00</ele>
        <time>2012-10-28T10:40:02Z</time>
      </trkpt>
      <trkpt lat="41.647381000" lon="2.558981100">
        <ele>339.50</ele>
        <time>2012-10-28T10:40:05Z</time>
      </trkpt>
      <trkpt lat="41.647522000" lon="2.558951100">
        <ele>340.90</ele>
        <time>2012-10-28T10:40:14Z</time>
      </trkpt>
      <trkpt lat="41.647541000" lon="2.558949100">
        <ele>341.40</ele>
        <time>2012-10-28T10:40:16Z</time>
      </trkpt>
      <trkpt lat="41.647686000" lon="2.558922100">
        <ele>343.30</ele>
        <time>2012-10-28T10:40:26Z</time>
      </trkpt>
      <trkpt lat="41.647835000" lon="2.558910100">
        <ele>345.70</ele>
        <time>2012-10-28T10:40:36Z</time>
      </trkpt>
      <trkpt lat="41.647953000" lon="2.558897100">
        <ele>347.20</ele>
        <time>2012-10-28T10:40:45Z</time>
      </trkpt>
      <trkpt lat="41.648071000" lon="2.558861100">
        <ele>349.10</ele>
        <time>2012-10-28T10:40:54Z</time>
      </trkpt>
      <trkpt lat="41.648239000" lon="2.558855100">
        <ele>351.00</ele>
        <time>2012-10-28T10:41:04Z</time>
      </trkpt>
      <trkpt lat="41.648354000" lon="2.558834100">
        <ele>352.00</ele>
        <time>2012-10-28T10:41:11Z</time>
      </trkpt>
      <trkpt lat="41.648460000" lon="2.558817100">
        <ele>352.90</ele>
        <time>2012-10-28T10:41:20Z</time>
      </trkpt>
      <trkpt lat="41.648525000" lon="2.558833100">
        <ele>353.90</ele>
        <time>2012-10-28T10:41:25Z</time>
      </trkpt>
      <trkpt lat="41.648640000" lon="2.558918100">
        <ele>356.30</ele>
        <time>2012-10-28T10:41:32Z</time>
      </trkpt>
      <trkpt lat="41.648651000" lon="2.558931100">
        <ele>357.30</ele>
        <time>2012-10-28T10:41:34Z</time>
      </trkpt>
      <trkpt lat="41.648716000" lon="2.558966100">
        <ele>361.10</ele>
        <time>2012-10-28T10:41:39Z</time>
      </trkpt>
      <trkpt lat="41.648834000" lon="2.558969100">
        <ele>362.10</ele>
        <time>2012-10-28T10:41:46Z</time>
      </trkpt>
      <trkpt lat="41.648949000" lon="2.558906100">
        <ele>362.10</ele>
        <time>2012-10-28T10:41:55Z</time>
      </trkpt>
      <trkpt lat="41.649090000" lon="2.558791100">
        <ele>363.50</ele>
        <time>2012-10-28T10:42:05Z</time>
      </trkpt>
      <trkpt lat="41.649193000" lon="2.558705100">
        <ele>367.40</ele>
        <time>2012-10-28T10:42:14Z</time>
      </trkpt>
      <trkpt lat="41.649334000" lon="2.558670100">
        <ele>369.80</ele>
        <time>2012-10-28T10:42:23Z</time>
      </trkpt>
      <trkpt lat="41.649483000" lon="2.558711100">
        <ele>370.20</ele>
        <time>2012-10-28T10:42:31Z</time>
      </trkpt>
      <trkpt lat="41.649590000" lon="2.558807100">
        <ele>371.70</ele>
        <time>2012-10-28T10:42:40Z</time>
      </trkpt>
      <trkpt lat="41.649712000" lon="2.558872100">
        <ele>374.10</ele>
        <time>2012-10-28T10:42:49Z</time>
      </trkpt>
      <trkpt lat="41.649723000" lon="2.558877100">
        <ele>374.10</ele>
        <time>2012-10-28T10:42:51Z</time>
      </trkpt>
      <trkpt lat="41.649826000" lon="2.558921100">
        <ele>375.50</ele>
        <time>2012-10-28T10:42:59Z</time>
      </trkpt>
      <trkpt lat="41.649963000" lon="2.558973100">
        <ele>377.50</ele>
        <time>2012-10-28T10:43:08Z</time>
      </trkpt>
      <trkpt lat="41.650085000" lon="2.559031100">
        <ele>379.90</ele>
        <time>2012-10-28T10:43:18Z</time>
      </trkpt>
      <trkpt lat="41.650146000" lon="2.559065100">
        <ele>383.70</ele>
        <time>2012-10-28T10:43:24Z</time>
      </trkpt>
      <trkpt lat="41.650249000" lon="2.559121100">
        <ele>386.10</ele>
        <time>2012-10-28T10:43:31Z</time>
      </trkpt>
      <trkpt lat="41.650352000" lon="2.559166100">
        <ele>385.60</ele>
        <time>2012-10-28T10:43:39Z</time>
      </trkpt>
      <trkpt lat="41.650475000" lon="2.559194100">
        <ele>386.10</ele>
        <time>2012-10-28T10:43:48Z</time>
      </trkpt>
      <trkpt lat="41.650608000" lon="2.559242100">
        <ele>387.10</ele>
        <time>2012-10-28T10:43:57Z</time>
      </trkpt>
      <trkpt lat="41.650688000" lon="2.559087100">
        <ele>387.10</ele>
        <time>2012-10-28T10:44:02Z</time>
      </trkpt>
      <trkpt lat="41.650581000" lon="2.558754100">
        <ele>387.10</ele>
        <time>2012-10-28T10:44:11Z</time>
      </trkpt>
      <trkpt lat="41.650497000" lon="2.558415100">
        <ele>387.10</ele>
        <time>2012-10-28T10:44:18Z</time>
      </trkpt>
      <trkpt lat="41.650524000" lon="2.558038100">
        <ele>387.10</ele>
        <time>2012-10-28T10:44:28Z</time>
      </trkpt>
      <trkpt lat="41.650536000" lon="2.557757100">
        <ele>387.10</ele>
        <time>2012-10-28T10:44:35Z</time>
      </trkpt>
      <trkpt lat="41.650539000" lon="2.557390100">
        <ele>387.10</ele>
        <time>2012-10-28T10:44:44Z</time>
      </trkpt>
      <trkpt lat="41.650558000" lon="2.557027100">
        <ele>387.50</ele>
        <time>2012-10-28T10:44:54Z</time>
      </trkpt>
      <trkpt lat="41.650661000" lon="2.556704100">
        <ele>389.50</ele>
        <time>2012-10-28T10:45:05Z</time>
      </trkpt>
      <trkpt lat="41.650772000" lon="2.556517100">
        <ele>390.40</ele>
        <time>2012-10-28T10:45:12Z</time>
      </trkpt>
      <trkpt lat="41.650894000" lon="2.556362100">
        <ele>391.90</ele>
        <time>2012-10-28T10:45:20Z</time>
      </trkpt>
      <trkpt lat="41.651024000" lon="2.556264100">
        <ele>393.30</ele>
        <time>2012-10-28T10:45:29Z</time>
      </trkpt>
      <trkpt lat="41.651188000" lon="2.556159100">
        <ele>394.80</ele>
        <time>2012-10-28T10:45:36Z</time>
      </trkpt>
      <trkpt lat="41.651318000" lon="2.556027100">
        <ele>395.20</ele>
        <time>2012-10-28T10:45:43Z</time>
      </trkpt>
      <trkpt lat="41.651482000" lon="2.555811100">
        <ele>396.20</ele>
        <time>2012-10-28T10:45:52Z</time>
      </trkpt>
      <trkpt lat="41.651684000" lon="2.555556100">
        <ele>397.20</ele>
        <time>2012-10-28T10:46:02Z</time>
      </trkpt>
      <trkpt lat="41.651913000" lon="2.555349100">
        <ele>397.60</ele>
        <time>2012-10-28T10:46:11Z</time>
      </trkpt>
      <trkpt lat="41.652119000" lon="2.555146100">
        <ele>398.60</ele>
        <time>2012-10-28T10:46:21Z</time>
      </trkpt>
      <trkpt lat="41.652248000" lon="2.555033100">
        <ele>399.60</ele>
        <time>2012-10-28T10:46:28Z</time>
      </trkpt>
      <trkpt lat="41.652378000" lon="2.555004100">
        <ele>401.00</ele>
        <time>2012-10-28T10:46:35Z</time>
      </trkpt>
      <trkpt lat="41.652462000" lon="2.554986100">
        <ele>402.00</ele>
        <time>2012-10-28T10:46:39Z</time>
      </trkpt>
      <trkpt lat="41.652565000" lon="2.554844100">
        <ele>402.90</ele>
        <time>2012-10-28T10:46:46Z</time>
      </trkpt>
      <trkpt lat="41.652542000" lon="2.554722100">
        <ele>403.90</ele>
        <time>2012-10-28T10:46:51Z</time>
      </trkpt>
      <trkpt lat="41.652420000" lon="2.554454100">
        <ele>404.90</ele>
        <time>2012-10-28T10:47:00Z</time>
      </trkpt>
      <trkpt lat="41.652275000" lon="2.554312100">
        <ele>405.80</ele>
        <time>2012-10-28T10:47:07Z</time>
      </trkpt>
      <trkpt lat="41.652203000" lon="2.554233100">
        <ele>406.30</ele>
        <time>2012-10-28T10:47:12Z</time>
      </trkpt>
      <trkpt lat="41.652100000" lon="2.553964100">
        <ele>406.80</ele>
        <time>2012-10-28T10:47:19Z</time>
      </trkpt>
      <trkpt lat="41.651928000" lon="2.553844100">
        <ele>406.80</ele>
        <time>2012-10-28T10:47:26Z</time>
      </trkpt>
      <trkpt lat="41.651726000" lon="2.553774100">
        <ele>407.30</ele>
        <time>2012-10-28T10:47:33Z</time>
      </trkpt>
      <trkpt lat="41.651619000" lon="2.553658100">
        <ele>407.30</ele>
        <time>2012-10-28T10:47:38Z</time>
      </trkpt>
      <trkpt lat="41.651680000" lon="2.553433100">
        <ele>407.30</ele>
        <time>2012-10-28T10:47:43Z</time>
      </trkpt>
      <trkpt lat="41.651871000" lon="2.553207100">
        <ele>407.30</ele>
        <time>2012-10-28T10:47:50Z</time>
      </trkpt>
      <trkpt lat="41.651962000" lon="2.552948100">
        <ele>407.30</ele>
        <time>2012-10-28T10:47:57Z</time>
      </trkpt>
      <trkpt lat="41.652008000" lon="2.552734100">
        <ele>407.30</ele>
        <time>2012-10-28T10:48:02Z</time>
      </trkpt>
      <trkpt lat="41.652065000" lon="2.552545100">
        <ele>408.20</ele>
        <time>2012-10-28T10:48:09Z</time>
      </trkpt>
      <trkpt lat="41.652176000" lon="2.552450100">
        <ele>410.10</ele>
        <time>2012-10-28T10:48:16Z</time>
      </trkpt>
      <trkpt lat="41.652199000" lon="2.552457100">
        <ele>410.10</ele>
        <time>2012-10-28T10:48:16Z</time>
      </trkpt>
      <trkpt lat="41.652237000" lon="2.552562100">
        <ele>411.10</ele>
        <time>2012-10-28T10:48:22Z</time>
      </trkpt>
      <trkpt lat="41.652229000" lon="2.552685100">
        <ele>413.00</ele>
        <time>2012-10-28T10:48:27Z</time>
      </trkpt>
      <trkpt lat="41.652225000" lon="2.552729100">
        <ele>415.00</ele>
        <time>2012-10-28T10:48:29Z</time>
      </trkpt>
      <trkpt lat="41.652222000" lon="2.552772100">
        <ele>416.40</ele>
        <time>2012-10-28T10:48:30Z</time>
      </trkpt>
      <trkpt lat="41.652222000" lon="2.552933100">
        <ele>419.30</ele>
        <time>2012-10-28T10:48:37Z</time>
      </trkpt>
      <trkpt lat="41.652252000" lon="2.553060100">
        <ele>419.30</ele>
        <time>2012-10-28T10:48:42Z</time>
      </trkpt>
      <trkpt lat="41.652340000" lon="2.553230100">
        <ele>419.30</ele>
        <time>2012-10-28T10:48:51Z</time>
      </trkpt>
      <trkpt lat="41.652412000" lon="2.553167100">
        <ele>421.20</ele>
        <time>2012-10-28T10:48:58Z</time>
      </trkpt>
      <trkpt lat="41.652431000" lon="2.553030100">
        <ele>423.10</ele>
        <time>2012-10-28T10:49:07Z</time>
      </trkpt>
      <trkpt lat="41.652466000" lon="2.552877100">
        <ele>426.00</ele>
        <time>2012-10-28T10:49:14Z</time>
      </trkpt>
      <trkpt lat="41.652489000" lon="2.552809100">
        <ele>428.90</ele>
        <time>2012-10-28T10:49:19Z</time>
      </trkpt>
      <trkpt lat="41.652534000" lon="2.552678100">
        <ele>430.80</ele>
        <time>2012-10-28T10:49:28Z</time>
      </trkpt>
      <trkpt lat="41.652596000" lon="2.552544100">
        <ele>430.80</ele>
        <time>2012-10-28T10:49:36Z</time>
      </trkpt>
      <trkpt lat="41.652657000" lon="2.552432100">
        <ele>431.80</ele>
        <time>2012-10-28T10:49:45Z</time>
      </trkpt>
      <trkpt lat="41.652725000" lon="2.552336100">
        <ele>432.70</ele>
        <time>2012-10-28T10:49:54Z</time>
      </trkpt>
      <trkpt lat="41.652802000" lon="2.552274100">
        <ele>434.60</ele>
        <time>2012-10-28T10:50:01Z</time>
      </trkpt>
      <trkpt lat="41.652897000" lon="2.552197100">
        <ele>435.60</ele>
        <time>2012-10-28T10:50:08Z</time>
      </trkpt>
      <trkpt lat="41.652985000" lon="2.552134100">
        <ele>437.10</ele>
        <time>2012-10-28T10:50:17Z</time>
      </trkpt>
      <trkpt lat="41.653069000" lon="2.552084100">
        <ele>440.90</ele>
        <time>2012-10-28T10:50:24Z</time>
      </trkpt>
      <trkpt lat="41.653172000" lon="2.552036100">
        <ele>442.80</ele>
        <time>2012-10-28T10:50:32Z</time>
      </trkpt>
      <trkpt lat="41.653271000" lon="2.552015100">
        <ele>442.80</ele>
        <time>2012-10-28T10:50:39Z</time>
      </trkpt>
      <trkpt lat="41.653351000" lon="2.551953100">
        <ele>443.80</ele>
        <time>2012-10-28T10:50:46Z</time>
      </trkpt>
      <trkpt lat="41.653427000" lon="2.551848100">
        <ele>445.20</ele>
        <time>2012-10-28T10:50:53Z</time>
      </trkpt>
      <trkpt lat="41.653439000" lon="2.551832100">
        <ele>446.20</ele>
        <time>2012-10-28T10:50:55Z</time>
      </trkpt>
      <trkpt lat="41.653484000" lon="2.551770100">
        <ele>449.10</ele>
        <time>2012-10-28T10:50:58Z</time>
      </trkpt>
      <trkpt lat="41.653500000" lon="2.551739100">
        <ele>449.50</ele>
        <time>2012-10-28T10:51:00Z</time>
      </trkpt>
      <trkpt lat="41.653500000" lon="2.551682100">
        <ele>450.00</ele>
        <time>2012-10-28T10:51:04Z</time>
      </trkpt>
      <trkpt lat="41.653431000" lon="2.551551100">
        <ele>450.00</ele>
        <time>2012-10-28T10:51:12Z</time>
      </trkpt>
      <trkpt lat="41.653362000" lon="2.551439100">
        <ele>450.00</ele>
        <time>2012-10-28T10:51:21Z</time>
      </trkpt>
      <trkpt lat="41.653336000" lon="2.551329100">
        <ele>450.50</ele>
        <time>2012-10-28T10:51:28Z</time>
      </trkpt>
      <trkpt lat="41.653309000" lon="2.551244100">
        <ele>451.50</ele>
        <time>2012-10-28T10:51:35Z</time>
      </trkpt>
      <trkpt lat="41.653297000" lon="2.551137100">
        <ele>453.90</ele>
        <time>2012-10-28T10:51:40Z</time>
      </trkpt>
      <trkpt lat="41.653267000" lon="2.551045100">
        <ele>457.70</ele>
        <time>2012-10-28T10:51:45Z</time>
      </trkpt>
      <trkpt lat="41.653271000" lon="2.551021100">
        <ele>458.20</ele>
        <time>2012-10-28T10:51:47Z</time>
      </trkpt>
      <trkpt lat="41.653343000" lon="2.550730100">
        <ele>458.20</ele>
        <time>2012-10-28T10:51:56Z</time>
      </trkpt>
      <trkpt lat="41.653362000" lon="2.550669100">
        <ele>456.80</ele>
        <time>2012-10-28T10:52:03Z</time>
      </trkpt>
      <trkpt lat="41.653366000" lon="2.550589100">
        <ele>456.80</ele>
        <time>2012-10-28T10:52:13Z</time>
      </trkpt>
      <trkpt lat="41.653362000" lon="2.550576100">
        <ele>456.80</ele>
        <time>2012-10-28T10:52:15Z</time>
      </trkpt>
      <trkpt lat="41.653347000" lon="2.550508100">
        <ele>455.80</ele>
        <time>2012-10-28T10:52:22Z</time>
      </trkpt>
      <trkpt lat="41.653347000" lon="2.550473100">
        <ele>455.80</ele>
        <time>2012-10-28T10:52:24Z</time>
      </trkpt>
      <trkpt lat="41.653389000" lon="2.550294100">
        <ele>455.30</ele>
        <time>2012-10-28T10:52:29Z</time>
      </trkpt>
      <trkpt lat="41.653458000" lon="2.550065100">
        <ele>454.80</ele>
        <time>2012-10-28T10:52:36Z</time>
      </trkpt>
      <trkpt lat="41.653503000" lon="2.549874100">
        <ele>452.90</ele>
        <time>2012-10-28T10:52:41Z</time>
      </trkpt>
      <trkpt lat="41.653549000" lon="2.549714100">
        <ele>450.00</ele>
        <time>2012-10-28T10:52:43Z</time>
      </trkpt>
      <trkpt lat="41.653702000" lon="2.549502100">
        <ele>446.70</ele>
        <time>2012-10-28T10:52:50Z</time>
      </trkpt>
      <trkpt lat="41.653809000" lon="2.549412100">
        <ele>450.00</ele>
        <time>2012-10-28T10:52:55Z</time>
      </trkpt>
      <trkpt lat="41.653847000" lon="2.549279100">
        <ele>453.40</ele>
        <time>2012-10-28T10:52:57Z</time>
      </trkpt>
      <trkpt lat="41.653877000" lon="2.549177100">
        <ele>454.40</ele>
        <time>2012-10-28T10:53:00Z</time>
      </trkpt>
      <trkpt lat="41.653923000" lon="2.548904100">
        <ele>450.50</ele>
        <time>2012-10-28T10:53:05Z</time>
      </trkpt>
      <trkpt lat="41.653934000" lon="2.548687100">
        <ele>450.50</ele>
        <time>2012-10-28T10:53:12Z</time>
      </trkpt>
      <trkpt lat="41.654049000" lon="2.548540100">
        <ele>453.90</ele>
        <time>2012-10-28T10:53:18Z</time>
      </trkpt>
      <trkpt lat="41.654274000" lon="2.548299100">
        <ele>450.00</ele>
        <time>2012-10-28T10:53:25Z</time>
      </trkpt>
      <trkpt lat="41.654335000" lon="2.548182100">
        <ele>449.10</ele>
        <time>2012-10-28T10:53:28Z</time>
      </trkpt>
      <trkpt lat="41.654537000" lon="2.547953100">
        <ele>449.10</ele>
        <time>2012-10-28T10:53:33Z</time>
      </trkpt>
      <trkpt lat="41.654728000" lon="2.547781100">
        <ele>444.80</ele>
        <time>2012-10-28T10:53:39Z</time>
      </trkpt>
      <trkpt lat="41.654793000" lon="2.547737100">
        <ele>440.90</ele>
        <time>2012-10-28T10:53:42Z</time>
      </trkpt>
      <trkpt lat="41.654900000" lon="2.547678100">
        <ele>437.50</ele>
        <time>2012-10-28T10:53:46Z</time>
      </trkpt>
      <trkpt lat="41.655090000" lon="2.547616100">
        <ele>438.00</ele>
        <time>2012-10-28T10:53:53Z</time>
      </trkpt>
      <trkpt lat="41.655167000" lon="2.547597100">
        <ele>438.00</ele>
        <time>2012-10-28T10:53:56Z</time>
      </trkpt>
      <trkpt lat="41.655319000" lon="2.547528100">
        <ele>438.00</ele>
        <time>2012-10-28T10:54:01Z</time>
      </trkpt>
      <trkpt lat="41.655376000" lon="2.547369100">
        <ele>438.00</ele>
        <time>2012-10-28T10:54:05Z</time>
      </trkpt>
      <trkpt lat="41.655369000" lon="2.547299100">
        <ele>438.00</ele>
        <time>2012-10-28T10:54:08Z</time>
      </trkpt>
      <trkpt lat="41.655350000" lon="2.547156100">
        <ele>438.00</ele>
        <time>2012-10-28T10:54:12Z</time>
      </trkpt>
      <trkpt lat="41.655281000" lon="2.547051100">
        <ele>438.00</ele>
        <time>2012-10-28T10:54:17Z</time>
      </trkpt>
      <trkpt lat="41.655148000" lon="2.546978100">
        <ele>439.00</ele>
        <time>2012-10-28T10:54:24Z</time>
      </trkpt>
      <trkpt lat="41.655029000" lon="2.546842100">
        <ele>439.00</ele>
        <time>2012-10-28T10:54:29Z</time>
      </trkpt>
      <trkpt lat="41.654968000" lon="2.546765100">
        <ele>439.90</ele>
        <time>2012-10-28T10:54:33Z</time>
      </trkpt>
      <trkpt lat="41.654816000" lon="2.546602100">
        <ele>439.90</ele>
        <time>2012-10-28T10:54:36Z</time>
      </trkpt>
      <trkpt lat="41.654598000" lon="2.546381100">
        <ele>437.10</ele>
        <time>2012-10-28T10:54:41Z</time>
      </trkpt>
      <trkpt lat="41.654472000" lon="2.546196100">
        <ele>433.70</ele>
        <time>2012-10-28T10:54:45Z</time>
      </trkpt>
      <trkpt lat="41.654297000" lon="2.546106100">
        <ele>430.30</ele>
        <time>2012-10-28T10:54:48Z</time>
      </trkpt>
      <trkpt lat="41.654034000" lon="2.545949100">
        <ele>433.70</ele>
        <time>2012-10-28T10:54:55Z</time>
      </trkpt>
      <trkpt lat="41.653999000" lon="2.545924100">
        <ele>434.60</ele>
        <time>2012-10-28T10:54:57Z</time>
      </trkpt>
      <trkpt lat="41.653690000" lon="2.545769100">
        <ele>435.10</ele>
        <time>2012-10-28T10:55:04Z</time>
      </trkpt>
      <trkpt lat="41.653641000" lon="2.545744100">
        <ele>435.10</ele>
        <time>2012-10-28T10:55:04Z</time>
      </trkpt>
      <trkpt lat="41.653496000" lon="2.545679100">
        <ele>433.70</ele>
        <time>2012-10-28T10:55:07Z</time>
      </trkpt>
      <trkpt lat="41.653240000" lon="2.545497100">
        <ele>433.20</ele>
        <time>2012-10-28T10:55:14Z</time>
      </trkpt>
      <trkpt lat="41.653072000" lon="2.545394100">
        <ele>432.70</ele>
        <time>2012-10-28T10:55:18Z</time>
      </trkpt>
      <trkpt lat="41.652843000" lon="2.545193100">
        <ele>431.30</ele>
        <time>2012-10-28T10:55:23Z</time>
      </trkpt>
      <trkpt lat="41.652725000" lon="2.544894100">
        <ele>428.90</ele>
        <time>2012-10-28T10:55:28Z</time>
      </trkpt>
      <trkpt lat="41.652531000" lon="2.544681100">
        <ele>425.00</ele>
        <time>2012-10-28T10:55:32Z</time>
      </trkpt>
      <trkpt lat="41.652477000" lon="2.544664100">
        <ele>424.10</ele>
        <time>2012-10-28T10:55:32Z</time>
      </trkpt>
      <trkpt lat="41.652374000" lon="2.544645100">
        <ele>422.60</ele>
        <time>2012-10-28T10:55:35Z</time>
      </trkpt>
      <trkpt lat="41.652020000" lon="2.544677100">
        <ele>423.10</ele>
        <time>2012-10-28T10:55:42Z</time>
      </trkpt>
      <trkpt lat="41.651970000" lon="2.544640100">
        <ele>423.10</ele>
        <time>2012-10-28T10:55:49Z</time>
      </trkpt>
      <trkpt lat="41.652012000" lon="2.544611100">
        <ele>424.10</ele>
        <time>2012-10-28T10:55:51Z</time>
      </trkpt>
      <trkpt lat="41.652199000" lon="2.544509100">
        <ele>426.00</ele>
        <time>2012-10-28T10:56:00Z</time>
      </trkpt>
      <trkpt lat="41.652298000" lon="2.544470100">
        <ele>428.90</ele>
        <time>2012-10-28T10:56:05Z</time>
      </trkpt>
      <trkpt lat="41.652351000" lon="2.544457100">
        <ele>430.80</ele>
        <time>2012-10-28T10:56:08Z</time>
      </trkpt>
      <trkpt lat="41.652424000" lon="2.544426100">
        <ele>430.80</ele>
        <time>2012-10-28T10:56:12Z</time>
      </trkpt>
      <trkpt lat="41.652599000" lon="2.544426100">
        <ele>430.80</ele>
        <time>2012-10-28T10:56:21Z</time>
      </trkpt>
      <trkpt lat="41.652767000" lon="2.544423100">
        <ele>431.30</ele>
        <time>2012-10-28T10:56:29Z</time>
      </trkpt>
      <trkpt lat="41.652988000" lon="2.544411100">
        <ele>434.20</ele>
        <time>2012-10-28T10:56:40Z</time>
      </trkpt>
      <trkpt lat="41.653057000" lon="2.544390100">
        <ele>437.10</ele>
        <time>2012-10-28T10:56:43Z</time>
      </trkpt>
      <trkpt lat="41.653210000" lon="2.544348100">
        <ele>437.50</ele>
        <time>2012-10-28T10:56:52Z</time>
      </trkpt>
      <trkpt lat="41.653351000" lon="2.544360100">
        <ele>438.50</ele>
        <time>2012-10-28T10:57:02Z</time>
      </trkpt>
      <trkpt lat="41.653450000" lon="2.544440100">
        <ele>439.90</ele>
        <time>2012-10-28T10:57:09Z</time>
      </trkpt>
      <trkpt lat="41.653545000" lon="2.544509100">
        <ele>443.30</ele>
        <time>2012-10-28T10:57:16Z</time>
      </trkpt>
      <trkpt lat="41.653618000" lon="2.544569100">
        <ele>445.70</ele>
        <time>2012-10-28T10:57:22Z</time>
      </trkpt>
      <trkpt lat="41.653664000" lon="2.544603100">
        <ele>446.20</ele>
        <time>2012-10-28T10:57:25Z</time>
      </trkpt>
      <trkpt lat="41.653713000" lon="2.544528100">
        <ele>446.20</ele>
        <time>2012-10-28T10:57:32Z</time>
      </trkpt>
      <trkpt lat="41.653748000" lon="2.544371100">
        <ele>447.10</ele>
        <time>2012-10-28T10:57:41Z</time>
      </trkpt>
      <trkpt lat="41.653820000" lon="2.544223100">
        <ele>447.60</ele>
        <time>2012-10-28T10:57:49Z</time>
      </trkpt>
      <trkpt lat="41.653942000" lon="2.543963100">
        <ele>447.60</ele>
        <time>2012-10-28T10:57:58Z</time>
      </trkpt>
      <trkpt lat="41.654041000" lon="2.543814100">
        <ele>448.10</ele>
        <time>2012-10-28T10:58:05Z</time>
      </trkpt>
      <trkpt lat="41.653992000" lon="2.543690100">
        <ele>448.10</ele>
        <time>2012-10-28T10:58:09Z</time>
      </trkpt>
      <trkpt lat="41.653870000" lon="2.543489100">
        <ele>447.60</ele>
        <time>2012-10-28T10:58:12Z</time>
      </trkpt>
      <trkpt lat="41.653679000" lon="2.543215100">
        <ele>441.90</ele>
        <time>2012-10-28T10:58:19Z</time>
      </trkpt>
      <trkpt lat="41.653557000" lon="2.543008100">
        <ele>436.10</ele>
        <time>2012-10-28T10:58:23Z</time>
      </trkpt>
      <trkpt lat="41.653530000" lon="2.542951100">
        <ele>434.60</ele>
        <time>2012-10-28T10:58:24Z</time>
      </trkpt>
      <trkpt lat="41.653400000" lon="2.542760100">
        <ele>429.90</ele>
        <time>2012-10-28T10:58:28Z</time>
      </trkpt>
      <trkpt lat="41.653358000" lon="2.542737100">
        <ele>428.40</ele>
        <time>2012-10-28T10:58:28Z</time>
      </trkpt>
      <trkpt lat="41.653210000" lon="2.542653100">
        <ele>426.50</ele>
        <time>2012-10-28T10:58:31Z</time>
      </trkpt>
      <trkpt lat="41.653118000" lon="2.542574100">
        <ele>424.60</ele>
        <time>2012-10-28T10:58:33Z</time>
      </trkpt>
      <trkpt lat="41.652996000" lon="2.542315100">
        <ele>420.20</ele>
        <time>2012-10-28T10:58:38Z</time>
      </trkpt>
      <trkpt lat="41.652988000" lon="2.542117100">
        <ele>416.90</ele>
        <time>2012-10-28T10:58:42Z</time>
      </trkpt>
      <trkpt lat="41.652939000" lon="2.542002100">
        <ele>415.00</ele>
        <time>2012-10-28T10:58:43Z</time>
      </trkpt>
      <trkpt lat="41.652843000" lon="2.541688100">
        <ele>410.10</ele>
        <time>2012-10-28T10:58:49Z</time>
      </trkpt>
      <trkpt lat="41.652752000" lon="2.541471100">
        <ele>405.30</ele>
        <time>2012-10-28T10:58:54Z</time>
      </trkpt>
      <trkpt lat="41.652676000" lon="2.541449100">
        <ele>403.90</ele>
        <time>2012-10-28T10:58:56Z</time>
      </trkpt>
      <trkpt lat="41.652523000" lon="2.541284100">
        <ele>403.40</ele>
        <time>2012-10-28T10:58:59Z</time>
      </trkpt>
      <trkpt lat="41.652367000" lon="2.541140100">
        <ele>403.40</ele>
        <time>2012-10-28T10:59:03Z</time>
      </trkpt>
      <trkpt lat="41.652283000" lon="2.540894100">
        <ele>402.00</ele>
        <time>2012-10-28T10:59:06Z</time>
      </trkpt>
      <trkpt lat="41.652180000" lon="2.540688100">
        <ele>398.10</ele>
        <time>2012-10-28T10:59:11Z</time>
      </trkpt>
      <trkpt lat="41.652092000" lon="2.540514100">
        <ele>394.30</ele>
        <time>2012-10-28T10:59:15Z</time>
      </trkpt>
      <trkpt lat="41.651905000" lon="2.540483100">
        <ele>391.90</ele>
        <time>2012-10-28T10:59:20Z</time>
      </trkpt>
      <trkpt lat="41.651646000" lon="2.540412100">
        <ele>388.00</ele>
        <time>2012-10-28T10:59:25Z</time>
      </trkpt>
      <trkpt lat="41.651573000" lon="2.540350100">
        <ele>386.60</ele>
        <time>2012-10-28T10:59:27Z</time>
      </trkpt>
      <trkpt lat="41.651482000" lon="2.540236100">
        <ele>383.20</ele>
        <time>2012-10-28T10:59:30Z</time>
      </trkpt>
      <trkpt lat="41.651352000" lon="2.540078100">
        <ele>379.90</ele>
        <time>2012-10-28T10:59:34Z</time>
      </trkpt>
      <trkpt lat="41.651276000" lon="2.540113100">
        <ele>378.40</ele>
        <time>2012-10-28T10:59:41Z</time>
      </trkpt>
      <trkpt lat="41.651299000" lon="2.540215100">
        <ele>378.40</ele>
        <time>2012-10-28T10:59:43Z</time>
      </trkpt>
      <trkpt lat="41.651318000" lon="2.540337100">
        <ele>378.40</ele>
        <time>2012-10-28T10:59:44Z</time>
      </trkpt>
      <trkpt lat="41.651367000" lon="2.540529100">
        <ele>376.50</ele>
        <time>2012-10-28T10:59:48Z</time>
      </trkpt>
      <trkpt lat="41.651398000" lon="2.540819100">
        <ele>372.20</ele>
        <time>2012-10-28T10:59:50Z</time>
      </trkpt>
      <trkpt lat="41.651459000" lon="2.541091100">
        <ele>366.90</ele>
        <time>2012-10-28T10:59:55Z</time>
      </trkpt>
      <trkpt lat="41.651489000" lon="2.541224100">
        <ele>365.90</ele>
        <time>2012-10-28T10:59:58Z</time>
      </trkpt>
      <trkpt lat="41.651379000" lon="2.541329100">
        <ele>369.30</ele>
        <time>2012-10-28T11:00:02Z</time>
      </trkpt>
      <trkpt lat="41.651299000" lon="2.541286100">
        <ele>372.20</ele>
        <time>2012-10-28T11:00:05Z</time>
      </trkpt>
      <trkpt lat="41.651134000" lon="2.541166100">
        <ele>373.60</ele>
        <time>2012-10-28T11:00:14Z</time>
      </trkpt>
      <trkpt lat="41.650970000" lon="2.541126100">
        <ele>373.60</ele>
        <time>2012-10-28T11:00:21Z</time>
      </trkpt>
      <trkpt lat="41.650871000" lon="2.541017100">
        <ele>373.60</ele>
        <time>2012-10-28T11:00:26Z</time>
      </trkpt>
      <trkpt lat="41.650730000" lon="2.540857100">
        <ele>373.60</ele>
        <time>2012-10-28T11:00:35Z</time>
      </trkpt>
      <trkpt lat="41.650703000" lon="2.540844100">
        <ele>373.60</ele>
        <time>2012-10-28T11:00:35Z</time>
      </trkpt>
      <trkpt lat="41.650600000" lon="2.540915100">
        <ele>373.60</ele>
        <time>2012-10-28T11:00:42Z</time>
      </trkpt>
      <trkpt lat="41.650528000" lon="2.541020100">
        <ele>373.60</ele>
        <time>2012-10-28T11:00:47Z</time>
      </trkpt>
      <trkpt lat="41.650417000" lon="2.540927100">
        <ele>373.60</ele>
        <time>2012-10-28T11:00:52Z</time>
      </trkpt>
      <trkpt lat="41.650360000" lon="2.540711100">
        <ele>373.60</ele>
        <time>2012-10-28T11:00:56Z</time>
      </trkpt>
      <trkpt lat="41.650333000" lon="2.540569100">
        <ele>373.60</ele>
        <time>2012-10-28T11:00:58Z</time>
      </trkpt>
      <trkpt lat="41.650261000" lon="2.540170100">
        <ele>370.70</ele>
        <time>2012-10-28T11:01:03Z</time>
      </trkpt>
      <trkpt lat="41.650162000" lon="2.539879100">
        <ele>365.00</ele>
        <time>2012-10-28T11:01:06Z</time>
      </trkpt>
      <trkpt lat="41.650108000" lon="2.539763100">
        <ele>362.10</ele>
        <time>2012-10-28T11:01:08Z</time>
      </trkpt>
      <trkpt lat="41.650066000" lon="2.539661100">
        <ele>359.20</ele>
        <time>2012-10-28T11:01:10Z</time>
      </trkpt>
      <trkpt lat="41.649944000" lon="2.539571100">
        <ele>355.30</ele>
        <time>2012-10-28T11:01:15Z</time>
      </trkpt>
      <trkpt lat="41.649914000" lon="2.539583100">
        <ele>354.90</ele>
        <time>2012-10-28T11:01:15Z</time>
      </trkpt>
      <trkpt lat="41.649719000" lon="2.539686100">
        <ele>352.90</ele>
        <time>2012-10-28T11:01:20Z</time>
      </trkpt>
      <trkpt lat="41.649540000" lon="2.539614100">
        <ele>351.00</ele>
        <time>2012-10-28T11:01:24Z</time>
      </trkpt>
      <trkpt lat="41.649529000" lon="2.539527100">
        <ele>351.00</ele>
        <time>2012-10-28T11:01:25Z</time>
      </trkpt>
      <trkpt lat="41.649498000" lon="2.539396100">
        <ele>354.40</ele>
        <time>2012-10-28T11:01:29Z</time>
      </trkpt>
      <trkpt lat="41.649483000" lon="2.539308100">
        <ele>355.80</ele>
        <time>2012-10-28T11:01:31Z</time>
      </trkpt>
      <trkpt lat="41.649380000" lon="2.539093100">
        <ele>355.30</ele>
        <time>2012-10-28T11:01:36Z</time>
      </trkpt>
      <trkpt lat="41.649246000" lon="2.538848100">
        <ele>348.60</ele>
        <time>2012-10-28T11:01:39Z</time>
      </trkpt>
      <trkpt lat="41.649200000" lon="2.538783100">
        <ele>347.20</ele>
        <time>2012-10-28T11:01:41Z</time>
      </trkpt>
      <trkpt lat="41.649059000" lon="2.538562100">
        <ele>343.30</ele>
        <time>2012-10-28T11:01:43Z</time>
      </trkpt>
      <trkpt lat="41.648869000" lon="2.538326100">
        <ele>339.00</ele>
        <time>2012-10-28T11:01:48Z</time>
      </trkpt>
      <trkpt lat="41.648697000" lon="2.538277100">
        <ele>340.40</ele>
        <time>2012-10-28T11:01:53Z</time>
      </trkpt>
      <trkpt lat="41.648468000" lon="2.538451100">
        <ele>342.40</ele>
        <time>2012-10-28T11:01:57Z</time>
      </trkpt>
      <trkpt lat="41.648266000" lon="2.538509100">
        <ele>338.00</ele>
        <time>2012-10-28T11:02:02Z</time>
      </trkpt>
      <trkpt lat="41.648216000" lon="2.538423100">
        <ele>336.10</ele>
        <time>2012-10-28T11:02:04Z</time>
      </trkpt>
      <trkpt lat="41.648170000" lon="2.538256100">
        <ele>334.20</ele>
        <time>2012-10-28T11:02:07Z</time>
      </trkpt>
      <trkpt lat="41.648148000" lon="2.538141100">
        <ele>334.20</ele>
        <time>2012-10-28T11:02:09Z</time>
      </trkpt>
      <trkpt lat="41.648167000" lon="2.537844100">
        <ele>334.20</ele>
        <time>2012-10-28T11:02:12Z</time>
      </trkpt>
      <trkpt lat="41.648216000" lon="2.537611100">
        <ele>334.20</ele>
        <time>2012-10-28T11:02:16Z</time>
      </trkpt>
      <trkpt lat="41.648266000" lon="2.537440100">
        <ele>334.20</ele>
        <time>2012-10-28T11:02:18Z</time>
      </trkpt>
      <trkpt lat="41.648403000" lon="2.537037100">
        <ele>330.80</ele>
        <time>2012-10-28T11:02:23Z</time>
      </trkpt>
      <trkpt lat="41.648441000" lon="2.536900100">
        <ele>328.00</ele>
        <time>2012-10-28T11:02:25Z</time>
      </trkpt>
      <trkpt lat="41.648388000" lon="2.536753100">
        <ele>324.10</ele>
        <time>2012-10-28T11:02:26Z</time>
      </trkpt>
      <trkpt lat="41.648270000" lon="2.536634100">
        <ele>319.80</ele>
        <time>2012-10-28T11:02:28Z</time>
      </trkpt>
      <trkpt lat="41.648026000" lon="2.536453100">
        <ele>314.00</ele>
        <time>2012-10-28T11:02:33Z</time>
      </trkpt>
      <trkpt lat="41.647968000" lon="2.536420100">
        <ele>312.60</ele>
        <time>2012-10-28T11:02:33Z</time>
      </trkpt>
      <trkpt lat="41.647800000" lon="2.536412100">
        <ele>309.20</ele>
        <time>2012-10-28T11:02:37Z</time>
      </trkpt>
      <trkpt lat="41.647610000" lon="2.536721100">
        <ele>309.20</ele>
        <time>2012-10-28T11:02:44Z</time>
      </trkpt>
      <trkpt lat="41.647385000" lon="2.536610100">
        <ele>308.70</ele>
        <time>2012-10-28T11:02:47Z</time>
      </trkpt>
      <trkpt lat="41.647251000" lon="2.536461100">
        <ele>305.40</ele>
        <time>2012-10-28T11:02:51Z</time>
      </trkpt>
      <trkpt lat="41.647110000" lon="2.536477100">
        <ele>301.00</ele>
        <time>2012-10-28T11:02:54Z</time>
      </trkpt>
      <trkpt lat="41.647072000" lon="2.536507100">
        <ele>299.60</ele>
        <time>2012-10-28T11:02:54Z</time>
      </trkpt>
      <trkpt lat="41.646988000" lon="2.536582100">
        <ele>297.70</ele>
        <time>2012-10-28T11:02:56Z</time>
      </trkpt>
      <trkpt lat="41.646885000" lon="2.536668100">
        <ele>297.20</ele>
        <time>2012-10-28T11:02:58Z</time>
      </trkpt>
      <trkpt lat="41.646782000" lon="2.536719100">
        <ele>297.20</ele>
        <time>2012-10-28T11:03:01Z</time>
      </trkpt>
      <trkpt lat="41.646675000" lon="2.536780100">
        <ele>297.20</ele>
        <time>2012-10-28T11:03:03Z</time>
      </trkpt>
      <trkpt lat="41.646526000" lon="2.536765100">
        <ele>297.20</ele>
        <time>2012-10-28T11:03:06Z</time>
      </trkpt>
      <trkpt lat="41.646549000" lon="2.536671100">
        <ele>296.70</ele>
        <time>2012-10-28T11:03:08Z</time>
      </trkpt>
      <trkpt lat="41.646622000" lon="2.536536100">
        <ele>295.70</ele>
        <time>2012-10-28T11:03:10Z</time>
      </trkpt>
      <trkpt lat="41.646839000" lon="2.536259100">
        <ele>291.90</ele>
        <time>2012-10-28T11:03:15Z</time>
      </trkpt>
      <trkpt lat="41.646957000" lon="2.536111100">
        <ele>289.00</ele>
        <time>2012-10-28T11:03:17Z</time>
      </trkpt>
      <trkpt lat="41.647011000" lon="2.536036100">
        <ele>287.60</ele>
        <time>2012-10-28T11:03:17Z</time>
      </trkpt>
      <trkpt lat="41.647102000" lon="2.535851100">
        <ele>284.70</ele>
        <time>2012-10-28T11:03:19Z</time>
      </trkpt>
      <trkpt lat="41.647263000" lon="2.535356100">
        <ele>279.90</ele>
        <time>2012-10-28T11:03:24Z</time>
      </trkpt>
      <trkpt lat="41.647297000" lon="2.535234100">
        <ele>279.40</ele>
        <time>2012-10-28T11:03:26Z</time>
      </trkpt>
      <trkpt lat="41.647457000" lon="2.534847100">
        <ele>276.50</ele>
        <time>2012-10-28T11:03:29Z</time>
      </trkpt>
      <trkpt lat="41.647560000" lon="2.534414100">
        <ele>272.70</ele>
        <time>2012-10-28T11:03:34Z</time>
      </trkpt>
      <trkpt lat="41.647552000" lon="2.533990100">
        <ele>267.40</ele>
        <time>2012-10-28T11:03:38Z</time>
      </trkpt>
      <trkpt lat="41.647537000" lon="2.533859100">
        <ele>265.90</ele>
        <time>2012-10-28T11:03:38Z</time>
      </trkpt>
      <trkpt lat="41.647369000" lon="2.533365100">
        <ele>262.10</ele>
        <time>2012-10-28T11:03:43Z</time>
      </trkpt>
      <trkpt lat="41.647198000" lon="2.532984100">
        <ele>262.10</ele>
        <time>2012-10-28T11:03:48Z</time>
      </trkpt>
      <trkpt lat="41.647194000" lon="2.532632100">
        <ele>262.10</ele>
        <time>2012-10-28T11:03:52Z</time>
      </trkpt>
      <trkpt lat="41.647217000" lon="2.532457100">
        <ele>262.10</ele>
        <time>2012-10-28T11:03:55Z</time>
      </trkpt>
      <trkpt lat="41.647228000" lon="2.532003100">
        <ele>262.10</ele>
        <time>2012-10-28T11:03:59Z</time>
      </trkpt>
      <trkpt lat="41.647251000" lon="2.531814100">
        <ele>262.10</ele>
        <time>2012-10-28T11:04:02Z</time>
      </trkpt>
      <trkpt lat="41.647240000" lon="2.531269100">
        <ele>257.80</ele>
        <time>2012-10-28T11:04:06Z</time>
      </trkpt>
      <trkpt lat="41.647263000" lon="2.530985100">
        <ele>252.50</ele>
        <time>2012-10-28T11:04:09Z</time>
      </trkpt>
      <trkpt lat="41.647243000" lon="2.530614100">
        <ele>248.20</ele>
        <time>2012-10-28T11:04:14Z</time>
      </trkpt>
      <trkpt lat="41.647209000" lon="2.530114100">
        <ele>251.50</ele>
        <time>2012-10-28T11:04:21Z</time>
      </trkpt>
      <trkpt lat="41.647209000" lon="2.530027100">
        <ele>252.00</ele>
        <time>2012-10-28T11:04:21Z</time>
      </trkpt>
      <trkpt lat="41.647102000" lon="2.529681100">
        <ele>253.00</ele>
        <time>2012-10-28T11:04:27Z</time>
      </trkpt>
      <trkpt lat="41.647045000" lon="2.529567100">
        <ele>253.00</ele>
        <time>2012-10-28T11:04:28Z</time>
      </trkpt>
      <trkpt lat="41.646828000" lon="2.529033100">
        <ele>252.00</ele>
        <time>2012-10-28T11:04:37Z</time>
      </trkpt>
      <trkpt lat="41.646721000" lon="2.528703100">
        <ele>251.50</ele>
        <time>2012-10-28T11:04:41Z</time>
      </trkpt>
      <trkpt lat="41.646576000" lon="2.527817100">
        <ele>250.10</ele>
        <time>2012-10-28T11:04:51Z</time>
      </trkpt>
      <trkpt lat="41.646503000" lon="2.527243100">
        <ele>248.60</ele>
        <time>2012-10-28T11:04:56Z</time>
      </trkpt>
      <trkpt lat="41.646378000" lon="2.526645100">
        <ele>245.30</ele>
        <time>2012-10-28T11:05:03Z</time>
      </trkpt>
      <trkpt lat="41.646431000" lon="2.526178100">
        <ele>240.90</ele>
        <time>2012-10-28T11:05:07Z</time>
      </trkpt>
      <trkpt lat="41.646526000" lon="2.525551100">
        <ele>240.50</ele>
        <time>2012-10-28T11:05:14Z</time>
      </trkpt>
      <trkpt lat="41.646458000" lon="2.524983100">
        <ele>240.50</ele>
        <time>2012-10-28T11:05:21Z</time>
      </trkpt>
      <trkpt lat="41.646446000" lon="2.524906100">
        <ele>240.00</ele>
        <time>2012-10-28T11:05:22Z</time>
      </trkpt>
      <trkpt lat="41.646385000" lon="2.524432100">
        <ele>240.00</ele>
        <time>2012-10-28T11:05:29Z</time>
      </trkpt>
      <trkpt lat="41.646320000" lon="2.524109100">
        <ele>239.50</ele>
        <time>2012-10-28T11:05:33Z</time>
      </trkpt>
      <trkpt lat="41.646206000" lon="2.523591100">
        <ele>239.00</ele>
        <time>2012-10-28T11:05:43Z</time>
      </trkpt>
      <trkpt lat="41.646175000" lon="2.523254100">
        <ele>239.00</ele>
        <time>2012-10-28T11:05:50Z</time>
      </trkpt>
      <trkpt lat="41.646271000" lon="2.522915100">
        <ele>239.00</ele>
        <time>2012-10-28T11:05:55Z</time>
      </trkpt>
      <trkpt lat="41.646370000" lon="2.522432100">
        <ele>239.00</ele>
        <time>2012-10-28T11:06:01Z</time>
      </trkpt>
      <trkpt lat="41.646454000" lon="2.521803100">
        <ele>238.10</ele>
        <time>2012-10-28T11:06:09Z</time>
      </trkpt>
      <trkpt lat="41.646500000" lon="2.521457100">
        <ele>237.10</ele>
        <time>2012-10-28T11:06:16Z</time>
      </trkpt>
      <trkpt lat="41.646557000" lon="2.520991100">
        <ele>237.10</ele>
        <time>2012-10-28T11:06:23Z</time>
      </trkpt>
      <trkpt lat="41.646572000" lon="2.520812100">
        <ele>237.10</ele>
        <time>2012-10-28T11:06:27Z</time>
      </trkpt>
      <trkpt lat="41.646725000" lon="2.520298100">
        <ele>236.10</ele>
        <time>2012-10-28T11:06:34Z</time>
      </trkpt>
      <trkpt lat="41.646797000" lon="2.520009100">
        <ele>235.70</ele>
        <time>2012-10-28T11:06:37Z</time>
      </trkpt>
      <trkpt lat="41.646873000" lon="2.519482100">
        <ele>232.30</ele>
        <time>2012-10-28T11:06:41Z</time>
      </trkpt>
      <trkpt lat="41.646877000" lon="2.519377100">
        <ele>231.30</ele>
        <time>2012-10-28T11:06:42Z</time>
      </trkpt>
      <trkpt lat="41.646851000" lon="2.519082100">
        <ele>228.00</ele>
        <time>2012-10-28T11:06:46Z</time>
      </trkpt>
      <trkpt lat="41.646900000" lon="2.518779100">
        <ele>225.10</ele>
        <time>2012-10-28T11:06:49Z</time>
      </trkpt>
      <trkpt lat="41.647007000" lon="2.518546100">
        <ele>225.10</ele>
        <time>2012-10-28T11:06:53Z</time>
      </trkpt>
      <trkpt lat="41.647121000" lon="2.518180100">
        <ele>225.10</ele>
        <time>2012-10-28T11:06:56Z</time>
      </trkpt>
      <trkpt lat="41.647160000" lon="2.517918100">
        <ele>225.10</ele>
        <time>2012-10-28T11:07:00Z</time>
      </trkpt>
      <trkpt lat="41.647163000" lon="2.517749100">
        <ele>224.60</ele>
        <time>2012-10-28T11:07:02Z</time>
      </trkpt>
      <trkpt lat="41.647144000" lon="2.517384100">
        <ele>224.10</ele>
        <time>2012-10-28T11:07:05Z</time>
      </trkpt>
      <trkpt lat="41.646927000" lon="2.516617100">
        <ele>224.10</ele>
        <time>2012-10-28T11:07:17Z</time>
      </trkpt>
      <trkpt lat="41.646656000" lon="2.516171100">
        <ele>223.60</ele>
        <time>2012-10-28T11:07:28Z</time>
      </trkpt>
      <trkpt lat="41.646423000" lon="2.515847100">
        <ele>225.10</ele>
        <time>2012-10-28T11:07:35Z</time>
      </trkpt>
      <trkpt lat="41.646400000" lon="2.515808100">
        <ele>225.10</ele>
        <time>2012-10-28T11:07:35Z</time>
      </trkpt>
      <trkpt lat="41.646240000" lon="2.515628100">
        <ele>225.10</ele>
        <time>2012-10-28T11:07:40Z</time>
      </trkpt>
      <trkpt lat="41.646072000" lon="2.515681100">
        <ele>225.10</ele>
        <time>2012-10-28T11:07:45Z</time>
      </trkpt>
      <trkpt lat="41.646023000" lon="2.515686100">
        <ele>223.20</ele>
        <time>2012-10-28T11:07:47Z</time>
      </trkpt>
      <trkpt lat="41.645935000" lon="2.515711100">
        <ele>222.70</ele>
        <time>2012-10-28T11:07:52Z</time>
      </trkpt>
      <trkpt lat="41.645878000" lon="2.515787100">
        <ele>221.70</ele>
        <time>2012-10-28T11:07:57Z</time>
      </trkpt>
      <trkpt lat="41.645866000" lon="2.515795100">
        <ele>221.70</ele>
        <time>2012-10-28T11:07:59Z</time>
      </trkpt>
      <trkpt lat="41.645763000" lon="2.515788100">
        <ele>220.30</ele>
        <time>2012-10-28T11:08:04Z</time>
      </trkpt>
      <trkpt lat="41.645702000" lon="2.515737100">
        <ele>220.30</ele>
        <time>2012-10-28T11:08:11Z</time>
      </trkpt>
      <trkpt lat="41.645580000" lon="2.515626100">
        <ele>220.30</ele>
        <time>2012-10-28T11:08:18Z</time>
      </trkpt>
      <trkpt lat="41.645447000" lon="2.515470100">
        <ele>221.70</ele>
        <time>2012-10-28T11:08:27Z</time>
      </trkpt>
      <trkpt lat="41.645306000" lon="2.515335100">
        <ele>223.20</ele>
        <time>2012-10-28T11:08:34Z</time>
      </trkpt>
      <trkpt lat="41.645164000" lon="2.515063100">
        <ele>224.60</ele>
        <time>2012-10-28T11:08:43Z</time>
      </trkpt>
      <trkpt lat="41.645012000" lon="2.514875100">
        <ele>226.10</ele>
        <time>2012-10-28T11:08:53Z</time>
      </trkpt>
      <trkpt lat="41.644924000" lon="2.514792100">
        <ele>228.00</ele>
        <time>2012-10-28T11:09:00Z</time>
      </trkpt>
      <trkpt lat="41.644859000" lon="2.514736100">
        <ele>230.90</ele>
        <time>2012-10-28T11:09:07Z</time>
      </trkpt>
      <trkpt lat="41.644817000" lon="2.514697100">
        <ele>234.20</ele>
        <time>2012-10-28T11:09:11Z</time>
      </trkpt>
      <trkpt lat="41.644718000" lon="2.514621100">
        <ele>234.70</ele>
        <time>2012-10-28T11:09:19Z</time>
      </trkpt>
      <trkpt lat="41.644588000" lon="2.514592100">
        <ele>234.70</ele>
        <time>2012-10-28T11:09:26Z</time>
      </trkpt>
      <trkpt lat="41.644451000" lon="2.514597100">
        <ele>234.70</ele>
        <time>2012-10-28T11:09:35Z</time>
      </trkpt>
      <trkpt lat="41.644341000" lon="2.514613100">
        <ele>236.10</ele>
        <time>2012-10-28T11:09:42Z</time>
      </trkpt>
      <trkpt lat="41.644196000" lon="2.514602100">
        <ele>236.10</ele>
        <time>2012-10-28T11:09:49Z</time>
      </trkpt>
      <trkpt lat="41.644047000" lon="2.514591100">
        <ele>238.10</ele>
        <time>2012-10-28T11:09:58Z</time>
      </trkpt>
      <trkpt lat="41.643887000" lon="2.514560100">
        <ele>241.90</ele>
        <time>2012-10-28T11:10:08Z</time>
      </trkpt>
      <trkpt lat="41.643818000" lon="2.514542100">
        <ele>245.30</ele>
        <time>2012-10-28T11:10:12Z</time>
      </trkpt>
      <trkpt lat="41.643764000" lon="2.514534100">
        <ele>247.20</ele>
        <time>2012-10-28T11:10:15Z</time>
      </trkpt>
      <trkpt lat="41.643608000" lon="2.514503100">
        <ele>247.20</ele>
        <time>2012-10-28T11:10:24Z</time>
      </trkpt>
      <trkpt lat="41.643494000" lon="2.514473100">
        <ele>247.20</ele>
        <time>2012-10-28T11:10:32Z</time>
      </trkpt>
      <trkpt lat="41.643345000" lon="2.514410100">
        <ele>247.70</ele>
        <time>2012-10-28T11:10:41Z</time>
      </trkpt>
      <trkpt lat="41.643185000" lon="2.514358100">
        <ele>248.60</ele>
        <time>2012-10-28T11:10:52Z</time>
      </trkpt>
      <trkpt lat="41.643066000" lon="2.514328100">
        <ele>250.60</ele>
        <time>2012-10-28T11:11:00Z</time>
      </trkpt>
      <trkpt lat="41.642944000" lon="2.514283100">
        <ele>252.50</ele>
        <time>2012-10-28T11:11:07Z</time>
      </trkpt>
      <trkpt lat="41.642765000" lon="2.514179100">
        <ele>253.40</ele>
        <time>2012-10-28T11:11:16Z</time>
      </trkpt>
      <trkpt lat="41.642643000" lon="2.514081100">
        <ele>254.90</ele>
        <time>2012-10-28T11:11:25Z</time>
      </trkpt>
      <trkpt lat="41.642521000" lon="2.513965100">
        <ele>256.80</ele>
        <time>2012-10-28T11:11:35Z</time>
      </trkpt>
      <trkpt lat="41.642387000" lon="2.513866100">
        <ele>257.80</ele>
        <time>2012-10-28T11:11:44Z</time>
      </trkpt>
      <trkpt lat="41.642292000" lon="2.513770100">
        <ele>259.20</ele>
        <time>2012-10-28T11:11:51Z</time>
      </trkpt>
      <trkpt lat="41.642189000" lon="2.513659100">
        <ele>260.20</ele>
        <time>2012-10-28T11:11:58Z</time>
      </trkpt>
      <trkpt lat="41.642094000" lon="2.513555100">
        <ele>262.10</ele>
        <time>2012-10-28T11:12:08Z</time>
      </trkpt>
      <trkpt lat="41.642006000" lon="2.513441100">
        <ele>263.10</ele>
        <time>2012-10-28T11:12:15Z</time>
      </trkpt>
      <trkpt lat="41.641922000" lon="2.513334100">
        <ele>265.00</ele>
        <time>2012-10-28T11:12:24Z</time>
      </trkpt>
      <trkpt lat="41.641827000" lon="2.513219100">
        <ele>266.90</ele>
        <time>2012-10-28T11:12:34Z</time>
      </trkpt>
      <trkpt lat="41.641766000" lon="2.513113100">
        <ele>268.40</ele>
        <time>2012-10-28T11:12:41Z</time>
      </trkpt>
      <trkpt lat="41.641705000" lon="2.512996100">
        <ele>269.80</ele>
        <time>2012-10-28T11:12:50Z</time>
      </trkpt>
      <trkpt lat="41.641632000" lon="2.512865100">
        <ele>271.20</ele>
        <time>2012-10-28T11:12:59Z</time>
      </trkpt>
      <trkpt lat="41.641602000" lon="2.512781100">
        <ele>272.70</ele>
        <time>2012-10-28T11:13:06Z</time>
      </trkpt>
      <trkpt lat="41.641533000" lon="2.512747100">
        <ele>273.60</ele>
        <time>2012-10-28T11:13:13Z</time>
      </trkpt>
      <trkpt lat="41.641502000" lon="2.512769100">
        <ele>274.60</ele>
        <time>2012-10-28T11:13:16Z</time>
      </trkpt>
      <trkpt lat="41.641460000" lon="2.512846100">
        <ele>275.60</ele>
        <time>2012-10-28T11:13:25Z</time>
      </trkpt>
      <trkpt lat="41.641449000" lon="2.512883100">
        <ele>276.00</ele>
        <time>2012-10-28T11:13:28Z</time>
      </trkpt>
      <trkpt lat="41.641453000" lon="2.513048100">
        <ele>278.00</ele>
        <time>2012-10-28T11:13:39Z</time>
      </trkpt>
      <trkpt lat="41.641479000" lon="2.513193100">
        <ele>278.40</ele>
        <time>2012-10-28T11:13:46Z</time>
      </trkpt>
      <trkpt lat="41.641479000" lon="2.513306100">
        <ele>279.40</ele>
        <time>2012-10-28T11:13:53Z</time>
      </trkpt>
      <trkpt lat="41.641418000" lon="2.513452100">
        <ele>281.30</ele>
        <time>2012-10-28T11:14:01Z</time>
      </trkpt>
      <trkpt lat="41.641335000" lon="2.513552100">
        <ele>282.30</ele>
        <time>2012-10-28T11:14:10Z</time>
      </trkpt>
      <trkpt lat="41.641266000" lon="2.513615100">
        <ele>283.20</ele>
        <time>2012-10-28T11:14:15Z</time>
      </trkpt>
      <trkpt lat="41.641205000" lon="2.513592100">
        <ele>284.20</ele>
        <time>2012-10-28T11:14:19Z</time>
      </trkpt>
      <trkpt lat="41.641197000" lon="2.513498100">
        <ele>284.70</ele>
        <time>2012-10-28T11:14:26Z</time>
      </trkpt>
      <trkpt lat="41.641262000" lon="2.513339100">
        <ele>286.60</ele>
        <time>2012-10-28T11:14:36Z</time>
      </trkpt>
      <trkpt lat="41.641285000" lon="2.513189100">
        <ele>288.00</ele>
        <time>2012-10-28T11:14:43Z</time>
      </trkpt>
      <trkpt lat="41.641281000" lon="2.513090100">
        <ele>289.00</ele>
        <time>2012-10-28T11:14:50Z</time>
      </trkpt>
      <trkpt lat="41.641224000" lon="2.513075100">
        <ele>290.50</ele>
        <time>2012-10-28T11:14:57Z</time>
      </trkpt>
      <trkpt lat="41.641178000" lon="2.513155100">
        <ele>291.40</ele>
        <time>2012-10-28T11:15:04Z</time>
      </trkpt>
      <trkpt lat="41.641167000" lon="2.513199100">
        <ele>291.90</ele>
        <time>2012-10-28T11:15:08Z</time>
      </trkpt>
      <trkpt lat="41.641090000" lon="2.513298100">
        <ele>293.80</ele>
        <time>2012-10-28T11:15:16Z</time>
      </trkpt>
      <trkpt lat="41.641003000" lon="2.513361100">
        <ele>295.70</ele>
        <time>2012-10-28T11:15:23Z</time>
      </trkpt>
      <trkpt lat="41.640942000" lon="2.513409100">
        <ele>297.20</ele>
        <time>2012-10-28T11:15:29Z</time>
      </trkpt>
      <trkpt lat="41.640888000" lon="2.513459100">
        <ele>300.50</ele>
        <time>2012-10-28T11:15:34Z</time>
      </trkpt>
      <trkpt lat="41.640812000" lon="2.513560100">
        <ele>302.00</ele>
        <time>2012-10-28T11:15:41Z</time>
      </trkpt>
      <trkpt lat="41.640724000" lon="2.513742100">
        <ele>302.00</ele>
        <time>2012-10-28T11:15:51Z</time>
      </trkpt>
      <trkpt lat="41.640743000" lon="2.513894100">
        <ele>302.00</ele>
        <time>2012-10-28T11:15:58Z</time>
      </trkpt>
      <trkpt lat="41.640797000" lon="2.514080100">
        <ele>302.50</ele>
        <time>2012-10-28T11:16:05Z</time>
      </trkpt>
      <trkpt lat="41.640785000" lon="2.514279100">
        <ele>303.40</ele>
        <time>2012-10-28T11:16:14Z</time>
      </trkpt>
      <trkpt lat="41.640747000" lon="2.514474100">
        <ele>303.90</ele>
        <time>2012-10-28T11:16:21Z</time>
      </trkpt>
      <trkpt lat="41.640705000" lon="2.514690100">
        <ele>304.40</ele>
        <time>2012-10-28T11:16:28Z</time>
      </trkpt>
      <trkpt lat="41.640656000" lon="2.514826100">
        <ele>305.40</ele>
        <time>2012-10-28T11:16:35Z</time>
      </trkpt>
      <trkpt lat="41.640526000" lon="2.514855100">
        <ele>306.80</ele>
        <time>2012-10-28T11:16:43Z</time>
      </trkpt>
      <trkpt lat="41.640415000" lon="2.514746100">
        <ele>307.30</ele>
        <time>2012-10-28T11:16:52Z</time>
      </trkpt>
      <trkpt lat="41.640324000" lon="2.514574100">
        <ele>308.20</ele>
        <time>2012-10-28T11:16:59Z</time>
      </trkpt>
      <trkpt lat="41.640228000" lon="2.514390100">
        <ele>309.20</ele>
        <time>2012-10-28T11:17:08Z</time>
      </trkpt>
      <trkpt lat="41.640083000" lon="2.514288100">
        <ele>310.60</ele>
        <time>2012-10-28T11:17:17Z</time>
      </trkpt>
      <trkpt lat="41.639977000" lon="2.514313100">
        <ele>312.10</ele>
        <time>2012-10-28T11:17:25Z</time>
      </trkpt>
      <trkpt lat="41.639881000" lon="2.514405100">
        <ele>314.50</ele>
        <time>2012-10-28T11:17:32Z</time>
      </trkpt>
      <trkpt lat="41.639824000" lon="2.514469100">
        <ele>317.40</ele>
        <time>2012-10-28T11:17:36Z</time>
      </trkpt>
      <trkpt lat="41.639683000" lon="2.514621100">
        <ele>320.30</ele>
        <time>2012-10-28T11:17:44Z</time>
      </trkpt>
      <trkpt lat="41.639599000" lon="2.514740100">
        <ele>320.30</ele>
        <time>2012-10-28T11:17:50Z</time>
      </trkpt>
      <trkpt lat="41.639484000" lon="2.514947100">
        <ele>320.30</ele>
        <time>2012-10-28T11:18:00Z</time>
      </trkpt>
      <trkpt lat="41.639458000" lon="2.514970100">
        <ele>320.70</ele>
        <time>2012-10-28T11:18:02Z</time>
      </trkpt>
      <trkpt lat="41.639271000" lon="2.514937100">
        <ele>321.70</ele>
        <time>2012-10-28T11:18:12Z</time>
      </trkpt>
      <trkpt lat="41.639111000" lon="2.514919100">
        <ele>322.20</ele>
        <time>2012-10-28T11:18:21Z</time>
      </trkpt>
      <trkpt lat="41.639091000" lon="2.514921100">
        <ele>322.20</ele>
        <time>2012-10-28T11:18:21Z</time>
      </trkpt>
      <trkpt lat="41.639061000" lon="2.514938100">
        <ele>322.20</ele>
        <time>2012-10-28T11:18:23Z</time>
      </trkpt>
      <trkpt lat="41.638943000" lon="2.515078100">
        <ele>323.60</ele>
        <time>2012-10-28T11:18:33Z</time>
      </trkpt>
      <trkpt lat="41.638805000" lon="2.515259100">
        <ele>324.60</ele>
        <time>2012-10-28T11:18:40Z</time>
      </trkpt>
      <trkpt lat="41.638695000" lon="2.515460100">
        <ele>325.10</ele>
        <time>2012-10-28T11:18:49Z</time>
      </trkpt>
      <trkpt lat="41.638561000" lon="2.515565100">
        <ele>326.50</ele>
        <time>2012-10-28T11:18:56Z</time>
      </trkpt>
      <trkpt lat="41.638538000" lon="2.515562100">
        <ele>326.50</ele>
        <time>2012-10-28T11:18:58Z</time>
      </trkpt>
      <trkpt lat="41.638371000" lon="2.515391100">
        <ele>327.50</ele>
        <time>2012-10-28T11:19:06Z</time>
      </trkpt>
      <trkpt lat="41.638149000" lon="2.515227100">
        <ele>328.40</ele>
        <time>2012-10-28T11:19:15Z</time>
      </trkpt>
      <trkpt lat="41.637928000" lon="2.515131100">
        <ele>329.40</ele>
        <time>2012-10-28T11:19:22Z</time>
      </trkpt>
      <trkpt lat="41.637711000" lon="2.515123100">
        <ele>329.40</ele>
        <time>2012-10-28T11:19:31Z</time>
      </trkpt>
      <trkpt lat="41.637497000" lon="2.515116100">
        <ele>330.80</ele>
        <time>2012-10-28T11:19:38Z</time>
      </trkpt>
      <trkpt lat="41.637157000" lon="2.515350100">
        <ele>330.80</ele>
        <time>2012-10-28T11:19:46Z</time>
      </trkpt>
      <trkpt lat="41.637012000" lon="2.515391100">
        <ele>330.80</ele>
        <time>2012-10-28T11:19:48Z</time>
      </trkpt>
      <trkpt lat="41.636776000" lon="2.515404100">
        <ele>330.80</ele>
        <time>2012-10-28T11:19:55Z</time>
      </trkpt>
      <trkpt lat="41.636600000" lon="2.515380100">
        <ele>331.30</ele>
        <time>2012-10-28T11:20:02Z</time>
      </trkpt>
      <trkpt lat="41.636444000" lon="2.515352100">
        <ele>331.30</ele>
        <time>2012-10-28T11:20:09Z</time>
      </trkpt>
      <trkpt lat="41.636353000" lon="2.515296100">
        <ele>332.30</ele>
        <time>2012-10-28T11:20:16Z</time>
      </trkpt>
      <trkpt lat="41.636326000" lon="2.515263100">
        <ele>332.80</ele>
        <time>2012-10-28T11:20:18Z</time>
      </trkpt>
      <trkpt lat="41.636208000" lon="2.515141100">
        <ele>334.20</ele>
        <time>2012-10-28T11:20:25Z</time>
      </trkpt>
      <trkpt lat="41.636055000" lon="2.515023100">
        <ele>336.60</ele>
        <time>2012-10-28T11:20:35Z</time>
      </trkpt>
      <trkpt lat="41.635971000" lon="2.514998100">
        <ele>340.40</ele>
        <time>2012-10-28T11:20:40Z</time>
      </trkpt>
      <trkpt lat="41.635868000" lon="2.514980100">
        <ele>342.40</ele>
        <time>2012-10-28T11:20:47Z</time>
      </trkpt>
      <trkpt lat="41.635719000" lon="2.514977100">
        <ele>342.40</ele>
        <time>2012-10-28T11:20:56Z</time>
      </trkpt>
      <trkpt lat="41.635601000" lon="2.515017100">
        <ele>342.40</ele>
        <time>2012-10-28T11:21:03Z</time>
      </trkpt>
      <trkpt lat="41.635498000" lon="2.515133100">
        <ele>343.30</ele>
        <time>2012-10-28T11:21:12Z</time>
      </trkpt>
      <trkpt lat="41.635452000" lon="2.515185100">
        <ele>346.70</ele>
        <time>2012-10-28T11:21:15Z</time>
      </trkpt>
      <trkpt lat="41.635410000" lon="2.515280100">
        <ele>350.50</ele>
        <time>2012-10-28T11:21:20Z</time>
      </trkpt>
      <trkpt lat="41.635399000" lon="2.515316100">
        <ele>351.00</ele>
        <time>2012-10-28T11:21:22Z</time>
      </trkpt>
      <trkpt lat="41.635303000" lon="2.515347100">
        <ele>350.50</ele>
        <time>2012-10-28T11:21:31Z</time>
      </trkpt>
      <trkpt lat="41.635292000" lon="2.515341100">
        <ele>350.50</ele>
        <time>2012-10-28T11:21:31Z</time>
      </trkpt>
      <trkpt lat="41.635269000" lon="2.515317100">
        <ele>350.50</ele>
        <time>2012-10-28T11:21:34Z</time>
      </trkpt>
      <trkpt lat="41.635262000" lon="2.515165100">
        <ele>351.00</ele>
        <time>2012-10-28T11:21:45Z</time>
      </trkpt>
      <trkpt lat="41.635262000" lon="2.515018100">
        <ele>353.90</ele>
        <time>2012-10-28T11:21:55Z</time>
      </trkpt>
      <trkpt lat="41.635262000" lon="2.514962100">
        <ele>357.30</ele>
        <time>2012-10-28T11:21:59Z</time>
      </trkpt>
      <trkpt lat="41.635208000" lon="2.514856100">
        <ele>359.70</ele>
        <time>2012-10-28T11:22:06Z</time>
      </trkpt>
      <trkpt lat="41.635147000" lon="2.514767100">
        <ele>359.70</ele>
        <time>2012-10-28T11:22:14Z</time>
      </trkpt>
      <trkpt lat="41.635086000" lon="2.514722100">
        <ele>359.70</ele>
        <time>2012-10-28T11:22:21Z</time>
      </trkpt>
      <trkpt lat="41.634953000" lon="2.514706100">
        <ele>361.10</ele>
        <time>2012-10-28T11:22:32Z</time>
      </trkpt>
      <trkpt lat="41.634815000" lon="2.514663100">
        <ele>362.50</ele>
        <time>2012-10-28T11:22:42Z</time>
      </trkpt>
      <trkpt lat="41.634708000" lon="2.514664100">
        <ele>363.50</ele>
        <time>2012-10-28T11:22:51Z</time>
      </trkpt>
      <trkpt lat="41.634598000" lon="2.514649100">
        <ele>366.90</ele>
        <time>2012-10-28T11:22:58Z</time>
      </trkpt>
      <trkpt lat="41.634541000" lon="2.514659100">
        <ele>369.30</ele>
        <time>2012-10-28T11:23:01Z</time>
      </trkpt>
      <trkpt lat="41.634418000" lon="2.514750100">
        <ele>369.30</ele>
        <time>2012-10-28T11:23:10Z</time>
      </trkpt>
      <trkpt lat="41.634335000" lon="2.514794100">
        <ele>369.30</ele>
        <time>2012-10-28T11:23:17Z</time>
      </trkpt>
      <trkpt lat="41.634220000" lon="2.514791100">
        <ele>369.30</ele>
        <time>2012-10-28T11:23:26Z</time>
      </trkpt>
      <trkpt lat="41.634106000" lon="2.514793100">
        <ele>369.80</ele>
        <time>2012-10-28T11:23:33Z</time>
      </trkpt>
      <trkpt lat="41.633991000" lon="2.514762100">
        <ele>371.70</ele>
        <time>2012-10-28T11:23:40Z</time>
      </trkpt>
      <trkpt lat="41.633854000" lon="2.514737100">
        <ele>373.10</ele>
        <time>2012-10-28T11:23:48Z</time>
      </trkpt>
      <trkpt lat="41.633751000" lon="2.514773100">
        <ele>374.10</ele>
        <time>2012-10-28T11:23:55Z</time>
      </trkpt>
      <trkpt lat="41.633640000" lon="2.514886100">
        <ele>375.50</ele>
        <time>2012-10-28T11:24:02Z</time>
      </trkpt>
      <trkpt lat="41.633514000" lon="2.514988100">
        <ele>376.50</ele>
        <time>2012-10-28T11:24:09Z</time>
      </trkpt>
      <trkpt lat="41.633350000" lon="2.515032100">
        <ele>378.40</ele>
        <time>2012-10-28T11:24:18Z</time>
      </trkpt>
      <trkpt lat="41.633221000" lon="2.515029100">
        <ele>379.40</ele>
        <time>2012-10-28T11:24:25Z</time>
      </trkpt>
      <trkpt lat="41.633068000" lon="2.515023100">
        <ele>380.30</ele>
        <time>2012-10-28T11:24:32Z</time>
      </trkpt>
      <trkpt lat="41.632896000" lon="2.514979100">
        <ele>382.30</ele>
        <time>2012-10-28T11:24:41Z</time>
      </trkpt>
      <trkpt lat="41.632748000" lon="2.514906100">
        <ele>383.70</ele>
        <time>2012-10-28T11:24:49Z</time>
      </trkpt>
      <trkpt lat="41.632645000" lon="2.514818100">
        <ele>384.20</ele>
        <time>2012-10-28T11:24:56Z</time>
      </trkpt>
      <trkpt lat="41.632481000" lon="2.514701100">
        <ele>386.60</ele>
        <time>2012-10-28T11:25:07Z</time>
      </trkpt>
      <trkpt lat="41.632305000" lon="2.514613100">
        <ele>388.00</ele>
        <time>2012-10-28T11:25:17Z</time>
      </trkpt>
      <trkpt lat="41.632221000" lon="2.514596100">
        <ele>391.40</ele>
        <time>2012-10-28T11:25:24Z</time>
      </trkpt>
      <trkpt lat="41.632099000" lon="2.514594100">
        <ele>393.80</ele>
        <time>2012-10-28T11:25:31Z</time>
      </trkpt>
      <trkpt lat="41.631981000" lon="2.514600100">
        <ele>393.80</ele>
        <time>2012-10-28T11:25:38Z</time>
      </trkpt>
      <trkpt lat="41.631851000" lon="2.514621100">
        <ele>393.80</ele>
        <time>2012-10-28T11:25:47Z</time>
      </trkpt>
      <trkpt lat="41.631729000" lon="2.514640100">
        <ele>394.80</ele>
        <time>2012-10-28T11:25:54Z</time>
      </trkpt>
      <trkpt lat="41.631607000" lon="2.514615100">
        <ele>395.20</ele>
        <time>2012-10-28T11:26:01Z</time>
      </trkpt>
      <trkpt lat="41.631416000" lon="2.514462100">
        <ele>395.20</ele>
        <time>2012-10-28T11:26:06Z</time>
      </trkpt>
      <trkpt lat="41.631268000" lon="2.514267100">
        <ele>395.20</ele>
        <time>2012-10-28T11:26:13Z</time>
      </trkpt>
      <trkpt lat="41.631111000" lon="2.514189100">
        <ele>395.20</ele>
        <time>2012-10-28T11:26:18Z</time>
      </trkpt>
      <trkpt lat="41.631073000" lon="2.514183100">
        <ele>395.20</ele>
        <time>2012-10-28T11:26:20Z</time>
      </trkpt>
      <trkpt lat="41.630844000" lon="2.514182100">
        <ele>395.20</ele>
        <time>2012-10-28T11:26:25Z</time>
      </trkpt>
      <trkpt lat="41.630596000" lon="2.514040100">
        <ele>393.80</ele>
        <time>2012-10-28T11:26:29Z</time>
      </trkpt>
      <trkpt lat="41.630478000" lon="2.514009100">
        <ele>390.40</ele>
        <time>2012-10-28T11:26:32Z</time>
      </trkpt>
      <trkpt lat="41.630371000" lon="2.514071100">
        <ele>386.60</ele>
        <time>2012-10-28T11:26:36Z</time>
      </trkpt>
      <trkpt lat="41.630211000" lon="2.514195100">
        <ele>383.70</ele>
        <time>2012-10-28T11:26:39Z</time>
      </trkpt>
      <trkpt lat="41.630093000" lon="2.514272100">
        <ele>382.70</ele>
        <time>2012-10-28T11:26:41Z</time>
      </trkpt>
      <trkpt lat="41.629925000" lon="2.514265100">
        <ele>382.70</ele>
        <time>2012-10-28T11:26:44Z</time>
      </trkpt>
      <trkpt lat="41.629906000" lon="2.514228100">
        <ele>382.70</ele>
        <time>2012-10-28T11:26:46Z</time>
      </trkpt>
      <trkpt lat="41.629757000" lon="2.514080100">
        <ele>387.50</ele>
        <time>2012-10-28T11:26:53Z</time>
      </trkpt>
      <trkpt lat="41.629608000" lon="2.514036100">
        <ele>387.50</ele>
        <time>2012-10-28T11:26:58Z</time>
      </trkpt>
      <trkpt lat="41.629494000" lon="2.513847100">
        <ele>386.60</ele>
        <time>2012-10-28T11:27:02Z</time>
      </trkpt>
      <trkpt lat="41.629459000" lon="2.513778100">
        <ele>386.60</ele>
        <time>2012-10-28T11:27:04Z</time>
      </trkpt>
      <trkpt lat="41.629353000" lon="2.513356100">
        <ele>381.30</ele>
        <time>2012-10-28T11:27:09Z</time>
      </trkpt>
      <trkpt lat="41.629288000" lon="2.513040100">
        <ele>378.90</ele>
        <time>2012-10-28T11:27:14Z</time>
      </trkpt>
      <trkpt lat="41.629150000" lon="2.512893100">
        <ele>382.30</ele>
        <time>2012-10-28T11:27:19Z</time>
      </trkpt>
      <trkpt lat="41.629135000" lon="2.512848100">
        <ele>381.80</ele>
        <time>2012-10-28T11:27:21Z</time>
      </trkpt>
      <trkpt lat="41.629139000" lon="2.512629100">
        <ele>382.30</ele>
        <time>2012-10-28T11:27:28Z</time>
      </trkpt>
      <trkpt lat="41.629070000" lon="2.512471100">
        <ele>383.20</ele>
        <time>2012-10-28T11:27:37Z</time>
      </trkpt>
      <trkpt lat="41.628963000" lon="2.512384100">
        <ele>384.70</ele>
        <time>2012-10-28T11:27:45Z</time>
      </trkpt>
      <trkpt lat="41.628887000" lon="2.512250100">
        <ele>385.60</ele>
        <time>2012-10-28T11:27:52Z</time>
      </trkpt>
      <trkpt lat="41.628796000" lon="2.512146100">
        <ele>385.10</ele>
        <time>2012-10-28T11:27:59Z</time>
      </trkpt>
      <trkpt lat="41.628696000" lon="2.512100100">
        <ele>386.10</ele>
        <time>2012-10-28T11:28:06Z</time>
      </trkpt>
      <trkpt lat="41.628628000" lon="2.511989100">
        <ele>386.10</ele>
        <time>2012-10-28T11:28:12Z</time>
      </trkpt>
      <trkpt lat="41.628616000" lon="2.511935100">
        <ele>386.10</ele>
        <time>2012-10-28T11:28:15Z</time>
      </trkpt>
      <trkpt lat="41.628567000" lon="2.511829100">
        <ele>390.00</ele>
        <time>2012-10-28T11:28:20Z</time>
      </trkpt>
      <trkpt lat="41.628517000" lon="2.511681100">
        <ele>390.90</ele>
        <time>2012-10-28T11:28:27Z</time>
      </trkpt>
      <trkpt lat="41.628479000" lon="2.511632100">
        <ele>390.90</ele>
        <time>2012-10-28T11:28:31Z</time>
      </trkpt>
      <trkpt lat="41.628368000" lon="2.511547100">
        <ele>391.90</ele>
        <time>2012-10-28T11:28:41Z</time>
      </trkpt>
      <trkpt lat="41.628315000" lon="2.511508100">
        <ele>395.20</ele>
        <time>2012-10-28T11:28:46Z</time>
      </trkpt>
      <trkpt lat="41.628231000" lon="2.511472100">
        <ele>396.20</ele>
        <time>2012-10-28T11:28:55Z</time>
      </trkpt>
      <trkpt lat="41.628162000" lon="2.511445100">
        <ele>397.20</ele>
        <time>2012-10-28T11:29:02Z</time>
      </trkpt>
      <trkpt lat="41.628109000" lon="2.511408100">
        <ele>401.00</ele>
        <time>2012-10-28T11:29:07Z</time>
      </trkpt>
      <trkpt lat="41.628067000" lon="2.511371100">
        <ele>404.40</ele>
        <time>2012-10-28T11:29:11Z</time>
      </trkpt>
      <trkpt lat="41.628021000" lon="2.511300100">
        <ele>406.30</ele>
        <time>2012-10-28T11:29:18Z</time>
      </trkpt>
      <trkpt lat="41.627934000" lon="2.511196100">
        <ele>408.70</ele>
        <time>2012-10-28T11:29:26Z</time>
      </trkpt>
      <trkpt lat="41.627865000" lon="2.511142100">
        <ele>411.60</ele>
        <time>2012-10-28T11:29:33Z</time>
      </trkpt>
      <trkpt lat="41.627766000" lon="2.511106100">
        <ele>412.10</ele>
        <time>2012-10-28T11:29:44Z</time>
      </trkpt>
      <trkpt lat="41.627705000" lon="2.511089100">
        <ele>415.00</ele>
        <time>2012-10-28T11:29:49Z</time>
      </trkpt>
      <trkpt lat="41.627674000" lon="2.511092100">
        <ele>418.30</ele>
        <time>2012-10-28T11:29:54Z</time>
      </trkpt>
      <trkpt lat="41.627663000" lon="2.511107100">
        <ele>419.30</ele>
        <time>2012-10-28T11:29:56Z</time>
      </trkpt>
      <trkpt lat="41.627613000" lon="2.511136100">
        <ele>420.20</ele>
        <time>2012-10-28T11:30:00Z</time>
      </trkpt>
      <trkpt lat="41.627525000" lon="2.511201100">
        <ele>419.80</ele>
        <time>2012-10-28T11:30:08Z</time>
      </trkpt>
      <trkpt lat="41.627487000" lon="2.511271100">
        <ele>420.20</ele>
        <time>2012-10-28T11:30:13Z</time>
      </trkpt>
      <trkpt lat="41.627441000" lon="2.511286100">
        <ele>420.70</ele>
        <time>2012-10-28T11:30:19Z</time>
      </trkpt>
      <trkpt lat="41.627354000" lon="2.511236100">
        <ele>421.20</ele>
        <time>2012-10-28T11:30:26Z</time>
      </trkpt>
      <trkpt lat="41.627258000" lon="2.511143100">
        <ele>421.70</ele>
        <time>2012-10-28T11:30:33Z</time>
      </trkpt>
      <trkpt lat="41.627174000" lon="2.511020100">
        <ele>421.70</ele>
        <time>2012-10-28T11:30:41Z</time>
      </trkpt>
      <trkpt lat="41.627110000" lon="2.510865100">
        <ele>422.20</ele>
        <time>2012-10-28T11:30:50Z</time>
      </trkpt>
      <trkpt lat="41.627068000" lon="2.510820100">
        <ele>422.60</ele>
        <time>2012-10-28T11:30:54Z</time>
      </trkpt>
      <trkpt lat="41.626984000" lon="2.510791100">
        <ele>424.60</ele>
        <time>2012-10-28T11:31:00Z</time>
      </trkpt>
      <trkpt lat="41.626915000" lon="2.510746100">
        <ele>428.40</ele>
        <time>2012-10-28T11:31:06Z</time>
      </trkpt>
      <trkpt lat="41.626877000" lon="2.510729100">
        <ele>430.30</ele>
        <time>2012-10-28T11:31:09Z</time>
      </trkpt>
      <trkpt lat="41.626770000" lon="2.510725100">
        <ele>431.80</ele>
        <time>2012-10-28T11:31:18Z</time>
      </trkpt>
      <trkpt lat="41.626617000" lon="2.510723100">
        <ele>431.80</ele>
        <time>2012-10-28T11:31:25Z</time>
      </trkpt>
      <trkpt lat="41.626480000" lon="2.510700100">
        <ele>431.80</ele>
        <time>2012-10-28T11:31:30Z</time>
      </trkpt>
      <trkpt lat="41.626328000" lon="2.510491100">
        <ele>431.80</ele>
        <time>2012-10-28T11:31:35Z</time>
      </trkpt>
      <trkpt lat="41.626312000" lon="2.510307100">
        <ele>431.80</ele>
        <time>2012-10-28T11:31:37Z</time>
      </trkpt>
      <trkpt lat="41.626324000" lon="2.510189100">
        <ele>430.30</ele>
        <time>2012-10-28T11:31:39Z</time>
      </trkpt>
      <trkpt lat="41.626320000" lon="2.509967100">
        <ele>430.30</ele>
        <time>2012-10-28T11:31:46Z</time>
      </trkpt>
      <trkpt lat="41.626308000" lon="2.509973100">
        <ele>429.90</ele>
        <time>2012-10-28T11:31:48Z</time>
      </trkpt>
      <trkpt lat="41.626263000" lon="2.510084100">
        <ele>429.90</ele>
        <time>2012-10-28T11:31:53Z</time>
      </trkpt>
      <trkpt lat="41.626156000" lon="2.510371100">
        <ele>429.90</ele>
        <time>2012-10-28T11:32:03Z</time>
      </trkpt>
      <trkpt lat="41.626091000" lon="2.510567100">
        <ele>430.80</ele>
        <time>2012-10-28T11:32:10Z</time>
      </trkpt>
      <trkpt lat="41.626022000" lon="2.510836100">
        <ele>433.20</ele>
        <time>2012-10-28T11:32:19Z</time>
      </trkpt>
      <trkpt lat="41.625957000" lon="2.511006100">
        <ele>436.60</ele>
        <time>2012-10-28T11:32:24Z</time>
      </trkpt>
      <trkpt lat="41.625893000" lon="2.511188100">
        <ele>437.50</ele>
        <time>2012-10-28T11:32:33Z</time>
      </trkpt>
      <trkpt lat="41.625847000" lon="2.511364100">
        <ele>438.00</ele>
        <time>2012-10-28T11:32:40Z</time>
      </trkpt>
      <trkpt lat="41.625839000" lon="2.511415100">
        <ele>438.50</ele>
        <time>2012-10-28T11:32:42Z</time>
      </trkpt>
      <trkpt lat="41.625881000" lon="2.511630100">
        <ele>439.50</ele>
        <time>2012-10-28T11:32:50Z</time>
      </trkpt>
      <trkpt lat="41.626003000" lon="2.511691100">
        <ele>440.40</ele>
        <time>2012-10-28T11:32:57Z</time>
      </trkpt>
      <trkpt lat="41.626076000" lon="2.511718100">
        <ele>443.80</ele>
        <time>2012-10-28T11:33:04Z</time>
      </trkpt>
      <trkpt lat="41.626129000" lon="2.511751100">
        <ele>446.70</ele>
        <time>2012-10-28T11:33:08Z</time>
      </trkpt>
      <trkpt lat="41.626205000" lon="2.511862100">
        <ele>445.20</ele>
        <time>2012-10-28T11:33:15Z</time>
      </trkpt>
      <trkpt lat="41.626266000" lon="2.512011100">
        <ele>445.20</ele>
        <time>2012-10-28T11:33:23Z</time>
      </trkpt>
      <trkpt lat="41.626316000" lon="2.512205100">
        <ele>447.60</ele>
        <time>2012-10-28T11:33:32Z</time>
      </trkpt>
      <trkpt lat="41.626347000" lon="2.512388100">
        <ele>448.60</ele>
        <time>2012-10-28T11:33:41Z</time>
      </trkpt>
      <trkpt lat="41.626362000" lon="2.512556100">
        <ele>449.10</ele>
        <time>2012-10-28T11:33:48Z</time>
      </trkpt>
      <trkpt lat="41.626369000" lon="2.512716100">
        <ele>449.50</ele>
        <time>2012-10-28T11:33:55Z</time>
      </trkpt>
      <trkpt lat="41.626415000" lon="2.512889100">
        <ele>450.50</ele>
        <time>2012-10-28T11:34:02Z</time>
      </trkpt>
      <trkpt lat="41.626534000" lon="2.512918100">
        <ele>451.50</ele>
        <time>2012-10-28T11:34:10Z</time>
      </trkpt>
      <trkpt lat="41.626678000" lon="2.512910100">
        <ele>452.00</ele>
        <time>2012-10-28T11:34:17Z</time>
      </trkpt>
      <trkpt lat="41.626862000" lon="2.512939100">
        <ele>453.40</ele>
        <time>2012-10-28T11:34:24Z</time>
      </trkpt>
      <trkpt lat="41.627026000" lon="2.513065100">
        <ele>453.90</ele>
        <time>2012-10-28T11:34:33Z</time>
      </trkpt>
      <trkpt lat="41.627125000" lon="2.513258100">
        <ele>454.80</ele>
        <time>2012-10-28T11:34:40Z</time>
      </trkpt>
      <trkpt lat="41.627232000" lon="2.513478100">
        <ele>455.80</ele>
        <time>2012-10-28T11:34:47Z</time>
      </trkpt>
      <trkpt lat="41.627274000" lon="2.513579100">
        <ele>456.30</ele>
        <time>2012-10-28T11:34:50Z</time>
      </trkpt>
      <trkpt lat="41.627357000" lon="2.513718100">
        <ele>456.30</ele>
        <time>2012-10-28T11:34:54Z</time>
      </trkpt>
      <trkpt lat="41.627426000" lon="2.513910100">
        <ele>456.30</ele>
        <time>2012-10-28T11:34:57Z</time>
      </trkpt>
      <trkpt lat="41.627445000" lon="2.514113100">
        <ele>456.30</ele>
        <time>2012-10-28T11:34:59Z</time>
      </trkpt>
      <trkpt lat="41.627476000" lon="2.514277100">
        <ele>456.30</ele>
        <time>2012-10-28T11:35:01Z</time>
      </trkpt>
      <trkpt lat="41.627460000" lon="2.514730100">
        <ele>452.90</ele>
        <time>2012-10-28T11:35:06Z</time>
      </trkpt>
      <trkpt lat="41.627346000" lon="2.515072100">
        <ele>448.60</ele>
        <time>2012-10-28T11:35:11Z</time>
      </trkpt>
      <trkpt lat="41.627308000" lon="2.515144100">
        <ele>447.10</ele>
        <time>2012-10-28T11:35:11Z</time>
      </trkpt>
      <trkpt lat="41.627209000" lon="2.515273100">
        <ele>445.20</ele>
        <time>2012-10-28T11:35:13Z</time>
      </trkpt>
      <trkpt lat="41.627068000" lon="2.515469100">
        <ele>441.90</ele>
        <time>2012-10-28T11:35:17Z</time>
      </trkpt>
      <trkpt lat="41.626904000" lon="2.515662100">
        <ele>440.40</ele>
        <time>2012-10-28T11:35:20Z</time>
      </trkpt>
      <trkpt lat="41.626751000" lon="2.516068100">
        <ele>439.50</ele>
        <time>2012-10-28T11:35:25Z</time>
      </trkpt>
      <trkpt lat="41.626736000" lon="2.516182100">
        <ele>439.00</ele>
        <time>2012-10-28T11:35:25Z</time>
      </trkpt>
      <trkpt lat="41.626686000" lon="2.516453100">
        <ele>438.00</ele>
        <time>2012-10-28T11:35:29Z</time>
      </trkpt>
      <trkpt lat="41.626614000" lon="2.517033100">
        <ele>434.60</ele>
        <time>2012-10-28T11:35:34Z</time>
      </trkpt>
      <trkpt lat="41.626560000" lon="2.517306100">
        <ele>432.70</ele>
        <time>2012-10-28T11:35:37Z</time>
      </trkpt>
      <trkpt lat="41.626534000" lon="2.517778100">
        <ele>430.30</ele>
        <time>2012-10-28T11:35:43Z</time>
      </trkpt>
      <trkpt lat="41.626545000" lon="2.518428100">
        <ele>428.40</ele>
        <time>2012-10-28T11:35:51Z</time>
      </trkpt>
      <trkpt lat="41.626553000" lon="2.518639100">
        <ele>428.40</ele>
        <time>2012-10-28T11:35:55Z</time>
      </trkpt>
      <trkpt lat="41.626659000" lon="2.518904100">
        <ele>429.40</ele>
        <time>2012-10-28T11:36:04Z</time>
      </trkpt>
      <trkpt lat="41.626686000" lon="2.519012100">
        <ele>429.40</ele>
        <time>2012-10-28T11:36:05Z</time>
      </trkpt>
      <trkpt lat="41.626724000" lon="2.519300100">
        <ele>429.40</ele>
        <time>2012-10-28T11:36:09Z</time>
      </trkpt>
      <trkpt lat="41.626759000" lon="2.519648100">
        <ele>429.40</ele>
        <time>2012-10-28T11:36:14Z</time>
      </trkpt>
      <trkpt lat="41.626705000" lon="2.519957100">
        <ele>425.50</ele>
        <time>2012-10-28T11:36:17Z</time>
      </trkpt>
      <trkpt lat="41.626606000" lon="2.520148100">
        <ele>424.10</ele>
        <time>2012-10-28T11:36:23Z</time>
      </trkpt>
      <trkpt lat="41.626591000" lon="2.520077100">
        <ele>424.10</ele>
        <time>2012-10-28T11:36:26Z</time>
      </trkpt>
      <trkpt lat="41.626640000" lon="2.519947100">
        <ele>424.10</ele>
        <time>2012-10-28T11:36:28Z</time>
      </trkpt>
      <trkpt lat="41.626648000" lon="2.519792100">
        <ele>422.60</ele>
        <time>2012-10-28T11:36:31Z</time>
      </trkpt>
      <trkpt lat="41.626602000" lon="2.519606100">
        <ele>419.30</ele>
        <time>2012-10-28T11:36:35Z</time>
      </trkpt>
      <trkpt lat="41.626553000" lon="2.519483100">
        <ele>415.90</ele>
        <time>2012-10-28T11:36:38Z</time>
      </trkpt>
      <trkpt lat="41.626514000" lon="2.519391100">
        <ele>412.50</ele>
        <time>2012-10-28T11:36:42Z</time>
      </trkpt>
      <trkpt lat="41.626457000" lon="2.519267100">
        <ele>410.10</ele>
        <time>2012-10-28T11:36:45Z</time>
      </trkpt>
      <trkpt lat="41.626354000" lon="2.519087100">
        <ele>409.20</ele>
        <time>2012-10-28T11:36:47Z</time>
      </trkpt>
      <trkpt lat="41.626270000" lon="2.518936100">
        <ele>407.30</ele>
        <time>2012-10-28T11:36:51Z</time>
      </trkpt>
      <trkpt lat="41.626141000" lon="2.518676100">
        <ele>402.90</ele>
        <time>2012-10-28T11:36:56Z</time>
      </trkpt>
      <trkpt lat="41.626072000" lon="2.518517100">
        <ele>400.00</ele>
        <time>2012-10-28T11:36:59Z</time>
      </trkpt>
      <trkpt lat="41.625973000" lon="2.518188100">
        <ele>395.20</ele>
        <time>2012-10-28T11:37:03Z</time>
      </trkpt>
      <trkpt lat="41.625919000" lon="2.517946100">
        <ele>394.30</ele>
        <time>2012-10-28T11:37:08Z</time>
      </trkpt>
      <trkpt lat="41.625862000" lon="2.517779100">
        <ele>391.90</ele>
        <time>2012-10-28T11:37:13Z</time>
      </trkpt>
      <trkpt lat="41.625851000" lon="2.517751100">
        <ele>392.40</ele>
        <time>2012-10-28T11:37:13Z</time>
      </trkpt>
      <trkpt lat="41.625729000" lon="2.517522100">
        <ele>389.00</ele>
        <time>2012-10-28T11:37:20Z</time>
      </trkpt>
      <trkpt lat="41.625584000" lon="2.517360100">
        <ele>385.60</ele>
        <time>2012-10-28T11:37:24Z</time>
      </trkpt>
      <trkpt lat="41.625477000" lon="2.517293100">
        <ele>382.70</ele>
        <time>2012-10-28T11:37:27Z</time>
      </trkpt>
      <trkpt lat="41.625439000" lon="2.517274100">
        <ele>381.80</ele>
        <time>2012-10-28T11:37:27Z</time>
      </trkpt>
      <trkpt lat="41.625053000" lon="2.517051100">
        <ele>377.00</ele>
        <time>2012-10-28T11:37:36Z</time>
      </trkpt>
      <trkpt lat="41.624870000" lon="2.517012100">
        <ele>375.50</ele>
        <time>2012-10-28T11:37:39Z</time>
      </trkpt>
      <trkpt lat="41.624584000" lon="2.517071100">
        <ele>372.20</ele>
        <time>2012-10-28T11:37:46Z</time>
      </trkpt>
      <trkpt lat="41.624432000" lon="2.517101100">
        <ele>370.20</ele>
        <time>2012-10-28T11:37:48Z</time>
      </trkpt>
      <trkpt lat="41.624218000" lon="2.517181100">
        <ele>365.90</ele>
        <time>2012-10-28T11:37:53Z</time>
      </trkpt>
      <trkpt lat="41.624191000" lon="2.517191100">
        <ele>365.00</ele>
        <time>2012-10-28T11:37:55Z</time>
      </trkpt>
      <trkpt lat="41.624195000" lon="2.517257100">
        <ele>362.50</ele>
        <time>2012-10-28T11:38:00Z</time>
      </trkpt>
      <trkpt lat="41.624332000" lon="2.517243100">
        <ele>362.50</ele>
        <time>2012-10-28T11:38:04Z</time>
      </trkpt>
      <trkpt lat="41.624615000" lon="2.517267100">
        <ele>362.50</ele>
        <time>2012-10-28T11:38:09Z</time>
      </trkpt>
      <trkpt lat="41.624836000" lon="2.517310100">
        <ele>362.10</ele>
        <time>2012-10-28T11:38:14Z</time>
      </trkpt>
      <trkpt lat="41.625130000" lon="2.517485100">
        <ele>362.10</ele>
        <time>2012-10-28T11:38:23Z</time>
      </trkpt>
      <trkpt lat="41.625305000" lon="2.517577100">
        <ele>362.10</ele>
        <time>2012-10-28T11:38:30Z</time>
      </trkpt>
      <trkpt lat="41.625336000" lon="2.517607100">
        <ele>362.10</ele>
        <time>2012-10-28T11:38:32Z</time>
      </trkpt>
      <trkpt lat="41.625401000" lon="2.517775100">
        <ele>362.10</ele>
        <time>2012-10-28T11:38:39Z</time>
      </trkpt>
      <trkpt lat="41.625431000" lon="2.517943100">
        <ele>363.50</ele>
        <time>2012-10-28T11:38:44Z</time>
      </trkpt>
      <trkpt lat="41.625481000" lon="2.518135100">
        <ele>365.00</ele>
        <time>2012-10-28T11:38:51Z</time>
      </trkpt>
      <trkpt lat="41.625526000" lon="2.518208100">
        <ele>365.90</ele>
        <time>2012-10-28T11:38:56Z</time>
      </trkpt>
      <trkpt lat="41.625568000" lon="2.518272100">
        <ele>366.40</ele>
        <time>2012-10-28T11:38:58Z</time>
      </trkpt>
      <trkpt lat="41.625591000" lon="2.518443100">
        <ele>370.20</ele>
        <time>2012-10-28T11:39:05Z</time>
      </trkpt>
      <trkpt lat="41.625622000" lon="2.518567100">
        <ele>373.60</ele>
        <time>2012-10-28T11:39:10Z</time>
      </trkpt>
      <trkpt lat="41.625671000" lon="2.518761100">
        <ele>375.00</ele>
        <time>2012-10-28T11:39:19Z</time>
      </trkpt>
      <trkpt lat="41.625767000" lon="2.518965100">
        <ele>375.00</ele>
        <time>2012-10-28T11:39:27Z</time>
      </trkpt>
      <trkpt lat="41.625854000" lon="2.519162100">
        <ele>375.50</ele>
        <time>2012-10-28T11:39:36Z</time>
      </trkpt>
      <trkpt lat="41.625843000" lon="2.519352100">
        <ele>376.50</ele>
        <time>2012-10-28T11:39:43Z</time>
      </trkpt>
      <trkpt lat="41.625698000" lon="2.519599100">
        <ele>377.90</ele>
        <time>2012-10-28T11:39:52Z</time>
      </trkpt>
      <trkpt lat="41.625526000" lon="2.519724100">
        <ele>377.90</ele>
        <time>2012-10-28T11:39:59Z</time>
      </trkpt>
      <trkpt lat="41.625423000" lon="2.519809100">
        <ele>377.90</ele>
        <time>2012-10-28T11:40:04Z</time>
      </trkpt>
      <trkpt lat="41.625393000" lon="2.520088100">
        <ele>377.90</ele>
        <time>2012-10-28T11:40:11Z</time>
      </trkpt>
      <trkpt lat="41.625404000" lon="2.520138100">
        <ele>377.90</ele>
        <time>2012-10-28T11:40:11Z</time>
      </trkpt>
      <trkpt lat="41.625443000" lon="2.520441100">
        <ele>377.90</ele>
        <time>2012-10-28T11:40:16Z</time>
      </trkpt>
      <trkpt lat="41.625488000" lon="2.520640100">
        <ele>376.50</ele>
        <time>2012-10-28T11:40:20Z</time>
      </trkpt>
      <trkpt lat="41.625511000" lon="2.520699100">
        <ele>376.50</ele>
        <time>2012-10-28T11:40:21Z</time>
      </trkpt>
      <trkpt lat="41.625565000" lon="2.520964100">
        <ele>372.60</ele>
        <time>2012-10-28T11:40:25Z</time>
      </trkpt>
      <trkpt lat="41.625454000" lon="2.521096100">
        <ele>368.80</ele>
        <time>2012-10-28T11:40:30Z</time>
      </trkpt>
      <trkpt lat="41.625366000" lon="2.521155100">
        <ele>368.30</ele>
        <time>2012-10-28T11:40:32Z</time>
      </trkpt>
      <trkpt lat="41.625164000" lon="2.521282100">
        <ele>367.40</ele>
        <time>2012-10-28T11:40:37Z</time>
      </trkpt>
      <trkpt lat="41.625031000" lon="2.521276100">
        <ele>366.90</ele>
        <time>2012-10-28T11:40:42Z</time>
      </trkpt>
      <trkpt lat="41.624908000" lon="2.521309100">
        <ele>365.00</ele>
        <time>2012-10-28T11:40:46Z</time>
      </trkpt>
      <trkpt lat="41.624825000" lon="2.521324100">
        <ele>362.10</ele>
        <time>2012-10-28T11:40:48Z</time>
      </trkpt>
      <trkpt lat="41.624702000" lon="2.521311100">
        <ele>358.20</ele>
        <time>2012-10-28T11:40:51Z</time>
      </trkpt>
      <trkpt lat="41.624664000" lon="2.521292100">
        <ele>356.80</ele>
        <time>2012-10-28T11:40:51Z</time>
      </trkpt>
      <trkpt lat="41.624561000" lon="2.521235100">
        <ele>353.90</ele>
        <time>2012-10-28T11:40:53Z</time>
      </trkpt>
      <trkpt lat="41.624283000" lon="2.521183100">
        <ele>349.60</ele>
        <time>2012-10-28T11:40:58Z</time>
      </trkpt>
      <trkpt lat="41.624165000" lon="2.521252100">
        <ele>348.10</ele>
        <time>2012-10-28T11:41:01Z</time>
      </trkpt>
      <trkpt lat="41.624069000" lon="2.521311100">
        <ele>347.60</ele>
        <time>2012-10-28T11:41:03Z</time>
      </trkpt>
      <trkpt lat="41.623943000" lon="2.521520100">
        <ele>344.80</ele>
        <time>2012-10-28T11:41:07Z</time>
      </trkpt>
      <trkpt lat="41.623901000" lon="2.521650100">
        <ele>343.30</ele>
        <time>2012-10-28T11:41:10Z</time>
      </trkpt>
      <trkpt lat="41.623768000" lon="2.521893100">
        <ele>339.50</ele>
        <time>2012-10-28T11:41:14Z</time>
      </trkpt>
      <trkpt lat="41.623631000" lon="2.522084100">
        <ele>336.10</ele>
        <time>2012-10-28T11:41:19Z</time>
      </trkpt>
      <trkpt lat="41.623604000" lon="2.522108100">
        <ele>336.60</ele>
        <time>2012-10-28T11:41:21Z</time>
      </trkpt>
      <trkpt lat="41.623566000" lon="2.522239100">
        <ele>335.20</ele>
        <time>2012-10-28T11:41:26Z</time>
      </trkpt>
      <trkpt lat="41.623535000" lon="2.522271100">
        <ele>335.20</ele>
        <time>2012-10-28T11:41:28Z</time>
      </trkpt>
      <trkpt lat="41.623344000" lon="2.522410100">
        <ele>331.30</ele>
        <time>2012-10-28T11:41:33Z</time>
      </trkpt>
      <trkpt lat="41.623245000" lon="2.522480100">
        <ele>327.00</ele>
        <time>2012-10-28T11:41:36Z</time>
      </trkpt>
      <trkpt lat="41.623135000" lon="2.522470100">
        <ele>323.60</ele>
        <time>2012-10-28T11:41:40Z</time>
      </trkpt>
      <trkpt lat="41.623093000" lon="2.522452100">
        <ele>323.10</ele>
        <time>2012-10-28T11:41:40Z</time>
      </trkpt>
      <trkpt lat="41.622711000" lon="2.522411100">
        <ele>323.60</ele>
        <time>2012-10-28T11:41:48Z</time>
      </trkpt>
      <trkpt lat="41.622429000" lon="2.522375100">
        <ele>324.60</ele>
        <time>2012-10-28T11:41:55Z</time>
      </trkpt>
      <trkpt lat="41.622215000" lon="2.522400100">
        <ele>324.60</ele>
        <time>2012-10-28T11:42:01Z</time>
      </trkpt>
      <trkpt lat="41.622101000" lon="2.522393100">
        <ele>320.70</ele>
        <time>2012-10-28T11:42:06Z</time>
      </trkpt>
      <trkpt lat="41.622074000" lon="2.522388100">
        <ele>319.30</ele>
        <time>2012-10-28T11:42:06Z</time>
      </trkpt>
      <trkpt lat="41.621967000" lon="2.522314100">
        <ele>314.50</ele>
        <time>2012-10-28T11:42:09Z</time>
      </trkpt>
      <trkpt lat="41.621914000" lon="2.522205100">
        <ele>311.10</ele>
        <time>2012-10-28T11:42:11Z</time>
      </trkpt>
      <trkpt lat="41.621891000" lon="2.522143100">
        <ele>309.70</ele>
        <time>2012-10-28T11:42:13Z</time>
      </trkpt>
      <trkpt lat="41.621834000" lon="2.521998100">
        <ele>306.80</ele>
        <time>2012-10-28T11:42:16Z</time>
      </trkpt>
      <trkpt lat="41.621807000" lon="2.521900100">
        <ele>306.30</ele>
        <time>2012-10-28T11:42:18Z</time>
      </trkpt>
      <trkpt lat="41.621738000" lon="2.521777100">
        <ele>306.30</ele>
        <time>2012-10-28T11:42:20Z</time>
      </trkpt>
      <trkpt lat="41.621620000" lon="2.521590100">
        <ele>306.30</ele>
        <time>2012-10-28T11:42:25Z</time>
      </trkpt>
      <trkpt lat="41.621437000" lon="2.521321100">
        <ele>304.90</ele>
        <time>2012-10-28T11:42:30Z</time>
      </trkpt>
      <trkpt lat="41.621273000" lon="2.521176100">
        <ele>300.50</ele>
        <time>2012-10-28T11:42:34Z</time>
      </trkpt>
      <trkpt lat="41.621197000" lon="2.521200100">
        <ele>297.70</ele>
        <time>2012-10-28T11:42:37Z</time>
      </trkpt>
      <trkpt lat="41.621136000" lon="2.521101100">
        <ele>293.80</ele>
        <time>2012-10-28T11:42:39Z</time>
      </trkpt>
      <trkpt lat="41.621185000" lon="2.521036100">
        <ele>292.40</ele>
        <time>2012-10-28T11:42:41Z</time>
      </trkpt>
      <trkpt lat="41.621342000" lon="2.520972100">
        <ele>292.40</ele>
        <time>2012-10-28T11:42:46Z</time>
      </trkpt>
      <trkpt lat="41.621609000" lon="2.521024100">
        <ele>292.40</ele>
        <time>2012-10-28T11:42:51Z</time>
      </trkpt>
      <trkpt lat="41.621754000" lon="2.520984100">
        <ele>292.40</ele>
        <time>2012-10-28T11:42:55Z</time>
      </trkpt>
      <trkpt lat="41.621948000" lon="2.520801100">
        <ele>291.40</ele>
        <time>2012-10-28T11:43:00Z</time>
      </trkpt>
      <trkpt lat="41.622135000" lon="2.520645100">
        <ele>286.60</ele>
        <time>2012-10-28T11:43:05Z</time>
      </trkpt>
      <trkpt lat="41.622280000" lon="2.520518100">
        <ele>281.80</ele>
        <time>2012-10-28T11:43:09Z</time>
      </trkpt>
      <trkpt lat="41.622387000" lon="2.520481100">
        <ele>279.90</ele>
        <time>2012-10-28T11:43:12Z</time>
      </trkpt>
      <trkpt lat="41.622433000" lon="2.520337100">
        <ele>279.40</ele>
        <time>2012-10-28T11:43:16Z</time>
      </trkpt>
      <trkpt lat="41.622261000" lon="2.520358100">
        <ele>279.40</ele>
        <time>2012-10-28T11:43:19Z</time>
      </trkpt>
      <trkpt lat="41.622025000" lon="2.520428100">
        <ele>275.60</ele>
        <time>2012-10-28T11:43:26Z</time>
      </trkpt>
      <trkpt lat="41.621925000" lon="2.520414100">
        <ele>272.20</ele>
        <time>2012-10-28T11:43:30Z</time>
      </trkpt>
      <trkpt lat="41.621826000" lon="2.520407100">
        <ele>268.80</ele>
        <time>2012-10-28T11:43:33Z</time>
      </trkpt>
      <trkpt lat="41.621666000" lon="2.520372100">
        <ele>265.50</ele>
        <time>2012-10-28T11:43:36Z</time>
      </trkpt>
      <trkpt lat="41.621555000" lon="2.520338100">
        <ele>263.50</ele>
        <time>2012-10-28T11:43:38Z</time>
      </trkpt>
      <trkpt lat="41.621307000" lon="2.520310100">
        <ele>260.20</ele>
        <time>2012-10-28T11:43:42Z</time>
      </trkpt>
      <trkpt lat="41.620991000" lon="2.520240100">
        <ele>255.90</ele>
        <time>2012-10-28T11:43:47Z</time>
      </trkpt>
      <trkpt lat="41.620926000" lon="2.520228100">
        <ele>254.90</ele>
        <time>2012-10-28T11:43:49Z</time>
      </trkpt>
      <trkpt lat="41.620613000" lon="2.520181100">
        <ele>251.50</ele>
        <time>2012-10-28T11:43:54Z</time>
      </trkpt>
      <trkpt lat="41.620373000" lon="2.520135100">
        <ele>248.20</ele>
        <time>2012-10-28T11:43:57Z</time>
      </trkpt>
      <trkpt lat="41.620300000" lon="2.520128100">
        <ele>247.70</ele>
        <time>2012-10-28T11:43:59Z</time>
      </trkpt>
      <trkpt lat="41.619976000" lon="2.520200100">
        <ele>246.20</ele>
        <time>2012-10-28T11:44:04Z</time>
      </trkpt>
      <trkpt lat="41.619926000" lon="2.520223100">
        <ele>245.30</ele>
        <time>2012-10-28T11:44:04Z</time>
      </trkpt>
      <trkpt lat="41.619781000" lon="2.520291100">
        <ele>242.90</ele>
        <time>2012-10-28T11:44:08Z</time>
      </trkpt>
      <trkpt lat="41.619602000" lon="2.520331100">
        <ele>238.50</ele>
        <time>2012-10-28T11:44:11Z</time>
      </trkpt>
      <trkpt lat="41.619568000" lon="2.520329100">
        <ele>237.60</ele>
        <time>2012-10-28T11:44:13Z</time>
      </trkpt>
      <trkpt lat="41.619411000" lon="2.520302100">
        <ele>235.70</ele>
        <time>2012-10-28T11:44:15Z</time>
      </trkpt>
      <trkpt lat="41.619278000" lon="2.520314100">
        <ele>234.20</ele>
        <time>2012-10-28T11:44:18Z</time>
      </trkpt>
      <trkpt lat="41.618847000" lon="2.520520100">
        <ele>230.40</ele>
        <time>2012-10-28T11:44:24Z</time>
      </trkpt>
      <trkpt lat="41.618553000" lon="2.520571100">
        <ele>226.10</ele>
        <time>2012-10-28T11:44:27Z</time>
      </trkpt>
      <trkpt lat="41.618355000" lon="2.520770100">
        <ele>222.20</ele>
        <time>2012-10-28T11:44:32Z</time>
      </trkpt>
      <trkpt lat="41.618301000" lon="2.520955100">
        <ele>221.20</ele>
        <time>2012-10-28T11:44:34Z</time>
      </trkpt>
      <trkpt lat="41.618084000" lon="2.521404100">
        <ele>216.90</ele>
        <time>2012-10-28T11:44:39Z</time>
      </trkpt>
      <trkpt lat="41.618023000" lon="2.521546100">
        <ele>214.50</ele>
        <time>2012-10-28T11:44:41Z</time>
      </trkpt>
      <trkpt lat="41.617897000" lon="2.521586100">
        <ele>210.70</ele>
        <time>2012-10-28T11:44:44Z</time>
      </trkpt>
      <trkpt lat="41.617863000" lon="2.521466100">
        <ele>208.70</ele>
        <time>2012-10-28T11:44:46Z</time>
      </trkpt>
      <trkpt lat="41.617783000" lon="2.521144100">
        <ele>207.30</ele>
        <time>2012-10-28T11:44:50Z</time>
      </trkpt>
      <trkpt lat="41.617733000" lon="2.520995100">
        <ele>207.30</ele>
        <time>2012-10-28T11:44:53Z</time>
      </trkpt>
      <trkpt lat="41.617668000" lon="2.520579100">
        <ele>207.30</ele>
        <time>2012-10-28T11:44:58Z</time>
      </trkpt>
      <trkpt lat="41.617710000" lon="2.520187100">
        <ele>206.30</ele>
        <time>2012-10-28T11:45:05Z</time>
      </trkpt>
      <trkpt lat="41.617741000" lon="2.520143100">
        <ele>205.40</ele>
        <time>2012-10-28T11:45:05Z</time>
      </trkpt>
      <trkpt lat="41.617878000" lon="2.519999100">
        <ele>200.60</ele>
        <time>2012-10-28T11:45:09Z</time>
      </trkpt>
      <trkpt lat="41.617882000" lon="2.519801100">
        <ele>195.30</ele>
        <time>2012-10-28T11:45:14Z</time>
      </trkpt>
      <trkpt lat="41.617817000" lon="2.519724100">
        <ele>193.80</ele>
        <time>2012-10-28T11:45:21Z</time>
      </trkpt>
      <trkpt lat="41.617813000" lon="2.519702100">
        <ele>193.80</ele>
        <time>2012-10-28T11:45:23Z</time>
      </trkpt>
      <trkpt lat="41.617809000" lon="2.519615100">
        <ele>193.80</ele>
        <time>2012-10-28T11:45:28Z</time>
      </trkpt>
      <trkpt lat="41.617664000" lon="2.519622100">
        <ele>193.80</ele>
        <time>2012-10-28T11:45:35Z</time>
      </trkpt>
      <trkpt lat="41.617538000" lon="2.519632100">
        <ele>193.80</ele>
        <time>2012-10-28T11:45:37Z</time>
      </trkpt>
      <trkpt lat="41.617443000" lon="2.519653100">
        <ele>193.80</ele>
        <time>2012-10-28T11:45:40Z</time>
      </trkpt>
      <trkpt lat="41.616966000" lon="2.519720100">
        <ele>192.90</ele>
        <time>2012-10-28T11:45:47Z</time>
      </trkpt>
      <trkpt lat="41.616585000" lon="2.519861100">
        <ele>191.40</ele>
        <time>2012-10-28T11:45:54Z</time>
      </trkpt>
      <trkpt lat="41.616375000" lon="2.520015100">
        <ele>187.60</ele>
        <time>2012-10-28T11:45:59Z</time>
      </trkpt>
      <trkpt lat="41.616325000" lon="2.520054100">
        <ele>187.60</ele>
        <time>2012-10-28T11:46:01Z</time>
      </trkpt>
      <trkpt lat="41.616180000" lon="2.520404100">
        <ele>187.60</ele>
        <time>2012-10-28T11:46:08Z</time>
      </trkpt>
      <trkpt lat="41.615974000" lon="2.521030100">
        <ele>188.60</ele>
        <time>2012-10-28T11:46:15Z</time>
      </trkpt>
      <trkpt lat="41.615955000" lon="2.521189100">
        <ele>188.60</ele>
        <time>2012-10-28T11:46:17Z</time>
      </trkpt>
      <trkpt lat="41.615856000" lon="2.521829100">
        <ele>188.60</ele>
        <time>2012-10-28T11:46:24Z</time>
      </trkpt>
      <trkpt lat="41.615780000" lon="2.522369100">
        <ele>187.10</ele>
        <time>2012-10-28T11:46:31Z</time>
      </trkpt>
      <trkpt lat="41.615707000" lon="2.522884100">
        <ele>183.30</ele>
        <time>2012-10-28T11:46:36Z</time>
      </trkpt>
      <trkpt lat="41.615643000" lon="2.523407100">
        <ele>179.90</ele>
        <time>2012-10-28T11:46:41Z</time>
      </trkpt>
      <trkpt lat="41.615604000" lon="2.523923100">
        <ele>179.40</ele>
        <time>2012-10-28T11:46:46Z</time>
      </trkpt>
      <trkpt lat="41.615597000" lon="2.524004100">
        <ele>179.40</ele>
        <time>2012-10-28T11:46:48Z</time>
      </trkpt>
      <trkpt lat="41.615540000" lon="2.524753100">
        <ele>178.00</ele>
        <time>2012-10-28T11:46:55Z</time>
      </trkpt>
      <trkpt lat="41.615520000" lon="2.525032100">
        <ele>176.10</ele>
        <time>2012-10-28T11:46:59Z</time>
      </trkpt>
      <trkpt lat="41.615505000" lon="2.525390100">
        <ele>172.20</ele>
        <time>2012-10-28T11:47:02Z</time>
      </trkpt>
      <trkpt lat="41.615501000" lon="2.525820100">
        <ele>170.30</ele>
        <time>2012-10-28T11:47:07Z</time>
      </trkpt>
      <trkpt lat="41.615559000" lon="2.526450100">
        <ele>170.30</ele>
        <time>2012-10-28T11:47:14Z</time>
      </trkpt>
      <trkpt lat="41.615562000" lon="2.526889100">
        <ele>170.30</ele>
        <time>2012-10-28T11:47:19Z</time>
      </trkpt>
      <trkpt lat="41.615429000" lon="2.527723100">
        <ele>166.40</ele>
        <time>2012-10-28T11:47:28Z</time>
      </trkpt>
      <trkpt lat="41.615337000" lon="2.528167100">
        <ele>163.60</ele>
        <time>2012-10-28T11:47:32Z</time>
      </trkpt>
      <trkpt lat="41.615173000" lon="2.529032100">
        <ele>161.60</ele>
        <time>2012-10-28T11:47:40Z</time>
      </trkpt>
      <trkpt lat="41.615162000" lon="2.529691100">
        <ele>161.60</ele>
        <time>2012-10-28T11:47:46Z</time>
      </trkpt>
      <trkpt lat="41.615158000" lon="2.530526100">
        <ele>160.70</ele>
        <time>2012-10-28T11:47:54Z</time>
      </trkpt>
      <trkpt lat="41.615147000" lon="2.530855100">
        <ele>156.80</ele>
        <time>2012-10-28T11:47:56Z</time>
      </trkpt>
      <trkpt lat="41.615101000" lon="2.531285100">
        <ele>153.50</ele>
        <time>2012-10-28T11:48:01Z</time>
      </trkpt>
      <trkpt lat="41.615067000" lon="2.531929100">
        <ele>152.00</ele>
        <time>2012-10-28T11:48:06Z</time>
      </trkpt>
      <trkpt lat="41.615044000" lon="2.532114100">
        <ele>152.00</ele>
        <time>2012-10-28T11:48:08Z</time>
      </trkpt>
      <trkpt lat="41.614780000" lon="2.533053100">
        <ele>152.00</ele>
        <time>2012-10-28T11:48:22Z</time>
      </trkpt>
      <trkpt lat="41.614815000" lon="2.533179100">
        <ele>151.10</ele>
        <time>2012-10-28T11:48:26Z</time>
      </trkpt>
      <trkpt lat="41.614822000" lon="2.533218100">
        <ele>151.10</ele>
        <time>2012-10-28T11:48:27Z</time>
      </trkpt>
      <trkpt lat="41.614803000" lon="2.533459100">
        <ele>149.60</ele>
        <time>2012-10-28T11:48:31Z</time>
      </trkpt>
      <trkpt lat="41.614758000" lon="2.533559100">
        <ele>148.70</ele>
        <time>2012-10-28T11:48:34Z</time>
      </trkpt>
      <trkpt lat="41.614708000" lon="2.533741100">
        <ele>146.70</ele>
        <time>2012-10-28T11:48:36Z</time>
      </trkpt>
      <trkpt lat="41.614590000" lon="2.534053100">
        <ele>144.80</ele>
        <time>2012-10-28T11:48:41Z</time>
      </trkpt>
      <trkpt lat="41.614388000" lon="2.534811100">
        <ele>143.90</ele>
        <time>2012-10-28T11:48:52Z</time>
      </trkpt>
      <trkpt lat="41.614159000" lon="2.535482100">
        <ele>142.90</ele>
        <time>2012-10-28T11:48:59Z</time>
      </trkpt>
      <trkpt lat="41.613976000" lon="2.535989100">
        <ele>141.90</ele>
        <time>2012-10-28T11:49:06Z</time>
      </trkpt>
      <trkpt lat="41.613789000" lon="2.536458100">
        <ele>140.50</ele>
        <time>2012-10-28T11:49:11Z</time>
      </trkpt>
      <trkpt lat="41.613758000" lon="2.536521100">
        <ele>140.00</ele>
        <time>2012-10-28T11:49:13Z</time>
      </trkpt>
      <trkpt lat="41.613590000" lon="2.536816100">
        <ele>139.10</ele>
        <time>2012-10-28T11:49:18Z</time>
      </trkpt>
      <trkpt lat="41.613518000" lon="2.536969100">
        <ele>138.60</ele>
        <time>2012-10-28T11:49:21Z</time>
      </trkpt>
      <trkpt lat="41.613281000" lon="2.537289100">
        <ele>137.10</ele>
        <time>2012-10-28T11:49:28Z</time>
      </trkpt>
      <trkpt lat="41.613071000" lon="2.537520100">
        <ele>136.20</ele>
        <time>2012-10-28T11:49:32Z</time>
      </trkpt>
      <trkpt lat="41.612881000" lon="2.537754100">
        <ele>134.70</ele>
        <time>2012-10-28T11:49:37Z</time>
      </trkpt>
      <trkpt lat="41.612625000" lon="2.538028100">
        <ele>133.80</ele>
        <time>2012-10-28T11:49:44Z</time>
      </trkpt>
      <trkpt lat="41.612400000" lon="2.538316100">
        <ele>132.80</ele>
        <time>2012-10-28T11:49:51Z</time>
      </trkpt>
      <trkpt lat="41.612171000" lon="2.538719100">
        <ele>130.90</ele>
        <time>2012-10-28T11:50:00Z</time>
      </trkpt>
      <trkpt lat="41.612026000" lon="2.538960100">
        <ele>129.90</ele>
        <time>2012-10-28T11:50:07Z</time>
      </trkpt>
      <trkpt lat="41.611809000" lon="2.539240100">
        <ele>128.90</ele>
        <time>2012-10-28T11:50:14Z</time>
      </trkpt>
      <trkpt lat="41.611618000" lon="2.539499100">
        <ele>128.00</ele>
        <time>2012-10-28T11:50:22Z</time>
      </trkpt>
      <trkpt lat="41.611622000" lon="2.539693100">
        <ele>127.50</ele>
        <time>2012-10-28T11:50:26Z</time>
      </trkpt>
      <trkpt lat="41.611675000" lon="2.540051100">
        <ele>127.00</ele>
        <time>2012-10-28T11:50:35Z</time>
      </trkpt>
      <trkpt lat="41.611671000" lon="2.540431100">
        <ele>127.00</ele>
        <time>2012-10-28T11:50:43Z</time>
      </trkpt>
      <trkpt lat="41.611687000" lon="2.540637100">
        <ele>128.50</ele>
        <time>2012-10-28T11:50:50Z</time>
      </trkpt>
      <trkpt lat="41.611671000" lon="2.540711100">
        <ele>128.90</ele>
        <time>2012-10-28T11:50:54Z</time>
      </trkpt>
      <trkpt lat="41.611626000" lon="2.540762100">
        <ele>129.40</ele>
        <time>2012-10-28T11:50:57Z</time>
      </trkpt>
      <trkpt lat="41.611427000" lon="2.540847100">
        <ele>129.90</ele>
        <time>2012-10-28T11:51:02Z</time>
      </trkpt>
      <trkpt lat="41.611023000" lon="2.541027100">
        <ele>129.90</ele>
        <time>2012-10-28T11:51:11Z</time>
      </trkpt>
      <trkpt lat="41.610558000" lon="2.541221100">
        <ele>128.50</ele>
        <time>2012-10-28T11:51:18Z</time>
      </trkpt>
      <trkpt lat="41.610310000" lon="2.541318100">
        <ele>127.50</ele>
        <time>2012-10-28T11:51:23Z</time>
      </trkpt>
      <trkpt lat="41.610226000" lon="2.541220100">
        <ele>126.60</ele>
        <time>2012-10-28T11:51:27Z</time>
      </trkpt>
      <trkpt lat="41.610176000" lon="2.541001100">
        <ele>123.20</ele>
        <time>2012-10-28T11:51:32Z</time>
      </trkpt>
      <trkpt lat="41.610100000" lon="2.540666100">
        <ele>120.80</ele>
        <time>2012-10-28T11:51:37Z</time>
      </trkpt>
      <trkpt lat="41.610062000" lon="2.540591100">
        <ele>120.30</ele>
        <time>2012-10-28T11:51:42Z</time>
      </trkpt>
      <trkpt lat="41.609989000" lon="2.540519100">
        <ele>120.30</ele>
        <time>2012-10-28T11:51:48Z</time>
      </trkpt>
      <trkpt lat="41.609913000" lon="2.540490100">
        <ele>120.30</ele>
        <time>2012-10-28T11:51:51Z</time>
      </trkpt>
      <trkpt lat="41.609692000" lon="2.540519100">
        <ele>119.80</ele>
        <time>2012-10-28T11:51:58Z</time>
      </trkpt>
      <trkpt lat="41.609444000" lon="2.540519100">
        <ele>119.30</ele>
        <time>2012-10-28T11:52:05Z</time>
      </trkpt>
      <trkpt lat="41.609241000" lon="2.540550100">
        <ele>118.40</ele>
        <time>2012-10-28T11:52:12Z</time>
      </trkpt>
      <trkpt lat="41.609177000" lon="2.540581100">
        <ele>117.90</ele>
        <time>2012-10-28T11:52:17Z</time>
      </trkpt>
      <trkpt lat="41.609169000" lon="2.540579100">
        <ele>116.50</ele>
        <time>2012-10-28T11:52:24Z</time>
      </trkpt>
      <trkpt lat="41.609169000" lon="2.540579100">
        <ele>116.50</ele>
        <time>2012-10-28T11:52:33Z</time>
      </trkpt>
      <trkpt lat="41.609131000" lon="2.540590100">
        <ele>116.00</ele>
        <time>2012-10-28T11:52:35Z</time>
      </trkpt>
      <trkpt lat="41.608948000" lon="2.540601100">
        <ele>115.50</ele>
        <time>2012-10-28T11:52:42Z</time>
      </trkpt>
      <trkpt lat="41.608936000" lon="2.540601100">
        <ele>115.00</ele>
        <time>2012-10-28T11:52:47Z</time>
      </trkpt>
      <trkpt lat="41.608898000" lon="2.540591100">
        <ele>115.00</ele>
        <time>2012-10-28T11:52:57Z</time>
      </trkpt>
      <trkpt lat="41.608875000" lon="2.540533100">
        <ele>115.00</ele>
        <time>2012-10-28T11:53:01Z</time>
      </trkpt>
      <trkpt lat="41.608894000" lon="2.540485100">
        <ele>115.00</ele>
        <time>2012-10-28T11:53:06Z</time>
      </trkpt>
      <trkpt lat="41.608898000" lon="2.540485100">
        <ele>115.00</ele>
        <time>2012-10-28T11:53:39Z</time>
      </trkpt>
      <trkpt lat="41.608891000" lon="2.540477100">
        <ele>115.00</ele>
        <time>2012-10-28T11:53:48Z</time>
      </trkpt>
      <trkpt lat="41.608891000" lon="2.540477100">
        <ele>115.00</ele>
        <time>2012-10-28T11:53:58Z</time>
      </trkpt>
    </trkseg>
  </trk>
</gpx>
